GFSMW_500_spd_000.txt.gz
Wind_Speed
22 25 27 30 33 35 34 33 32 30 28 26 28 29 31 33 35 36 37 38 40 42 42 44 47 48 47 48 50 52 51 52 53 54 54 54 55 54 55 56 54 54 56
27 29 31 32 32 31 29 28 28 29 28 29 31 33 35 36 38 40 41 42 43 45 46 47 48 49 52 51 53 56 56 54 55 56 58 58 57 58 58 57 56 55 57
31 31 30 27 27 27 28 28 28 29 30 31 31 34 36 36 38 40 40 41 42 43 45 47 49 50 51 52 53 54 57 58 57 59 60 63 63 62 57 56 55 55 56
28 26 24 25 26 26 25 26 28 29 30 31 31 33 34 35 37 38 39 40 40 41 43 46 49 52 54 55 57 58 59 62 63 63 63 63 63 64 64 61 60 61 62
22 23 24 24 25 26 26 28 30 32 34 36 38 39 40 42 44 46 47 48 49 48 50 53 56 58 60 59 60 62 64 65 67 66 67 66 63 61 65 66 63 67 63
23 24 26 27 28 29 31 34 36 38 40 42 44 45 46 48 50 52 53 54 55 56 57 59 60 62 64 65 64 65 65 66 67 67 67 67 66 64 66 68 67 70 64
25 27 30 32 33 35 38 39 41 43 45 47 50 51 53 54 55 56 56 56 57 59 60 61 62 62 63 64 65 67 68 66 68 68 67 68 68 69 72 71 69 69 63
31 33 35 36 38 40 42 44 45 47 47 48 48 49 51 53 54 56 58 61 63 64 66 67 67 66 67 68 68 69 68 67 68 70 69 70 70 72 74 72 70 70 66
37 38 39 40 41 41 43 44 45 47 49 51 52 55 57 59 61 63 65 66 68 68 69 69 69 68 68 67 68 69 69 70 71 74 75 75 74 74 75 72 67 68 70
37 38 38 39 40 43 46 48 50 52 54 56 58 59 60 61 63 64 65 65 66 65 62 62 65 66 67 70 72 74 73 75 75 77 78 79 78 78 78 73 70 66 66
38 40 41 42 43 47 49 51 52 55 57 58 58 59 59 60 60 61 62 62 63 64 66 69 71 74 74 74 76 77 76 78 79 76 77 76 75 77 76 75 70 69 66
41 45 45 47 49 51 51 51 53 55 56 57 58 59 61 62 64 64 65 67 69 70 71 72 73 75 77 79 79 79 81 82 84 84 82 73 65 67 77 77 74 66 61
43 47 49 49 50 51 52 55 57 59 61 62 63 64 65 66 66 68 70 71 71 71 71 72 73 75 77 79 80 79 80 82 84 86 88 87 84 81 81 80 81 73 70
39 44 50 54 56 59 61 63 64 67 68 69 69 69 69 69 68 68 68 68 69 71 73 75 77 78 78 80 79 78 77 81 83 82 81 80 81 82 81 79 78 72 66
50 53 55 59 63 66 68 70 71 72 72 73 74 74 74 74 74 72 72 73 73 72 72 73 76 78 80 81 81 82 83 84 82 78 75 76 75 75 75 74 73 67 60
55 59 64 66 68 69 70 72 73 74 75 76 78 78 76 73 71 70 72 72 74 75 76 77 80 79 80 81 81 82 83 81 80 81 77 76 75 72 70 67 64 62 57
62 65 69 72 74 76 77 78 79 80 80 80 77 75 76 76 75 71 71 74 75 77 79 80 79 79 79 78 78 79 80 81 82 81 80 77 74 72 70 65 65 61 55
70 73 76 78 81 83 84 84 83 81 79 78 77 75 74 74 75 75 76 78 79 80 79 80 79 77 75 76 79 79 79 79 78 79 79 78 75 71 69 66 62 58 55
77 79 82 84 85 85 85 83 82 81 79 75 73 74 75 77 79 80 79 80 81 80 79 78 77 75 75 73 75 77 78 78 78 79 77 75 74 69 65 62 53 48 50
81 84 87 87 86 85 83 79 76 75 75 74 74 76 76 74 75 76 72 70 71 71 71 72 71 71 72 75 78 81 82 81 80 77 73 69 67 63 58 53 48 46 42
86 87 86 84 80 75 73 72 73 73 74 76 77 76 74 73 70 68 68 69 70 72 72 74 76 78 80 81 83 85 85 81 77 73 69 62 57 52 47 49 46 37 44
83 81 76 75 72 71 69 68 69 70 71 72 69 67 66 66 67 69 70 73 77 79 80 81 81 80 82 84 80 75 70 66 64 59 58 52 42 41 46 51 47 42 36
74 71 69 67 65 66 67 68 67 65 62 61 61 61 62 67 71 74 78 80 83 86 86 85 84 80 75 73 70 64 59 56 53 50 46 40 36 41 43 43 45 40 35
64 62 60 62 64 66 65 62 59 58 58 59 62 66 69 72 76 79 81 82 82 83 81 79 76 72 68 66 63 57 53 49 45 41 43 43 41 40 38 39 46 38 36
59 59 61 62 63 59 57 59 61 61 63 66 69 72 74 77 79 80 82 82 80 79 76 72 69 66 62 59 56 51 48 44 40 36 40 42 41 38 33 34 39 32 30
58 58 60 59 57 59 62 64 65 68 71 73 76 78 81 83 85 86 82 80 76 69 62 59 59 56 53 51 46 43 42 38 34 32 37 38 35 29 27 30 34 26 23

GFSMW_500_spd_003.txt.gz
Wind_Speed
17 19 22 27 30 32 34 34 32 30 26 25 26 28 29 29 31 33 36 38 39 40 41 42 42 44 44 45 47 50 51 52 53 55 53 52 53 53 54 54 54 54 55
21 24 27 31 33 34 31 28 26 25 25 24 24 26 28 29 32 35 36 38 39 39 40 41 42 43 46 46 46 48 50 52 54 57 58 58 57 58 59 57 55 55 54
25 28 30 31 31 29 27 26 26 27 27 27 27 27 30 31 34 37 38 41 42 43 44 45 46 45 47 48 48 50 53 54 56 58 62 64 64 63 59 58 57 55 54
31 32 31 29 27 26 25 26 27 28 30 31 32 33 35 37 40 42 44 45 47 49 50 52 54 55 56 56 58 59 61 63 62 61 61 64 66 67 67 61 58 60 56
31 30 26 23 24 25 26 28 29 31 34 36 39 41 43 45 47 50 52 53 55 57 57 58 58 60 61 62 62 64 65 65 66 66 66 68 67 65 70 73 65 63 58
24 24 23 24 25 27 30 32 35 38 40 42 45 47 49 50 51 52 53 54 55 57 59 60 61 62 64 66 68 70 70 70 70 69 69 69 73 69 69 70 72 72 65
23 23 25 28 30 32 34 37 39 42 43 45 46 47 49 51 53 55 57 59 60 63 65 67 69 69 69 70 71 73 73 72 68 68 67 67 66 67 70 74 72 76 74
25 27 29 32 34 35 36 37 39 41 43 46 48 51 53 56 58 59 61 62 63 65 66 68 69 70 70 69 69 69 68 67 65 61 64 65 67 70 71 73 73 71 70
30 30 30 30 30 33 35 37 40 43 46 49 52 54 56 58 59 60 62 62 63 64 65 66 66 67 69 69 69 69 70 72 72 73 68 66 66 68 70 70 70 72 72
28 29 30 32 33 35 37 41 44 47 49 52 53 54 55 57 59 61 62 64 65 67 69 71 72 73 74 75 77 77 76 78 78 78 77 77 71 67 67 69 70 71 73
28 31 35 36 36 38 40 43 45 46 48 52 55 57 59 60 63 64 65 66 68 69 71 73 75 76 78 79 80 80 80 80 80 79 79 78 78 78 74 67 67 68 73
30 34 37 39 39 40 43 47 50 52 56 60 62 64 65 67 68 68 70 71 72 73 75 76 77 78 78 78 78 78 79 81 81 81 81 79 76 76 74 73 70 66 65
36 36 37 40 44 48 51 55 60 61 63 66 67 69 71 73 75 76 76 76 76 75 75 75 76 78 79 79 79 81 80 80 79 78 77 76 76 74 73 72 71 70 67
37 40 44 50 55 58 60 63 65 67 69 71 74 77 79 81 82 84 84 84 83 81 78 77 77 78 79 81 83 83 83 81 78 76 75 76 76 77 75 73 71 70 68
44 49 52 56 60 63 65 68 71 73 76 79 81 84 86 87 88 87 86 85 85 82 79 79 80 82 83 81 80 81 81 81 82 81 81 81 79 79 78 76 74 71 68
51 55 58 62 66 68 71 73 75 79 83 86 89 90 90 90 89 90 88 87 85 82 81 80 81 81 81 81 84 86 85 82 80 78 78 79 78 78 77 74 72 70 68
56 60 64 67 69 71 74 78 82 85 88 92 94 94 93 91 88 86 85 84 82 81 81 82 84 84 84 86 85 86 85 81 79 77 76 75 74 73 75 74 72 71 71
62 64 66 69 74 78 80 84 88 91 92 92 92 88 85 83 81 80 78 77 77 77 77 78 78 78 81 80 80 80 79 77 76 75 75 74 73 74 76 76 74 72 70
65 68 72 75 78 80 85 89 91 92 90 88 85 82 77 72 71 71 72 73 72 71 71 71 72 73 75 78 78 79 79 77 76 75 77 78 79 80 81 81 80 74 68
69 73 76 79 83 87 90 93 91 86 83 81 76 71 69 69 70 68 66 65 66 67 70 71 73 75 77 80 82 84 84 82 81 79 79 80 81 81 77 75 72 68 61
74 75 80 85 88 88 88 82 77 74 70 66 65 67 65 62 61 62 64 66 69 72 75 77 79 81 83 84 85 86 86 84 82 78 74 72 68 65 61 59 58 56 51
75 81 85 88 86 80 74 68 65 61 61 62 61 59 60 63 65 67 69 73 76 77 79 81 83 84 84 82 82 80 77 76 74 68 62 59 58 53 50 50 47 45 47
82 86 87 83 76 68 65 62 59 60 60 59 60 62 63 66 70 74 76 78 79 82 85 86 86 82 78 75 74 71 68 66 63 59 54 49 45 43 42 41 40 39 39
85 84 80 72 65 63 62 61 60 60 60 61 64 67 69 72 76 79 81 83 85 88 89 87 82 76 72 67 65 59 54 51 50 47 42 39 37 34 35 37 33 29 28
84 79 69 64 62 61 61 61 61 61 64 67 70 73 76 79 82 84 86 87 88 90 88 84 78 71 61 53 51 47 41 38 38 36 34 32 30 29 32 33 29 26 21
78 71 65 62 61 60 60 60 63 66 70 73 76 79 83 85 88 90 88 87 86 83 77 69 63 54 48 46 44 38 34 33 32 29 26 26 26 27 30 29 26 25 18

GFSMW_500_spd_006.txt.gz
Wind_Speed
19 18 19 20 22 25 29 32 33 33 31 29 28 26 26 25 26 29 31 32 33 35 36 36 37 39 40 42 42 44 46 47 51 54 55 57 57 57 58 59 59 59 60
18 18 21 24 27 31 34 34 33 29 26 25 25 26 27 29 30 32 33 35 37 40 41 43 44 45 47 49 50 51 52 52 54 57 61 62 60 59 62 63 63 62 62
18 20 24 28 32 35 36 35 30 28 27 27 27 28 29 31 34 37 39 42 44 46 49 50 52 54 54 55 55 56 58 59 59 61 65 67 67 66 61 63 64 64 63
21 25 28 32 34 35 33 29 29 30 29 30 31 34 36 37 39 41 44 46 48 49 51 52 54 55 57 58 60 61 62 63 64 66 66 67 70 73 74 64 64 66 64
25 28 31 32 30 28 27 27 28 30 32 34 36 38 39 40 41 42 45 47 49 52 54 55 58 60 62 64 67 68 70 71 72 72 73 74 73 71 72 74 64 61 60
29 28 25 24 24 25 27 29 30 31 32 34 36 37 39 42 44 47 49 52 55 57 60 61 63 64 66 67 69 70 70 70 71 71 70 68 67 64 65 67 65 64 59
26 24 24 24 25 26 27 28 30 32 34 36 38 41 44 47 49 52 54 55 56 57 58 59 61 63 64 65 66 67 67 68 69 70 72 68 62 59 61 64 66 68 68
25 23 22 23 23 26 29 31 33 36 38 40 43 46 48 50 51 52 54 57 59 61 63 65 67 69 71 72 73 74 74 75 76 75 75 76 76 76 71 69 70 70 68
22 22 24 25 27 31 33 34 36 39 42 43 44 45 47 51 54 58 60 62 63 65 67 69 71 72 74 75 76 77 78 79 80 81 82 82 81 79 77 75 73 74 75
23 26 27 30 32 34 36 37 39 40 41 45 48 50 54 57 58 59 61 64 68 71 74 77 78 80 82 83 84 83 83 84 85 86 86 84 82 79 77 76 73 70 72
26 28 31 34 36 38 39 39 40 44 49 53 56 59 61 63 65 66 69 72 75 78 81 83 85 86 88 88 89 88 88 88 87 85 84 83 82 81 78 77 77 76 74
27 31 33 34 35 37 40 44 49 52 55 59 62 64 66 68 70 74 77 80 83 86 89 91 93 93 92 90 89 88 88 87 86 85 84 81 80 79 78 78 77 76 73
33 34 34 35 39 43 47 51 54 57 61 64 66 68 70 73 77 81 84 87 91 94 96 97 96 96 95 93 89 88 87 86 84 82 79 79 78 75 74 74 75 73 73
32 33 36 40 45 49 53 57 61 64 66 68 70 74 78 81 84 87 91 95 98 99 98 95 93 92 90 90 88 89 87 84 81 81 79 77 76 76 73 73 73 72 71
35 39 42 46 51 55 59 62 65 68 70 74 78 80 82 85 90 94 97 100 101 99 98 96 93 89 84 79 77 76 76 73 72 72 72 71 72 72 72 74 72 72 70
38 43 48 52 58 62 65 67 70 73 77 80 81 84 88 92 96 98 98 97 94 94 92 87 80 75 73 72 72 72 71 69 71 70 69 69 70 70 71 72 71 68 67
46 51 55 60 64 67 69 72 74 76 78 82 87 90 94 96 96 92 89 88 84 78 73 71 71 70 69 69 70 71 72 73 74 74 73 71 72 73 73 71 70 69 69
54 58 60 63 65 67 70 73 74 77 82 87 91 94 95 91 86 82 78 72 69 67 65 64 65 66 68 71 74 77 79 80 80 81 80 79 77 78 80 77 74 72 72
57 59 60 63 66 70 72 74 77 82 87 91 94 92 85 80 75 70 67 66 64 64 66 68 70 72 74 77 79 82 82 83 84 84 82 79 76 75 77 77 75 73 70
58 61 63 66 69 70 73 78 84 87 91 92 86 79 74 70 67 66 65 65 67 69 72 74 79 81 82 83 85 87 88 87 86 82 78 73 70 69 67 68 67 66 65
62 65 69 70 71 74 80 85 88 91 88 78 72 70 68 68 67 66 68 69 72 76 79 81 84 87 88 88 89 89 88 86 83 77 71 66 63 62 60 60 58 56 54
65 68 70 71 76 82 85 89 92 86 76 71 68 67 67 68 69 70 73 76 80 83 86 89 91 91 90 90 90 88 85 80 75 69 62 57 52 50 48 47 44 43 42
71 72 72 76 82 86 89 90 84 75 68 66 66 66 66 69 73 75 78 82 88 92 94 95 95 92 89 85 81 77 73 66 59 53 51 48 43 40 38 35 33 34 35
73 74 76 82 87 90 89 83 75 68 65 66 67 68 69 72 76 81 87 91 94 97 97 95 91 85 77 70 66 62 55 47 43 41 41 44 38 33 28 26 27 28 29
73 76 82 86 89 87 79 73 68 66 66 66 68 70 74 79 84 87 91 92 92 90 87 81 75 70 61 53 50 47 41 34 32 31 32 33 32 28 23 22 23 22 20
76 82 85 87 85 78 69 66 65 66 68 69 72 77 82 86 89 90 88 81 74 69 67 61 58 52 49 45 43 40 32 29 29 30 28 27 27 24 19 18 15 14 16

GFSMW_500_spd_009.txt.gz
Wind_Speed
25 21 22 21 20 21 22 25 29 32 36 38 38 36 33 32 31 30 29 30 31 33 34 36 38 40 42 44 46 48 50 50 52 54 54 55 56 58 58 60 63 63 62
21 20 19 20 21 23 26 29 32 34 36 36 34 32 31 29 29 31 32 34 36 38 39 41 43 45 47 49 51 53 55 56 57 60 62 61 59 58 61 63 64 65 65
20 20 20 22 24 27 31 33 34 35 33 30 29 28 29 30 31 33 35 36 38 40 43 45 46 49 51 53 56 58 61 63 64 66 69 71 71 71 68 66 66 66 68
17 20 22 26 30 32 34 35 33 30 27 27 28 30 30 32 33 35 37 40 42 45 48 51 53 56 58 60 61 63 64 65 66 67 68 70 73 76 76 71 68 62 62
20 24 28 31 34 35 33 28 26 26 28 29 31 32 33 34 36 39 42 45 48 50 53 54 55 55 57 58 60 61 64 66 68 69 70 71 72 73 75 76 75 71 64
24 27 31 34 34 30 28 27 27 29 30 32 34 35 38 39 41 44 47 49 50 50 52 55 57 59 61 62 63 65 67 68 69 71 72 74 75 77 79 80 79 77 73
29 31 34 31 28 27 28 29 30 32 34 36 38 40 42 44 45 45 46 49 53 56 58 59 61 62 64 68 71 73 75 77 78 79 80 80 81 81 81 82 82 83 80
32 32 31 26 28 30 31 32 34 36 37 40 42 42 40 43 46 49 53 57 59 60 62 64 67 70 73 76 78 80 82 84 86 87 88 89 88 86 86 85 85 85 83
31 29 27 28 30 33 34 35 37 39 40 42 41 42 48 52 54 58 61 64 65 67 69 72 74 78 81 84 87 89 91 92 93 95 94 95 94 91 89 86 85 82 86
25 26 27 30 33 35 35 37 38 38 38 40 45 50 53 57 61 64 67 68 70 72 75 78 81 84 88 91 94 97 99 101 101 99 97 94 93 93 90 87 84 80 79
28 28 29 32 34 35 35 35 37 39 43 47 51 55 59 63 66 67 68 71 75 78 80 83 86 90 96 100 103 105 105 104 102 97 94 92 92 90 88 84 78 77 74
27 27 30 33 34 34 36 39 42 46 49 53 58 62 65 67 68 71 74 78 80 83 86 88 94 98 101 103 104 104 102 99 93 87 82 78 77 76 73 72 72 72 72
28 30 31 32 34 36 39 43 47 52 58 62 65 67 70 72 75 78 80 81 82 86 91 95 98 100 102 102 100 98 92 85 76 72 70 68 68 67 67 67 68 69 68
28 30 32 35 37 40 43 48 52 57 61 65 69 72 74 76 77 78 80 83 89 94 98 100 99 98 96 93 87 80 76 71 68 66 66 65 66 67 67 68 68 69 69
29 32 34 37 42 46 51 54 58 62 66 68 70 72 73 75 77 82 88 93 97 101 100 96 93 90 85 77 74 71 70 68 67 67 69 69 71 74 75 75 73 75 75
33 36 40 44 48 52 55 59 63 65 67 69 69 70 74 79 85 90 94 98 101 98 92 87 83 77 73 70 70 71 71 71 73 75 75 76 77 79 80 79 79 80 80
39 42 46 50 54 56 59 62 65 67 68 69 72 76 81 87 91 97 100 100 94 87 83 79 76 72 70 71 72 76 78 79 80 82 83 83 85 85 84 82 81 80 79
43 47 51 55 59 61 63 65 68 70 72 74 78 83 87 92 97 100 97 90 84 80 78 76 75 74 75 77 79 83 85 88 90 91 91 90 88 86 84 80 76 73 71
49 52 57 58 59 62 65 68 70 73 75 78 84 89 95 99 97 91 83 79 76 75 75 76 76 77 79 84 89 94 97 98 97 95 91 89 85 83 81 76 70 65 61
52 54 56 59 62 65 68 71 73 75 79 85 91 96 99 95 87 80 75 73 74 75 76 77 81 85 89 93 98 101 101 99 95 91 84 78 74 70 68 65 62 58 53
54 57 59 62 64 67 70 71 74 78 83 89 95 95 87 80 74 71 71 72 75 78 82 86 90 93 96 95 93 89 88 84 80 73 65 59 55 53 52 50 51 50 46
57 59 61 64 67 70 71 74 79 83 89 93 90 83 76 70 69 69 73 78 84 88 91 94 93 91 85 77 74 71 67 62 58 51 43 41 40 40 41 39 40 40 38
60 63 65 67 70 72 75 80 84 89 91 87 80 73 67 65 68 73 79 85 90 93 93 91 85 73 67 64 61 60 56 51 47 43 40 38 37 36 34 34 33 33 29
62 65 67 70 73 76 80 83 87 89 86 80 73 67 64 65 71 78 84 89 92 90 84 76 71 68 59 55 57 55 49 44 39 35 32 32 33 33 31 28 27 25 20
64 66 69 72 75 79 84 87 88 85 79 72 67 64 64 69 75 81 87 89 85 80 76 73 72 61 52 54 55 48 45 42 38 33 31 31 31 30 29 25 20 15 12
65 68 71 74 77 82 84 86 83 79 73 69 65 64 67 72 78 84 85 82 76 71 71 73 67 56 54 55 53 47 42 36 37 34 33 31 28 26 23 16 8 7 6

GFSMW_500_spd_012.txt.gz
Wind_Speed
26 29 26 23 23 22 24 22 23 27 30 32 34 36 37 36 35 34 32 31 32 34 35 36 38 40 41 43 46 48 49 52 55 57 57 58 58 59 59 61 61 63 65
22 23 22 23 21 20 22 24 27 31 34 37 37 36 33 31 30 31 32 34 36 38 39 41 43 45 47 49 52 55 56 57 58 60 63 63 60 58 59 60 61 62 63
18 22 23 21 19 21 23 26 30 35 37 37 33 30 29 30 31 33 36 38 39 41 43 46 48 50 52 52 54 56 59 59 60 62 64 66 67 67 65 65 65 65 65
17 22 23 22 21 22 27 31 34 35 33 30 29 30 31 33 35 37 39 41 44 46 47 47 47 49 52 54 56 58 60 61 61 62 65 69 73 76 76 74 74 73 70
19 23 24 26 27 28 31 34 35 31 30 30 32 33 35 37 38 40 42 43 43 43 45 47 51 55 57 59 60 61 63 67 69 72 75 78 80 82 85 82 80 81 80
22 25 26 29 32 33 32 32 31 31 32 35 37 37 39 40 42 42 41 41 45 49 52 55 59 62 64 66 68 70 73 75 77 79 81 83 86 88 91 93 91 90 89
25 27 30 32 34 34 33 31 32 35 37 39 40 41 42 41 40 39 44 47 51 55 59 62 66 69 70 72 74 76 79 80 82 84 87 90 93 96 98 100 100 100 98
28 30 31 32 35 35 32 34 36 39 40 42 43 42 40 39 42 46 50 54 58 62 66 68 70 71 74 75 77 78 80 83 87 92 95 97 98 98 99 101 101 103 100
29 27 28 32 33 33 36 38 40 41 42 41 40 40 42 46 50 55 59 64 67 70 72 72 74 75 77 80 82 85 89 95 98 102 104 104 102 101 101 97 91 88 94
26 26 29 32 34 35 38 39 39 39 40 40 41 44 48 52 55 60 64 68 71 73 75 76 78 81 84 88 91 95 98 100 103 105 103 102 100 98 93 83 74 72 75
24 28 31 32 35 37 36 36 38 38 39 41 44 47 51 55 59 64 67 71 74 76 78 81 83 86 89 93 95 100 104 105 104 100 98 95 89 80 70 67 65 65 67
28 31 31 33 36 37 35 36 36 38 40 44 49 53 57 61 65 68 71 72 75 77 79 82 86 89 94 100 102 104 104 101 96 89 84 78 73 68 66 65 63 65 66
29 31 34 35 34 35 35 36 39 44 47 51 57 59 63 65 68 69 73 75 77 79 83 87 92 97 101 103 102 99 93 89 83 79 75 72 70 68 68 69 70 72 73
32 34 34 34 34 35 38 42 47 52 56 60 61 63 65 69 71 73 74 78 81 84 89 94 98 102 101 97 92 86 81 79 78 76 75 75 75 75 74 75 78 81 82
33 33 33 34 37 41 45 50 54 57 59 61 63 66 69 71 73 76 79 82 85 90 95 99 100 99 90 84 81 78 77 77 76 76 77 79 81 82 83 84 84 88 90
32 33 35 39 44 47 51 53 55 57 60 63 65 67 71 74 76 79 82 86 91 96 99 99 94 85 78 77 77 79 80 81 83 85 86 88 90 92 93 94 95 96 96
34 37 40 45 48 51 53 54 57 61 63 65 68 71 74 76 80 83 88 92 96 97 95 89 80 76 75 79 83 87 90 91 92 93 93 93 92 93 94 93 93 92 88
38 42 45 49 51 53 55 58 61 63 66 69 72 74 76 80 83 88 93 95 95 93 86 78 74 76 81 87 91 92 92 90 86 83 79 75 76 77 78 78 78 75 72
43 46 48 50 53 55 58 61 64 67 70 72 74 76 79 83 88 92 94 93 90 83 74 72 76 83 88 92 92 88 82 76 72 69 64 67 67 65 62 62 61 57 52
46 48 50 53 56 59 63 65 68 70 71 73 76 79 83 88 92 93 91 88 81 73 71 75 82 89 92 88 81 75 74 69 60 58 58 58 60 58 54 52 50 46 41
49 51 54 58 61 63 66 68 69 70 72 75 79 83 88 91 92 90 85 78 72 72 75 79 86 92 90 79 73 72 67 60 57 53 51 52 52 50 47 44 42 40 36
53 56 59 62 64 66 66 67 68 71 74 78 82 87 90 90 89 84 76 72 72 74 79 83 88 90 79 73 70 67 58 58 58 52 50 49 47 45 43 41 41 39 36
58 61 63 65 65 64 65 68 70 72 76 81 86 88 88 88 82 76 72 71 74 78 82 87 90 83 71 66 63 57 54 56 53 47 43 46 44 41 41 42 40 35 28
62 63 63 62 62 64 66 68 70 75 80 84 87 89 87 80 74 72 73 74 76 80 84 88 88 75 67 63 59 54 53 52 46 42 40 45 44 41 41 38 36 30 23
64 62 61 61 63 65 66 70 74 79 83 87 89 88 80 74 71 71 73 74 77 82 87 89 82 72 66 63 60 57 54 50 45 43 41 43 41 36 36 35 32 23 10
59 59 60 60 61 64 69 74 79 83 86 89 86 80 75 72 70 71 70 73 77 80 85 82 72 68 68 65 60 54 53 49 47 43 40 41 36 32 30 28 20 8 5

GFSMW_500_spd_015.txt.gz
Wind_Speed
21 23 25 26 25 24 25 26 25 24 24 25 29 33 38 41 40 38 35 34 34 35 36 37 39 41 42 44 46 48 49 50 53 54 55 54 54 55 56 55 56 56 57
24 27 27 21 20 22 24 25 24 24 25 29 32 36 39 39 37 35 35 36 37 38 40 41 43 44 46 47 47 48 50 53 57 60 62 61 59 59 59 60 62 63 64
23 22 20 20 17 19 23 25 26 25 28 31 34 36 34 32 34 36 38 39 40 41 43 43 43 43 44 46 50 54 57 59 61 64 68 69 69 69 68 68 68 69 69
20 19 19 19 19 18 22 24 28 31 32 34 33 33 33 34 37 39 41 42 43 43 43 42 44 47 50 53 57 61 64 67 69 69 70 73 77 80 79 77 77 78 78
21 20 19 21 23 22 24 27 30 32 34 34 34 34 36 39 41 41 43 42 41 41 42 46 50 53 58 63 67 69 71 73 75 77 79 79 79 82 84 83 83 85 87
22 22 23 24 26 27 28 30 31 32 34 34 34 37 39 40 42 43 42 41 41 45 48 52 55 59 63 67 70 72 74 75 77 79 81 83 86 89 92 94 92 93 93
22 23 25 26 29 30 29 30 32 33 34 35 38 39 41 41 40 39 39 42 46 48 51 55 59 64 67 70 72 74 77 79 81 83 86 89 92 96 100 104 104 105 102
25 26 27 28 29 30 30 31 32 34 36 38 39 39 39 39 39 40 44 46 48 52 55 61 65 69 71 72 74 76 78 81 84 87 91 96 99 102 104 106 108 108 107
27 27 27 28 29 31 31 31 33 36 38 37 38 38 39 39 42 44 48 52 56 59 65 69 71 72 74 75 78 80 84 87 91 95 97 99 102 104 103 100 97 94 98
26 26 26 29 31 30 31 33 35 36 37 37 37 38 40 43 46 51 55 60 65 69 72 73 75 76 78 80 83 85 88 93 96 97 100 102 103 100 96 90 84 81 82
24 25 27 28 30 33 35 35 34 36 35 35 37 41 45 49 55 58 62 66 69 72 74 75 76 78 81 84 86 90 94 96 97 100 100 98 95 89 84 80 79 79 81
24 26 29 30 33 35 35 35 33 33 35 39 44 49 53 56 60 64 67 69 71 73 74 76 79 82 85 88 92 94 95 97 100 98 93 86 81 79 79 80 80 81 81
25 27 30 32 33 34 32 33 34 37 42 47 51 54 58 61 65 67 69 70 72 74 77 80 83 86 90 93 95 95 99 100 95 89 84 84 87 87 87 87 88 88 88
28 29 31 32 32 30 33 36 40 44 49 53 56 58 62 64 65 67 69 72 75 78 81 84 87 92 94 95 97 99 96 90 84 84 88 90 89 88 86 87 88 89 91
29 31 30 29 30 33 38 42 46 50 53 56 59 61 64 66 69 70 73 75 78 81 84 88 92 93 95 96 95 92 87 83 84 89 91 88 84 82 80 79 78 78 77
30 29 30 34 38 40 44 48 51 54 56 59 61 64 67 69 71 73 76 77 80 84 88 91 92 94 93 90 86 84 84 85 89 91 85 79 76 74 69 67 69 72 74
30 34 35 37 40 43 47 50 53 57 59 62 65 67 69 71 73 75 77 79 83 86 90 91 93 89 85 81 80 83 84 87 91 85 78 72 69 64 63 64 62 63 63
34 35 37 40 43 47 50 54 57 59 62 65 68 69 70 72 74 76 79 82 85 88 91 91 88 81 78 79 81 82 85 88 84 76 71 67 60 61 65 62 60 56 53
35 37 40 43 47 51 54 57 59 63 66 68 69 69 70 72 74 78 82 84 86 89 88 86 82 78 77 78 80 84 87 84 74 68 66 60 59 61 62 60 56 51 48
36 39 43 47 51 54 57 61 64 66 67 68 68 69 71 73 77 81 83 85 87 87 85 80 79 77 76 78 82 87 87 75 68 64 61 58 59 58 56 56 55 50 48
40 44 48 52 55 59 63 66 67 66 65 66 67 69 72 76 79 81 83 86 87 84 80 76 75 75 78 79 83 86 77 70 65 62 59 55 54 52 51 54 56 51 46
45 49 52 55 60 65 66 67 66 64 65 66 67 71 75 78 81 83 86 86 84 80 75 73 71 73 76 79 84 80 70 67 66 62 57 53 49 49 49 52 53 47 42
50 52 56 61 65 66 66 64 63 64 64 65 69 73 76 80 84 86 85 83 79 74 72 72 72 72 76 79 83 74 67 65 63 59 54 50 47 47 46 48 47 42 39
53 57 62 65 67 65 62 62 62 62 64 68 71 74 79 83 85 85 83 78 73 71 72 73 73 74 76 81 79 68 65 62 61 54 48 46 43 41 43 44 40 38 29
57 62 66 67 63 61 61 60 61 64 67 71 74 79 82 85 84 82 78 73 69 71 72 74 76 76 77 81 73 67 63 61 58 49 42 42 36 34 37 35 33 22 12
63 66 63 59 59 58 58 60 63 67 71 75 79 83 85 85 83 79 71 67 67 69 72 75 76 77 81 78 66 62 60 57 49 43 44 38 33 34 28 24 14 11 13

GFSMW_500_spd_018.txt.gz
Wind_Speed
25 24 25 25 27 29 31 31 25 26 27 26 26 28 31 33 37 40 40 39 37 37 38 39 40 41 41 43 43 43 43 45 48 50 52 55 57 58 61 62 64 65 66
24 24 25 27 30 33 32 26 25 25 25 26 27 32 34 37 39 38 37 37 37 39 40 41 42 43 43 43 43 45 47 51 55 59 62 63 62 64 67 68 68 69 69
23 24 26 29 31 29 26 22 22 24 24 26 29 32 35 36 35 35 36 37 39 40 41 42 43 42 42 44 47 49 51 54 58 63 68 70 70 71 70 70 72 72 74
23 23 25 26 26 26 26 26 27 26 28 30 31 32 33 34 35 36 38 40 40 42 42 42 41 43 46 48 50 53 57 61 65 68 69 72 76 79 78 78 79 79 80
26 26 26 25 26 26 25 26 27 29 31 32 34 34 34 34 37 39 39 40 41 42 41 42 45 48 50 53 56 61 64 70 72 74 75 77 78 80 84 85 87 88 90
29 29 28 27 27 26 26 28 29 31 32 33 35 35 35 37 38 39 39 40 41 42 44 47 49 52 55 59 62 66 70 73 75 76 79 81 84 86 88 90 90 92 92
27 28 28 28 26 27 29 30 30 31 33 34 34 34 36 38 39 39 40 41 43 45 47 51 54 57 60 65 69 73 74 76 78 80 82 85 88 91 94 97 97 98 97
27 28 29 28 28 29 29 30 31 33 33 33 34 36 36 37 38 39 40 42 44 49 53 57 61 64 67 70 73 75 76 78 80 83 86 89 92 95 98 101 106 107 106
28 28 29 29 28 30 31 31 31 31 33 34 35 35 35 35 36 39 43 47 52 55 59 63 65 68 70 73 75 77 79 82 85 88 92 94 97 100 103 104 104 107 110
26 28 28 29 30 30 29 29 31 32 32 33 33 34 35 37 41 46 50 53 57 60 63 66 68 70 73 76 78 80 83 86 90 94 96 98 101 100 100 100 99 96 98
28 28 28 28 28 28 29 31 31 30 31 32 33 35 39 44 48 52 55 58 62 65 67 69 71 73 76 79 82 85 88 91 94 97 99 100 100 100 99 97 94 94 97
29 27 26 27 28 29 30 30 30 31 32 34 37 41 46 50 53 56 60 63 65 68 70 72 74 77 79 82 85 88 92 94 97 99 100 100 100 96 93 91 92 92 90
26 25 25 27 29 30 30 31 31 33 36 40 44 48 51 55 58 61 64 66 69 71 73 75 77 80 82 85 88 91 93 96 98 99 99 97 94 89 87 89 88 85 83
26 26 27 29 30 30 30 31 33 38 43 46 49 52 56 60 63 65 67 70 72 73 74 77 79 81 84 86 89 92 95 97 98 96 94 91 87 86 88 85 80 78 76
27 27 28 30 29 29 32 36 39 43 46 49 53 57 60 63 66 68 70 72 73 74 77 78 80 83 85 88 92 95 97 97 95 93 89 83 85 86 84 78 74 72 69
28 29 30 29 30 33 36 39 43 46 49 53 57 61 64 67 69 71 71 71 73 76 76 79 82 83 87 91 94 97 97 94 90 85 79 82 85 83 75 70 69 69 66
30 29 29 31 33 37 39 42 46 49 53 58 62 65 69 70 71 70 70 72 73 75 78 81 84 87 90 93 94 94 90 85 82 80 80 81 83 75 69 66 66 63 63
29 29 32 34 36 39 42 45 49 53 58 62 66 70 71 70 69 69 71 72 74 77 80 84 87 90 94 94 91 86 81 78 79 81 82 83 75 69 67 65 61 58 56
31 31 35 37 39 42 45 49 53 58 62 67 71 71 68 67 68 70 71 73 76 80 84 88 91 92 91 88 83 80 76 76 77 80 84 76 69 67 65 63 58 54 51
30 35 38 38 41 45 49 53 58 62 67 70 70 66 65 67 68 70 72 75 80 84 89 91 93 92 88 81 76 75 75 76 77 80 78 68 67 65 61 59 57 53 50
35 35 37 40 45 49 54 58 62 67 71 68 64 65 65 66 68 71 74 79 84 88 91 92 92 88 82 75 72 73 77 79 78 80 69 65 63 59 54 53 55 52 47
33 37 41 45 49 54 59 62 67 69 64 62 62 63 64 66 69 73 79 85 90 92 92 90 87 81 73 71 71 74 77 79 82 72 61 58 55 48 46 49 46 43 43
38 42 46 50 54 58 61 66 65 60 59 59 60 61 65 69 74 79 85 91 93 93 91 87 79 72 69 68 72 74 75 79 76 62 56 50 48 47 45 40 40 37 27
43 46 50 54 57 61 64 58 56 56 57 58 61 64 69 75 81 87 92 93 93 90 84 77 70 67 67 70 73 74 76 77 63 55 50 51 47 41 36 36 32 19 12
46 50 54 57 60 56 53 53 53 55 58 61 65 70 75 82 87 90 92 92 89 84 76 70 68 68 69 72 74 77 79 67 54 49 48 42 38 36 33 27 15 12 16
49 53 56 54 51 50 50 51 54 58 61 66 71 77 82 87 90 92 91 88 80 71 68 69 71 71 73 74 77 80 73 52 48 45 40 39 35 28 20 10 14 20 24

GFSMW_500_spd_021.txt.gz
Wind_Speed
30 29 29 28 27 28 29 29 31 33 36 38 32 31 31 31 31 33 37 39 39 37 36 36 36 37 37 38 40 39 40 40 43 45 45 47 50 53 56 58 61 62 64
32 31 30 29 28 30 30 31 33 36 35 30 30 31 31 33 35 38 39 39 37 36 36 37 37 39 40 41 41 41 43 46 49 51 53 55 54 58 62 65 68 68 70
30 32 30 30 30 30 31 33 34 30 28 29 29 31 33 35 38 41 40 38 36 37 39 40 41 41 42 43 45 48 50 51 52 56 61 63 65 68 70 72 73 74 75
29 30 30 30 30 30 30 30 29 28 30 31 32 33 35 38 39 39 37 38 38 40 41 41 42 43 45 47 49 50 52 55 59 63 67 71 76 81 81 82 80 79 80
29 31 31 30 29 29 29 28 28 29 30 31 34 36 37 38 38 38 37 38 40 41 43 43 44 45 46 49 52 56 59 63 67 71 73 76 77 78 81 84 86 86 86
30 31 32 32 31 31 29 28 28 30 31 33 35 36 38 38 38 37 39 40 41 41 42 43 44 47 52 55 59 62 65 68 71 73 75 78 81 84 86 87 87 89 89
32 33 34 32 32 31 28 29 29 31 33 35 36 38 37 37 37 38 39 40 40 41 43 46 50 54 58 60 63 66 69 71 73 76 78 81 84 87 90 92 91 92 92
31 32 33 33 33 31 31 31 31 32 34 36 36 36 36 36 37 38 39 39 42 45 49 52 56 59 62 65 68 70 72 74 77 79 82 85 87 90 93 95 99 99 99
29 30 31 30 31 31 32 33 33 33 33 33 34 35 35 35 36 37 40 43 48 51 54 57 61 63 66 68 71 74 76 77 79 83 86 88 90 92 95 98 103 109 109
28 28 29 30 32 33 33 31 31 30 31 34 34 34 34 36 38 41 45 49 52 55 59 62 65 67 70 73 75 76 78 80 83 86 88 91 93 97 101 104 107 108 109
27 27 29 31 32 32 31 31 30 30 32 33 33 34 36 39 43 47 51 53 57 60 63 67 70 72 75 76 77 79 82 84 86 89 92 95 99 102 105 108 107 105 103
28 29 31 31 31 30 30 30 31 32 33 33 34 37 40 45 48 51 54 58 62 65 69 72 74 75 75 77 79 81 83 86 89 92 96 99 104 107 107 105 102 98 93
28 29 29 28 29 30 31 31 32 33 33 34 38 43 46 48 51 55 59 63 67 71 74 75 75 75 76 78 80 83 85 88 93 97 101 104 106 105 102 99 94 89 89
30 30 29 29 30 32 33 33 33 35 37 40 43 47 49 51 56 60 64 68 72 75 75 74 74 77 78 80 82 85 88 92 95 100 103 103 102 99 96 90 86 86 87
32 30 30 31 31 33 34 34 35 38 40 42 46 50 52 56 61 65 69 73 75 74 72 73 74 75 77 80 84 90 94 98 101 101 100 99 96 91 86 85 84 85 84
32 30 31 32 33 35 34 36 38 40 42 46 49 53 57 62 66 70 75 76 72 70 71 71 73 75 81 88 92 97 100 101 100 99 96 91 85 82 81 82 84 82 77
31 31 32 35 34 34 37 39 40 42 45 48 53 57 62 67 71 75 75 70 68 68 70 72 76 82 88 93 97 101 101 99 97 93 88 82 78 79 81 82 79 72 70
33 33 34 34 36 38 38 39 42 45 48 52 57 62 67 71 75 70 66 66 67 69 72 77 84 89 93 97 101 101 97 93 88 83 80 79 77 79 83 79 70 66 64
32 33 35 37 37 37 39 42 44 48 52 57 61 66 71 73 66 63 64 66 69 73 78 84 89 93 98 101 99 95 90 83 79 77 76 78 79 81 77 69 65 60 54
34 36 38 39 36 39 41 44 47 52 57 62 66 70 68 61 61 62 66 69 74 78 84 90 94 97 99 97 91 86 81 78 74 72 74 77 81 76 64 62 59 58 54
33 33 34 36 37 40 43 47 52 56 61 66 68 61 58 59 62 65 69 73 79 85 92 94 96 98 96 87 80 75 74 74 73 73 74 77 74 61 56 56 53 49 44
32 32 34 37 39 43 47 51 55 61 65 63 56 55 57 61 64 69 74 80 86 92 95 97 98 97 87 77 71 70 72 75 77 76 77 73 57 51 50 47 46 44 39
32 34 36 38 42 46 50 55 60 63 56 53 54 56 60 64 69 74 80 85 91 95 97 100 97 85 74 69 70 71 73 76 78 80 73 54 45 45 45 45 41 33 23
33 36 39 42 46 50 55 60 57 51 51 53 56 59 64 69 73 79 85 92 96 97 100 94 84 74 69 69 71 74 77 78 80 70 49 41 41 40 43 37 31 21 23
37 39 43 46 50 55 56 50 48 50 53 55 59 64 69 74 79 85 91 96 98 100 92 80 74 72 70 72 77 80 82 78 63 44 37 36 36 36 33 28 22 25 31
39 42 45 50 53 49 46 46 49 52 55 60 64 69 74 79 85 90 93 97 99 91 80 73 72 72 75 78 80 82 71 52 41 37 33 32 33 29 21 17 22 30 26

GFSMW_500_spd_024.txt.gz
Wind_Speed
26 27 28 29 30 28 26 25 27 28 30 32 35 37 38 33 33 32 32 33 36 40 42 42 40 39 38 37 38 39 39 40 42 43 44 46 47 49 50 54 56 58 61
30 28 28 27 27 28 26 27 29 31 33 35 35 37 31 32 31 33 35 38 40 42 42 41 38 38 40 41 41 41 41 43 46 48 48 49 50 53 57 61 66 68 70
27 27 28 29 28 27 28 29 29 32 35 37 31 31 32 34 34 36 38 40 41 41 41 41 40 41 43 43 44 45 46 47 51 54 59 62 64 66 65 66 68 70 71
26 26 27 28 28 28 28 29 30 33 34 31 30 31 34 36 36 38 41 41 41 41 40 41 42 42 43 43 44 47 50 54 57 60 64 69 74 76 75 71 71 72 74
28 26 27 26 26 27 28 29 31 32 32 32 33 35 37 38 39 40 41 39 39 40 41 41 40 40 43 46 50 53 57 61 64 67 69 70 71 73 76 76 78 78 79
27 27 26 26 26 28 29 30 32 33 33 34 36 36 38 39 39 40 41 40 40 40 39 40 42 45 48 52 55 59 62 65 68 70 72 75 77 79 80 80 80 81 83
27 27 26 27 27 30 31 33 33 34 35 36 37 37 39 39 39 39 39 40 40 39 40 43 47 51 54 57 61 63 66 69 71 74 75 77 79 82 84 87 87 88 87
27 26 26 27 29 32 32 33 34 34 35 37 37 39 39 38 38 38 39 39 39 41 45 49 52 56 59 62 65 68 71 73 75 76 77 79 81 84 87 90 95 95 94
26 25 26 27 29 31 32 31 32 35 36 37 37 38 37 38 38 39 38 40 42 46 50 53 56 59 62 65 69 71 73 74 76 77 79 82 84 87 91 94 99 105 106
24 25 25 25 27 30 32 33 33 34 35 36 35 36 37 37 38 39 41 43 47 51 54 57 60 64 67 70 72 74 75 76 77 80 82 84 88 92 97 102 105 109 112
27 27 25 26 29 31 31 31 33 34 34 34 35 37 37 38 39 41 45 49 51 54 57 61 65 69 72 73 74 74 75 77 78 81 85 89 96 100 104 107 108 107 107
28 28 27 28 31 32 31 33 33 33 34 34 36 37 37 39 42 45 48 51 55 59 62 67 71 73 73 72 73 73 75 77 81 87 93 97 102 105 108 108 106 104 100
26 28 28 30 32 32 32 32 32 34 35 36 38 38 40 43 46 48 51 55 59 64 68 72 73 72 71 71 71 73 76 83 89 94 99 104 107 108 106 102 99 95 92
25 27 29 32 33 33 32 33 33 35 37 38 39 41 43 46 49 51 56 60 65 69 73 72 70 68 68 70 74 79 84 90 96 101 103 106 106 102 97 93 89 88 86
26 29 32 33 33 33 33 33 35 37 38 39 41 43 45 49 51 56 60 65 70 74 71 67 66 67 70 76 82 86 91 96 99 101 105 104 97 90 87 85 83 82 83
31 33 32 33 34 34 35 36 37 38 39 41 42 44 47 52 56 60 65 70 73 68 64 64 67 70 76 82 87 93 98 102 103 106 102 93 87 82 79 78 78 79 82
33 32 33 33 34 35 36 36 37 39 40 41 43 47 51 56 60 65 70 71 64 62 63 66 71 77 84 89 94 99 102 105 105 98 90 82 78 77 75 75 75 77 79
31 32 34 35 35 35 36 37 39 41 42 43 46 51 55 59 64 69 66 62 61 63 67 73 79 85 90 95 99 104 107 104 95 85 80 76 73 73 76 77 78 78 64
30 32 33 33 34 36 38 39 42 40 43 46 50 54 58 63 67 61 59 60 63 68 74 79 84 89 94 100 106 107 105 95 83 77 73 73 74 76 79 81 78 63 52
29 29 31 33 36 39 38 36 39 42 46 50 54 58 63 65 58 58 60 64 69 74 78 82 88 92 99 104 109 105 95 86 79 72 72 74 79 81 80 72 57 48 47
28 30 31 33 34 35 34 38 42 45 49 52 57 63 61 57 58 60 65 69 74 77 82 87 91 98 104 108 103 92 85 80 76 75 76 79 80 72 59 46 45 45 45
27 28 30 32 33 35 38 41 45 47 51 56 60 55 55 57 60 64 69 73 78 82 86 91 96 102 108 103 90 81 77 77 81 81 80 71 58 47 41 41 41 39 28
28 30 31 33 35 37 41 43 46 50 56 55 51 53 56 59 64 67 72 77 83 87 92 96 102 105 104 89 80 77 78 81 82 75 60 49 43 40 39 38 34 23 24
28 29 32 35 37 40 42 45 50 54 49 49 51 54 57 62 66 71 77 82 87 91 96 100 105 105 91 80 77 80 81 75 63 50 43 40 38 39 36 28 22 27 32
31 33 35 36 38 40 44 50 50 46 48 50 53 57 62 65 70 76 82 87 92 97 100 103 105 96 80 76 82 80 67 55 46 41 39 36 34 30 23 21 27 30 24
32 33 34 36 39 45 48 45 44 46 49 52 56 61 65 70 74 80 84 90 94 97 101 100 92 79 77 83 74 62 52 46 43 40 35 30 27 19 17 23 22 20 19

GFSMW_500_spd_027.txt.gz
Wind_Speed
27 29 28 28 27 26 28 28 25 26 26 27 28 29 33 35 36 30 30 31 32 34 36 39 41 41 41 40 39 39 40 42 42 42 42 43 45 47 49 52 55 57 62
27 31 27 28 27 24 24 25 27 27 28 28 29 32 36 32 27 29 31 35 38 40 40 41 42 43 42 41 42 42 41 42 44 45 46 46 48 52 56 59 62 65 67
26 32 30 30 28 25 24 25 26 27 28 29 31 33 31 28 29 31 35 38 40 42 43 43 42 41 40 42 42 43 43 45 48 52 56 58 59 60 60 62 64 67 68
24 28 29 30 26 26 26 25 27 27 28 30 31 31 30 31 33 34 37 40 42 43 43 42 40 41 41 41 42 45 48 51 54 56 62 67 70 72 70 67 68 70 71
24 27 28 28 25 25 25 26 27 26 29 30 31 32 33 35 36 37 40 40 42 44 42 41 41 41 42 43 46 50 54 58 60 63 65 67 69 72 77 78 76 75 75
25 27 30 27 25 25 25 26 26 27 30 32 34 35 36 36 37 38 41 41 40 39 41 41 41 42 45 48 52 55 58 61 64 67 70 72 73 73 75 76 77 80 81
25 26 30 28 25 25 26 27 28 30 32 34 35 36 37 38 39 41 41 39 39 40 40 41 43 46 50 53 56 59 62 65 67 70 71 73 75 77 79 82 83 83 83
26 28 30 25 24 24 26 28 30 32 33 34 34 36 38 40 40 40 39 40 41 41 42 44 48 51 54 57 60 63 66 69 71 72 72 73 73 76 79 84 88 88 88
26 26 25 24 23 24 27 29 30 31 32 33 34 37 38 40 39 38 41 41 41 43 45 48 52 55 57 61 64 67 70 70 70 70 71 73 76 80 84 89 96 101 100
23 22 21 22 21 23 26 27 29 30 31 33 34 37 38 37 38 40 41 41 43 46 50 52 55 58 62 65 68 70 69 68 68 70 73 76 81 87 93 98 104 109 113
21 22 21 20 21 24 25 27 27 29 32 33 35 36 37 38 40 41 41 43 47 49 52 55 59 62 66 69 70 68 67 68 70 74 79 84 90 95 101 106 110 113 113
19 18 20 23 24 26 27 28 30 32 33 34 35 36 37 40 41 42 44 46 48 52 55 59 63 67 70 69 66 66 68 71 75 81 86 92 97 102 107 110 112 110 104
19 19 21 24 25 26 28 29 30 31 33 35 37 38 40 41 42 44 46 48 52 55 60 64 67 69 66 64 66 68 72 77 83 89 94 100 105 109 111 111 107 99 93
18 19 21 23 25 26 28 29 32 33 35 37 38 39 40 40 43 46 47 51 55 60 64 68 67 64 64 67 69 74 80 85 90 96 101 105 110 113 112 103 95 89 85
15 16 19 24 26 28 29 30 32 35 37 37 37 39 40 42 46 47 51 55 60 63 67 65 63 65 67 71 77 82 86 91 96 100 105 110 114 108 98 91 85 82 79
18 21 23 25 26 27 28 31 35 36 36 37 39 40 44 47 47 51 55 59 63 66 62 62 64 67 73 79 83 88 93 98 101 106 110 115 107 94 87 81 79 80 82
22 24 26 26 27 29 31 33 34 35 37 39 41 44 44 46 50 54 58 61 63 60 61 64 68 73 78 82 88 92 97 100 105 110 114 104 93 86 79 76 79 81 81
24 26 27 27 28 30 31 33 34 37 39 41 43 43 46 49 54 56 61 59 58 60 63 67 73 77 82 88 94 97 101 105 110 114 104 92 84 80 82 83 80 70 56
26 26 24 25 26 28 30 33 35 38 38 38 41 45 49 52 55 60 56 56 58 62 67 73 76 81 88 94 98 102 106 110 113 102 89 86 86 85 79 69 56 46 40
22 22 23 24 26 28 31 33 34 36 37 40 44 47 50 55 57 54 55 57 61 67 72 76 81 87 93 98 102 108 112 111 101 86 85 83 77 65 51 48 43 40 38
21 22 23 25 28 29 31 33 36 38 41 43 46 48 54 53 52 53 57 60 66 70 74 79 86 91 97 101 106 110 110 96 86 85 78 67 55 46 43 40 39 36 29
20 22 25 27 30 32 33 35 37 40 43 45 48 52 50 49 52 56 61 65 68 72 78 84 90 95 99 103 107 107 91 83 84 73 63 51 44 40 37 36 32 24 27
24 25 28 30 32 33 35 37 40 42 43 47 49 46 48 51 55 60 64 68 73 79 85 90 93 97 101 105 107 90 78 80 69 61 50 45 39 35 32 29 22 27 24
26 28 29 31 33 35 36 38 39 41 45 45 44 46 50 55 59 64 67 73 79 84 89 93 96 100 104 106 92 78 78 65 57 48 45 37 32 30 24 23 28 24 24
26 27 29 31 32 34 35 37 41 43 43 43 45 49 54 57 61 66 71 77 84 89 93 97 100 103 103 90 78 77 64 57 48 45 35 29 26 20 23 28 23 22 22
27 27 28 29 31 33 37 41 41 41 42 44 49 53 57 60 64 70 76 83 88 92 95 98 101 101 87 77 75 63 54 47 44 33 27 23 17 21 22 18 20 19 19

GFSMW_500_spd_030.txt.gz
Wind_Speed
32 29 32 31 30 31 30 26 25 27 25 24 25 25 25 27 29 32 31 26 27 30 33 37 38 39 41 42 45 46 45 45 42 40 42 43 46 46 48 51 54 56 59
33 30 30 33 31 30 27 24 23 29 30 28 27 26 26 28 31 32 29 29 32 35 37 39 41 42 43 45 45 42 42 43 44 45 45 44 47 51 54 57 60 63 65
33 30 30 34 31 28 26 24 23 25 28 28 28 27 27 29 31 29 30 33 35 38 40 41 43 45 44 41 40 41 43 44 47 49 51 54 55 57 57 60 63 65 66
33 28 30 33 34 31 27 26 25 26 27 28 29 28 28 30 31 31 33 36 38 39 43 44 44 42 41 41 43 44 46 48 50 54 59 63 65 66 63 63 65 66 67
35 30 31 32 32 30 27 26 27 29 30 29 29 29 30 32 34 34 36 39 40 42 45 44 42 41 42 43 45 47 50 53 57 60 62 64 68 72 76 75 73 69 67
33 30 29 28 26 28 26 25 26 29 31 31 30 31 32 33 35 37 38 41 43 44 44 41 42 43 45 46 48 51 54 58 61 63 67 69 71 72 74 75 76 78 74
31 30 29 30 27 28 27 26 27 28 29 31 32 33 33 35 37 38 40 42 42 42 42 43 44 45 46 49 52 55 59 61 65 68 70 72 73 74 74 75 76 78 78
31 29 30 31 28 28 27 26 27 28 30 32 34 34 35 36 38 39 41 42 41 41 44 45 45 47 49 53 56 59 61 65 69 71 71 70 70 71 74 79 83 83 83
29 29 31 29 26 26 27 27 27 28 30 32 33 34 35 36 38 40 42 42 42 43 45 45 47 50 53 55 59 62 66 70 71 68 67 69 71 74 80 85 90 95 95
28 28 27 27 26 25 25 26 26 28 29 31 33 34 35 37 39 41 41 42 44 45 45 48 51 54 56 58 62 67 70 69 67 67 69 73 78 83 87 92 97 103 109
26 26 26 25 24 24 24 24 25 27 28 30 32 34 37 38 39 40 42 44 45 46 47 51 54 55 58 63 67 70 67 66 67 70 75 79 84 88 94 99 104 109 115
26 26 24 23 22 21 22 23 25 27 29 31 34 36 37 37 39 41 43 45 45 47 52 54 54 58 62 67 67 64 64 67 70 76 80 84 90 95 101 107 111 116 119
26 23 20 19 19 21 23 23 25 28 29 31 33 35 37 39 40 42 44 46 48 51 52 54 58 62 66 65 63 64 67 71 77 81 86 93 99 104 109 113 118 122 121
20 19 19 19 20 21 21 22 25 28 30 32 34 37 39 40 41 43 46 48 51 51 54 58 62 66 63 62 63 67 72 77 81 88 95 100 106 110 114 120 123 116 103
18 18 18 18 18 19 22 24 26 29 31 33 36 38 39 40 42 44 47 50 50 54 58 61 64 61 61 64 68 72 77 82 88 95 100 105 110 114 121 120 106 97 95
15 16 17 17 19 21 23 25 28 30 32 35 37 38 39 41 42 46 48 50 53 58 62 63 60 61 64 68 73 78 81 89 96 100 105 110 114 119 112 97 93 91 84
16 16 18 19 21 24 26 28 29 31 33 34 36 38 41 43 46 46 48 54 56 61 60 59 60 64 68 74 78 83 89 94 101 106 110 114 116 104 92 88 81 68 55
21 20 20 21 24 25 25 27 29 31 32 34 37 39 40 42 44 48 52 54 60 58 57 60 64 69 74 78 83 88 94 100 105 109 114 112 97 88 83 75 61 48 45
19 21 22 23 23 23 25 27 28 30 33 36 38 41 41 44 47 51 54 58 55 56 59 64 69 73 78 84 89 96 100 104 107 112 106 91 86 77 69 57 47 42 41
20 20 21 20 22 23 24 27 30 32 34 37 40 41 43 47 51 53 56 53 54 58 62 68 73 77 84 91 96 100 105 106 110 100 84 80 73 63 54 48 43 38 29
17 17 19 21 22 24 26 29 31 34 36 38 40 43 47 49 53 53 52 53 57 62 67 72 77 84 90 94 99 103 107 109 99 82 75 67 59 52 46 42 36 27 30
17 17 19 21 24 27 29 31 33 35 37 40 43 45 48 52 50 49 53 57 61 66 71 76 82 87 91 96 100 105 106 96 82 75 64 55 51 42 37 32 25 30 24
18 20 21 23 26 29 31 32 35 37 39 41 43 47 49 47 48 52 56 61 66 69 74 79 84 88 93 98 103 105 92 79 74 62 52 50 40 33 30 24 27 20 19
17 20 23 26 29 31 33 34 35 37 39 42 46 46 45 48 51 55 59 64 68 74 79 84 87 92 96 102 106 91 75 71 60 49 44 37 32 26 25 26 22 20 21
18 22 25 27 29 30 31 33 36 37 42 44 44 44 47 50 53 58 62 67 74 81 85 89 93 96 100 102 90 74 69 60 47 42 36 31 23 26 26 22 21 21 20
22 24 26 26 27 30 32 34 37 40 42 43 43 45 48 52 56 60 66 74 80 85 89 91 95 99 100 86 73 67 60 48 42 35 28 22 26 22 19 20 22 21 23

GFSMW_500_spd_033.txt.gz
Wind_Speed
38 40 34 32 31 30 31 29 28 24 24 29 28 26 25 25 26 27 28 30 31 28 29 31 34 37 39 41 42 44 46 46 43 39 39 42 43 45 46 49 52 55 58
38 40 37 31 31 32 32 29 27 26 27 30 32 28 26 27 27 27 29 30 30 29 30 33 37 39 42 44 45 46 45 42 40 41 41 42 45 48 51 54 57 60 61
39 38 38 33 34 32 33 29 27 26 24 25 30 31 30 29 28 29 30 31 31 30 32 35 38 41 45 48 47 44 41 43 44 45 47 48 48 50 53 57 60 63 65
41 36 38 33 33 32 32 30 28 25 25 25 26 28 28 30 31 31 32 33 33 34 36 38 41 44 47 48 44 43 44 45 47 50 53 55 59 60 58 58 61 64 66
40 34 36 33 34 33 32 31 30 28 28 26 26 27 30 32 33 34 35 35 36 38 40 41 44 46 47 46 45 46 48 49 51 54 57 61 63 66 68 64 65 64 62
39 37 37 35 36 32 30 31 30 29 27 28 29 30 33 34 35 36 37 37 40 41 42 43 45 46 45 46 47 48 50 52 56 59 62 64 66 69 71 71 71 72 69
40 38 35 32 33 30 28 30 30 28 27 28 29 30 32 33 36 38 39 41 41 42 43 45 46 46 46 48 49 50 54 58 61 64 65 68 70 72 71 72 72 73 73
43 37 35 32 34 32 30 30 29 28 27 28 28 29 32 34 37 39 40 41 42 44 45 46 46 47 48 49 51 54 57 62 62 65 68 71 70 69 71 74 77 77 78
39 37 36 33 34 35 32 31 29 28 27 29 29 31 34 35 37 38 39 41 44 46 46 46 48 48 49 51 55 58 61 62 65 68 70 67 68 69 74 79 85 90 90
37 36 38 36 34 34 32 29 28 27 28 30 30 32 34 35 35 37 40 43 45 45 47 47 48 49 51 55 58 59 61 65 69 68 66 67 70 75 80 85 90 96 102
36 36 35 35 33 32 30 29 28 27 28 29 29 32 33 34 36 39 41 42 45 46 47 48 49 52 55 57 58 61 64 69 67 66 68 71 76 81 85 91 97 103 112
37 35 33 32 30 29 29 27 27 26 27 29 29 30 32 35 36 38 41 44 46 46 47 49 51 55 55 58 61 65 69 66 66 68 72 77 82 86 92 98 106 112 118
36 33 31 30 28 27 25 24 25 26 26 28 29 31 33 35 37 40 43 44 45 47 48 51 54 54 58 61 66 66 65 66 70 74 78 82 88 93 101 107 113 118 123
29 28 28 25 25 24 24 23 23 25 27 29 30 32 34 37 39 41 43 45 46 49 52 54 54 59 61 66 65 65 67 70 75 79 84 90 96 103 108 114 120 124 114
27 26 25 23 21 21 21 22 23 25 27 28 31 33 36 38 40 42 43 46 49 52 52 54 58 61 66 63 64 67 70 75 79 85 91 97 102 108 114 120 118 104 93
26 23 20 18 19 20 21 21 22 25 28 30 32 34 37 39 40 41 45 47 48 50 53 57 60 66 63 64 67 70 74 80 85 91 96 101 107 114 119 110 95 87 78
23 22 21 18 18 19 20 23 25 28 30 31 33 36 37 38 40 43 46 47 49 53 57 60 64 61 63 66 70 74 80 85 92 97 102 107 113 116 102 88 80 68 58
20 18 18 18 19 20 22 24 27 29 29 31 34 35 37 40 42 45 47 49 53 56 60 62 60 62 65 69 74 79 85 92 97 102 107 113 110 94 86 77 63 53 50
22 20 20 20 21 22 23 24 25 27 29 31 33 36 38 42 44 45 48 52 55 60 59 58 61 64 68 73 79 87 92 96 100 105 111 103 90 81 74 63 51 43 39
18 18 19 20 22 22 22 24 26 27 29 32 35 38 40 41 44 48 50 54 58 55 56 60 63 67 72 79 85 91 95 98 102 108 95 83 77 68 59 51 39 33 29
18 19 20 20 20 22 24 25 26 29 31 35 37 38 40 43 46 49 53 54 53 55 57 60 65 73 79 83 93 96 99 103 105 91 79 72 62 53 47 39 31 29 30
18 17 18 19 20 21 24 26 29 31 34 35 37 40 42 44 47 52 51 51 53 55 58 63 70 77 83 90 95 98 102 103 89 76 70 59 47 43 39 30 30 30 26
15 16 17 19 21 22 25 28 30 31 34 36 38 41 43 47 49 49 49 51 54 57 62 67 73 80 85 92 99 100 101 85 74 69 60 46 41 37 29 34 28 25 23
15 15 17 19 22 25 27 29 31 32 34 36 39 41 45 47 47 48 50 53 56 61 67 72 79 83 90 98 100 101 84 73 68 60 45 40 35 29 34 28 28 26 25
12 14 18 21 24 26 27 29 30 33 35 38 42 43 46 46 47 49 52 56 62 67 72 79 84 88 96 100 102 85 71 68 60 44 38 34 28 33 29 30 26 28 29
14 17 20 22 23 25 27 29 32 34 38 40 43 44 44 45 47 50 55 61 67 73 79 84 88 94 99 100 83 69 66 60 45 38 31 27 29 25 27 26 32 30 27

GFSMW_500_spd_036.txt.gz
Wind_Speed
38 40 40 40 41 38 33 30 33 29 27 26 25 27 29 28 26 25 26 27 29 31 32 32 31 31 33 36 37 38 41 42 43 42 41 40 40 41 43 45 46 49 52
40 41 39 34 42 39 36 32 33 31 28 28 27 27 31 31 28 28 28 29 30 31 32 31 32 33 35 37 39 42 44 46 46 43 41 41 44 46 47 50 51 55 58
43 45 41 35 37 41 36 35 34 32 28 28 26 26 30 33 32 31 30 30 31 32 32 34 36 36 39 41 43 44 46 48 46 43 45 45 45 46 47 51 56 59 60
45 47 42 36 33 41 39 37 34 34 30 26 24 26 29 31 32 34 33 32 33 34 37 38 39 40 42 44 45 47 47 46 46 48 49 50 52 54 53 53 55 58 61
48 49 42 38 34 39 40 38 35 34 31 26 24 27 27 28 29 31 32 34 35 37 39 41 42 43 43 45 48 48 46 47 48 49 52 55 58 62 63 60 59 59 62
50 48 43 40 37 37 37 36 36 34 31 28 28 28 28 28 30 32 33 36 37 38 41 43 43 44 45 47 48 48 49 49 51 53 57 60 63 65 64 62 63 63 64
49 48 43 39 36 36 36 35 35 33 31 30 29 28 28 29 31 32 35 37 38 41 42 43 43 45 47 48 49 50 51 52 54 57 61 64 65 66 68 68 68 68 68
47 45 41 40 38 38 37 36 33 33 31 29 28 29 29 29 32 34 36 38 40 41 41 42 45 46 47 49 50 51 53 55 59 62 63 64 66 70 71 71 72 71 70
44 44 41 39 39 39 37 35 34 31 28 29 29 30 29 31 34 35 36 38 39 40 41 44 45 48 49 50 51 53 56 59 62 63 64 68 71 69 71 73 76 79 80
40 39 41 40 41 39 38 36 35 30 29 30 30 31 31 32 34 34 34 36 38 40 43 45 47 49 50 51 53 56 58 59 63 65 69 70 70 71 74 77 82 87 91
33 35 39 40 40 40 38 37 35 31 30 31 31 31 31 31 31 32 34 37 39 42 45 47 48 49 51 54 56 58 59 62 65 70 69 70 72 75 79 83 88 92 99
30 34 39 41 41 38 37 37 33 31 31 31 31 31 30 29 30 33 35 38 41 44 46 47 49 51 53 56 56 58 62 66 70 69 69 72 75 79 84 89 95 100 105
29 35 38 39 38 35 36 34 32 32 30 30 30 29 29 30 32 34 37 39 42 45 46 47 50 52 53 54 58 62 66 70 68 69 72 75 79 85 90 94 99 106 111
35 34 37 35 33 35 34 34 33 30 28 29 28 29 30 31 34 36 38 40 43 45 46 49 50 51 54 58 62 66 69 66 68 70 73 78 86 92 97 101 107 113 115
32 31 31 32 32 32 31 30 28 27 28 28 28 29 31 32 34 37 39 41 44 46 48 51 52 54 58 62 66 67 65 67 69 73 78 87 92 97 104 110 114 112 102
30 28 28 28 28 28 28 28 28 27 26 25 26 29 32 33 35 38 40 42 45 47 50 51 54 59 62 66 65 64 66 69 74 78 83 92 100 106 110 113 107 94 85
29 27 27 26 26 26 27 25 23 22 22 25 28 31 33 34 37 38 41 44 46 48 51 54 58 61 65 62 63 64 68 72 78 84 91 99 105 111 112 103 87 75 66
22 21 23 24 23 21 19 19 20 22 24 27 29 31 33 35 37 40 43 46 47 50 53 56 61 62 60 61 63 67 71 78 85 92 100 105 109 109 100 86 72 55 50
22 22 21 19 17 16 17 19 22 24 26 27 30 32 33 36 38 42 43 46 49 52 55 60 58 58 60 62 66 71 77 85 90 98 105 110 110 97 84 71 53 46 41
20 18 16 17 17 19 21 23 24 24 26 28 30 32 34 38 41 42 45 48 50 54 57 56 57 58 61 66 72 77 84 89 95 103 109 108 94 79 69 54 44 36 33
15 16 17 19 22 23 22 22 23 24 26 28 31 34 37 38 41 43 46 49 53 55 54 54 58 61 66 71 77 83 89 94 102 108 105 89 75 67 52 44 36 35 37
14 16 19 20 20 20 20 21 22 25 28 31 33 35 37 40 42 45 48 51 51 51 53 55 59 65 71 77 82 88 93 101 107 102 84 73 64 50 43 36 34 33 30
15 17 17 17 17 17 20 22 25 28 30 31 34 35 38 40 43 47 49 50 50 52 54 58 63 69 74 80 86 91 99 104 99 81 71 62 48 41 36 33 32 30 31
14 15 15 16 17 19 22 24 26 29 30 32 34 36 38 42 44 48 47 48 50 53 58 62 67 73 79 84 90 97 103 97 80 67 60 45 39 34 33 32 31 32 33
12 12 14 15 18 21 23 25 27 29 31 33 35 38 41 42 45 45 47 49 53 57 62 66 72 78 83 88 96 102 96 81 68 58 44 36 31 33 32 35 35 34 30
11 12 14 17 20 22 23 25 27 30 32 35 38 39 42 44 44 46 49 53 57 62 67 73 78 83 88 95 99 91 77 67 57 45 32 29 32 30 31 30 30 33 32

GFSMW_500_spd_039.txt.gz
Wind_Speed
42 39 39 42 40 33 39 42 36 34 34 37 33 30 29 31 31 32 29 27 27 28 29 31 32 33 33 32 33 34 37 37 39 41 43 43 45 44 44 45 46 49 50
46 43 41 43 44 36 31 41 38 36 36 35 34 30 31 30 31 31 29 31 30 29 31 32 34 34 34 35 36 39 39 40 41 42 43 44 45 45 46 48 50 51 53
47 43 42 43 45 38 33 38 40 38 36 35 35 30 32 32 30 31 34 34 32 33 33 34 36 36 37 38 41 42 43 43 43 45 47 45 44 46 46 49 53 55 58
49 47 43 43 46 39 36 37 41 39 36 34 34 31 31 32 32 30 33 37 37 36 36 37 37 38 40 43 44 44 44 45 48 48 48 49 51 50 49 48 51 55 59
51 49 45 43 45 40 38 37 38 41 37 35 34 31 32 31 30 29 32 36 37 37 37 37 39 41 44 45 45 45 46 48 49 50 51 52 54 56 57 56 56 56 57
54 52 49 46 45 40 42 40 35 39 38 35 33 33 32 31 30 31 32 34 35 36 36 38 41 44 45 45 45 47 49 50 51 53 53 55 56 58 60 61 61 59 59
56 55 51 49 46 40 41 41 35 36 36 34 35 35 35 32 30 32 34 36 36 36 37 39 44 44 43 45 47 49 51 52 53 55 56 58 60 60 61 63 63 65 66
50 53 51 50 46 41 40 41 37 37 36 35 34 36 35 32 31 32 32 34 35 36 37 41 42 42 44 47 49 51 53 54 56 57 58 60 60 62 64 67 68 68 68
51 49 50 48 43 41 40 42 39 38 37 34 34 35 33 31 31 32 33 33 35 37 39 39 39 42 46 49 51 53 55 56 57 59 59 60 63 66 69 70 71 74 75
52 49 45 44 41 40 42 44 41 40 37 34 32 31 31 31 31 32 33 34 34 35 36 37 41 44 48 51 53 54 55 57 58 58 60 64 67 70 69 71 73 75 78
51 48 44 41 39 39 42 44 40 40 37 34 31 31 32 33 32 32 33 33 33 34 36 40 43 47 49 52 53 55 56 56 58 62 65 69 70 69 71 73 75 79 85
47 44 41 38 40 40 43 43 39 40 38 33 33 33 32 32 33 34 33 32 33 35 39 43 46 49 51 52 54 55 56 58 63 65 69 69 69 71 72 75 80 89 94
41 39 37 36 40 44 43 41 39 40 38 34 34 33 33 33 34 32 32 32 34 38 42 45 48 50 52 54 55 56 59 63 66 70 69 69 70 72 76 83 87 93 102
38 34 37 40 43 44 42 39 37 38 36 34 33 33 34 34 31 31 32 34 37 40 44 46 49 51 53 55 56 59 62 65 68 67 69 70 74 77 83 88 94 103 110
34 36 38 39 40 39 36 35 36 36 34 33 32 33 33 30 30 31 34 37 39 43 45 48 50 52 54 56 59 61 65 66 65 67 69 73 77 83 89 96 104 111 114
36 35 34 33 32 30 33 34 33 33 32 31 32 29 28 29 30 34 36 38 41 43 46 49 51 53 56 58 61 65 64 64 66 68 73 78 84 90 95 103 112 114 104
30 29 28 29 30 31 30 28 29 30 30 28 26 26 28 31 33 35 37 39 42 45 47 50 52 55 57 60 63 63 63 65 68 73 78 83 89 95 102 109 109 94 80
28 25 24 25 26 24 24 24 23 22 23 24 26 28 30 32 33 36 38 41 43 47 48 51 54 56 59 61 61 62 64 68 73 78 84 89 95 102 109 108 92 75 64
26 26 27 26 24 22 19 17 19 21 23 24 26 28 30 32 35 37 40 43 45 47 50 52 55 59 59 59 61 63 67 72 77 83 89 95 100 106 105 91 74 59 46
25 23 23 21 17 16 16 17 19 20 22 23 26 28 31 33 36 39 42 43 46 48 50 55 57 57 58 60 63 67 71 76 82 89 95 101 105 100 85 73 58 42 37
17 15 15 16 17 16 15 17 19 20 22 24 27 29 32 35 38 39 42 43 46 49 53 54 55 56 58 62 67 72 77 82 87 93 100 103 95 80 69 54 41 34 33
17 14 13 11 11 14 16 18 18 20 22 25 28 31 34 36 38 40 42 45 49 50 52 52 55 58 62 67 71 76 82 87 92 98 100 92 75 63 51 40 33 35 33
10 10 10 11 13 14 15 16 18 21 24 27 29 31 34 36 39 41 45 46 48 49 51 53 56 61 65 70 75 80 86 91 96 96 88 72 59 47 38 34 36 34 35
9 9 9 11 12 14 14 16 19 22 24 27 29 32 35 38 40 43 44 47 48 49 52 55 59 63 69 74 79 84 88 94 96 86 69 56 44 36 35 36 36 34 32
8 7 9 9 10 12 15 18 20 23 26 29 32 34 37 39 40 43 45 47 48 51 54 58 62 68 73 79 85 89 96 100 92 66 53 40 34 35 35 35 36 36 36
6 4 6 9 13 15 18 21 23 26 29 32 35 35 36 38 41 44 46 47 50 53 58 63 69 74 79 84 89 95 98 87 63 50 35 31 31 31 33 35 37 39 39

GFSMW_500_spd_042.txt.gz
Wind_Speed
47 46 45 39 39 41 42 38 43 43 42 40 36 34 34 36 36 37 35 35 36 35 33 32 31 32 33 34 35 36 37 36 37 39 41 43 44 44 47 48 47 48 48
52 52 50 45 40 40 44 40 38 45 45 42 38 36 35 37 36 36 33 34 35 37 35 34 33 34 35 37 37 38 39 40 40 42 45 46 45 48 49 50 50 51 53
52 53 54 53 46 44 43 45 40 41 47 46 40 37 37 36 36 36 34 33 36 39 37 37 36 36 38 39 39 41 42 43 44 47 47 45 47 49 49 50 52 55 56
54 55 55 54 51 44 45 47 41 41 43 44 41 39 37 36 36 36 37 36 36 39 40 40 40 40 41 41 42 43 45 45 48 48 47 49 51 51 51 49 52 55 57
58 56 56 54 53 48 44 46 41 42 41 41 43 40 37 36 36 35 34 35 37 37 39 41 41 42 42 43 44 44 46 50 50 48 50 51 53 55 57 56 54 56 57
60 59 56 57 55 52 47 46 39 41 43 39 43 41 37 36 36 35 33 35 36 36 38 39 40 42 43 45 45 45 48 50 49 50 52 54 56 57 59 60 60 59 57
61 60 56 57 57 53 49 45 39 42 42 39 40 41 38 37 38 36 35 35 37 38 39 41 41 43 44 45 43 46 48 49 51 53 55 57 59 59 60 62 63 64 66
61 59 58 55 58 54 50 44 40 41 41 39 38 39 38 38 38 38 37 37 38 37 41 41 41 42 43 43 43 46 49 51 53 56 58 59 60 61 61 63 68 68 68
54 58 56 54 58 56 51 45 41 41 41 39 38 38 37 37 37 38 38 36 37 38 40 41 41 41 41 41 44 48 50 53 56 58 59 60 61 61 65 68 69 71 72
50 51 53 53 55 57 52 45 44 44 42 40 40 39 37 36 37 37 37 36 36 38 39 39 39 39 40 43 47 50 53 56 57 58 60 61 62 66 68 70 71 72 73
44 47 51 53 52 56 50 44 44 45 44 40 39 38 36 36 36 36 37 37 37 38 39 38 38 39 42 46 49 53 55 57 58 60 60 63 66 68 71 71 71 72 74
39 49 50 51 48 50 46 43 44 45 43 40 39 37 37 36 36 36 37 38 38 39 38 37 39 42 45 48 52 55 56 57 59 60 63 66 69 70 71 71 72 75 80
47 47 51 48 44 45 43 43 44 44 43 39 38 37 37 37 38 38 38 38 39 38 37 39 42 45 48 51 54 55 56 59 60 63 65 69 69 70 71 73 77 81 85
52 47 49 43 40 42 43 44 44 43 40 38 38 37 38 38 38 38 39 39 38 37 38 42 45 48 51 52 54 56 58 60 62 65 68 68 70 71 74 78 83 87 92
44 47 42 39 38 40 42 43 41 39 38 39 38 36 36 36 37 37 38 38 37 38 41 44 47 50 51 53 56 57 60 61 65 67 68 69 71 75 79 84 89 95 99
39 40 37 37 38 39 42 41 36 35 37 37 35 34 33 35 34 36 36 36 38 40 43 47 49 49 52 56 57 59 61 64 66 67 68 71 74 79 84 89 95 100 106
29 33 36 36 36 35 34 32 32 33 34 33 32 32 32 32 33 33 35 36 39 43 46 46 48 52 54 56 57 60 63 64 65 68 71 75 79 84 90 95 100 105 105
27 28 28 28 29 28 28 29 29 29 29 29 29 29 29 30 31 33 36 39 41 42 44 48 51 53 55 56 60 61 63 64 67 70 75 79 85 91 96 99 104 104 90
23 24 23 22 22 22 22 23 23 22 22 24 26 27 27 29 32 33 35 38 40 44 48 50 52 53 56 59 61 61 63 66 68 73 79 85 90 96 101 105 103 83 63
21 20 20 21 21 20 20 20 19 20 22 23 23 25 26 27 30 32 35 39 43 46 48 49 51 55 57 59 60 62 65 67 72 78 84 90 95 100 106 99 76 56 44
22 22 23 22 22 21 19 19 19 20 20 18 19 22 25 28 31 35 38 42 43 45 48 51 53 56 57 58 60 63 67 73 78 84 89 96 101 104 90 68 55 41 38
16 19 20 19 18 18 14 10 9 11 15 18 21 24 27 30 34 36 38 40 44 47 49 51 55 56 57 58 62 67 73 78 84 89 95 100 100 79 61 50 39 39 39
12 5 4 2 5 6 6 6 10 14 17 20 23 26 28 31 34 37 40 43 45 47 50 53 53 54 56 61 66 72 77 83 88 94 101 93 69 56 44 37 38 38 39
7 7 5 5 6 6 7 10 13 15 17 19 23 26 30 33 36 40 41 43 46 49 51 51 52 55 60 65 70 76 82 87 93 98 82 63 52 37 36 37 38 40 42
4 5 7 7 5 5 7 10 13 16 19 23 26 29 33 36 37 38 42 45 47 48 49 51 55 60 64 70 74 80 87 93 94 75 59 45 34 34 35 38 41 43 43
5 5 5 4 4 7 11 13 17 21 24 27 30 32 33 34 38 41 43 45 46 47 50 55 59 65 71 74 80 88 95 90 71 56 37 30 31 33 36 39 39 37 35

GFSMW_500_spd_045.txt.gz
Wind_Speed
40 39 38 40 43 42 40 39 41 42 44 45 45 44 41 38 33 36 39 37 36 37 38 40 39 40 38 38 37 37 37 38 39 40 40 39 41 41 43 46 47 47 50
45 46 45 42 44 46 44 43 42 43 44 43 46 48 47 39 37 38 38 38 36 37 37 40 41 40 41 40 39 39 39 40 41 41 43 44 43 45 47 49 50 51 51
55 53 54 51 47 48 48 45 44 43 44 44 44 49 47 41 43 40 38 39 38 39 37 36 38 40 42 43 42 42 42 42 43 44 46 47 47 47 49 50 52 53 55
57 56 57 57 55 50 51 50 48 47 45 46 46 44 46 46 43 41 40 40 39 40 40 37 39 41 44 45 45 45 46 45 45 46 49 49 51 52 51 52 52 54 56
57 57 57 58 58 56 54 55 53 51 50 45 45 45 43 42 42 40 41 40 42 40 38 39 41 41 44 45 46 46 47 47 48 49 49 49 51 53 55 54 55 58 59
58 59 60 58 60 59 56 55 55 51 50 47 45 47 43 38 39 40 40 41 40 40 38 38 40 41 43 44 45 45 47 48 49 50 50 50 52 55 57 58 58 58 57
51 59 61 62 60 60 57 54 54 52 50 47 45 47 42 40 39 41 42 39 39 39 39 38 40 42 44 45 46 47 48 48 49 50 49 50 54 56 59 61 63 63 61
51 51 52 59 62 60 57 54 55 52 51 45 44 46 43 41 39 41 41 40 39 40 41 40 42 43 44 45 47 48 48 48 48 49 51 54 56 59 61 63 65 65 65
57 56 53 47 57 58 58 54 56 53 50 45 44 45 44 42 40 40 40 39 40 40 41 41 41 44 44 46 47 48 47 47 48 51 54 57 59 60 62 65 66 70 71
54 57 56 51 43 48 57 54 56 53 49 45 46 46 44 43 40 37 38 40 39 40 41 41 41 42 43 45 46 46 46 49 51 54 57 59 61 62 64 66 69 70 72
58 56 56 56 45 45 53 52 55 54 49 46 44 46 44 42 39 38 38 39 39 40 40 41 42 43 44 45 45 46 48 51 55 57 59 61 63 64 67 68 70 71 73
42 46 53 50 43 47 51 51 51 52 48 46 46 45 45 42 38 38 38 38 38 39 40 41 42 44 46 45 46 48 51 54 57 58 60 63 65 67 68 71 71 72 73
38 37 38 41 42 51 49 47 47 49 47 46 45 45 44 40 38 38 38 38 39 41 41 42 43 46 45 45 48 51 54 56 58 61 63 65 66 68 70 71 72 73 76
24 33 34 38 44 50 44 42 45 48 47 44 45 44 42 40 37 35 37 39 41 42 42 42 45 45 45 47 50 53 55 57 61 63 64 65 68 69 70 72 74 76 80
28 30 40 41 41 44 39 42 44 46 44 42 43 41 40 37 33 35 37 39 41 41 42 45 44 44 46 50 53 54 57 60 61 63 66 67 69 70 71 73 77 82 87
18 21 28 32 39 37 40 42 42 40 39 39 38 39 37 32 32 35 36 38 38 41 44 42 42 45 49 52 53 56 59 61 62 64 66 68 69 70 73 77 83 88 94
19 27 27 33 33 33 35 37 38 38 37 34 33 32 30 31 33 34 35 35 41 40 40 42 45 48 49 53 55 57 58 61 63 66 67 68 70 74 78 83 91 96 103
22 24 27 28 28 28 30 32 32 30 26 24 24 28 29 33 32 30 36 38 37 38 41 43 45 48 51 54 55 57 60 62 65 65 66 70 75 79 85 90 96 102 106
22 23 23 21 21 22 24 21 20 20 20 19 24 27 31 28 32 32 32 34 38 39 40 43 47 50 51 53 56 58 61 62 62 65 70 74 78 84 92 101 104 103 88
20 19 19 18 17 15 13 13 14 21 22 27 25 30 26 27 28 31 34 33 35 38 43 45 47 49 52 55 57 60 60 60 64 70 75 80 86 92 100 104 98 80 63
18 20 21 21 21 23 22 24 25 25 26 25 24 23 25 28 27 27 30 34 38 40 42 45 48 51 53 56 57 58 60 64 68 74 79 86 92 98 102 91 72 55 42
14 12 16 18 18 18 19 20 20 20 20 20 20 19 19 21 25 30 32 35 38 41 45 47 49 52 54 53 55 58 64 69 73 79 85 91 97 97 82 62 45 43 43
7 9 13 13 12 13 13 14 14 12 10 11 13 17 21 24 27 30 34 38 41 43 44 48 50 51 51 54 58 63 68 72 78 84 90 96 91 73 51 41 41 43 46
5 6 7 9 8 7 6 5 5 6 9 11 15 19 22 26 30 34 37 39 40 43 45 47 47 49 53 57 61 66 71 77 83 88 94 85 64 42 37 40 44 45 45
2 4 4 3 3 3 1 2 5 8 11 15 19 23 27 30 33 34 36 39 42 44 44 45 48 52 56 62 66 70 76 83 90 91 78 55 35 34 38 40 41 41 42
3 2 2 2 2 1 4 6 10 13 17 21 24 27 30 30 32 36 38 41 42 42 44 48 52 57 62 66 70 76 83 90 90 71 49 29 29 33 33 33 34 37 40

GFSMW_500_spd_048.txt.gz
Wind_Speed
35 36 35 34 34 35 38 41 43 38 38 38 37 36 41 42 40 37 36 34 36 36 36 36 37 37 40 43 39 42 40 40 39 39 39 40 41 41 41 41 42 42 44
41 41 41 41 40 38 38 41 45 45 39 41 38 39 43 37 39 39 40 37 36 37 37 38 38 39 40 40 41 42 41 43 42 41 42 43 42 44 45 46 46 48 48
47 48 49 50 49 48 46 44 45 48 49 43 46 43 40 37 40 40 42 41 38 37 39 38 40 38 36 39 37 37 38 42 45 46 46 46 47 47 47 48 48 49 49
53 55 56 57 58 56 53 52 50 50 54 49 49 45 42 40 42 42 40 40 40 40 40 39 40 39 37 40 41 41 41 43 45 48 49 50 51 51 50 50 50 49 49
57 58 60 61 61 61 59 55 55 54 55 54 51 47 44 40 42 44 40 40 41 43 42 39 40 41 40 39 41 42 43 43 44 46 47 50 52 53 52 49 51 51 54
56 58 59 58 58 59 60 59 58 55 53 56 54 50 45 45 43 44 43 40 40 42 39 38 38 39 39 40 41 42 43 44 46 47 49 51 52 53 53 51 52 53 54
46 46 49 49 51 57 60 60 59 56 54 54 54 52 49 49 47 44 44 42 40 41 40 39 38 38 40 41 40 44 44 45 47 49 49 50 52 52 53 56 57 58 56
52 52 50 48 46 42 40 52 61 59 55 52 51 51 50 51 48 45 45 44 40 39 39 39 41 41 41 41 41 42 44 45 47 48 49 49 51 53 56 58 61 61 61
52 50 48 46 49 52 49 47 47 58 54 52 52 51 48 48 48 46 45 44 43 39 39 40 40 41 42 41 41 43 44 46 47 48 48 50 53 55 58 60 62 65 67
46 46 45 45 46 47 52 51 50 49 54 52 51 50 47 46 47 44 44 44 43 40 40 39 39 39 41 41 43 45 46 47 48 48 50 53 55 57 59 61 65 67 69
55 53 47 48 47 49 50 50 44 47 52 52 48 47 45 46 45 43 43 43 42 41 39 39 38 39 40 42 44 45 48 49 48 50 53 55 58 59 62 65 66 67 70
49 46 42 39 43 52 58 56 51 44 49 47 44 46 45 45 44 43 40 41 41 39 38 38 38 38 42 44 46 47 50 49 50 53 55 58 60 63 65 66 67 69 71
45 40 29 30 33 42 46 50 53 44 42 42 43 45 46 43 41 41 40 40 40 38 38 38 38 41 44 45 46 51 49 50 52 55 58 60 62 64 65 68 69 71 71
39 25 20 27 25 35 37 39 42 36 41 39 43 45 43 40 40 40 40 39 37 36 37 39 40 43 43 45 50 49 50 52 55 57 60 62 63 64 67 68 70 69 71
27 21 17 16 21 29 28 31 31 31 38 40 44 42 39 38 40 39 38 34 33 35 37 37 42 42 44 50 48 49 52 55 56 59 61 62 65 66 68 68 69 72 76
14 10 7 14 21 24 18 22 24 33 37 40 40 35 35 38 36 34 31 32 33 34 40 38 39 43 48 46 49 52 53 56 58 59 61 63 65 66 66 69 73 78 84
1 5 6 12 16 17 21 22 30 32 33 34 33 31 32 30 30 30 29 28 35 34 36 38 43 44 45 47 50 52 55 56 57 59 62 63 64 65 68 72 77 83 91
10 11 14 17 19 21 24 25 27 27 28 28 29 29 28 27 26 26 26 32 32 33 40 42 43 43 45 48 51 52 54 56 58 61 62 62 65 68 72 76 83 90 98
16 19 22 24 24 22 22 23 23 25 26 23 22 23 23 28 20 23 28 30 35 37 38 39 41 43 46 48 50 52 54 57 59 59 61 65 68 74 77 86 93 98 98
20 20 18 16 17 18 18 19 18 18 18 19 20 21 22 21 27 28 29 31 34 36 37 39 42 44 46 49 51 54 56 55 57 61 65 70 75 79 86 95 99 96 79
18 19 19 18 18 14 22 21 21 21 19 19 22 33 20 22 25 25 29 30 31 35 38 39 42 45 47 49 52 53 54 56 59 64 70 75 79 86 94 97 90 65 45
10 12 5 12 14 16 18 21 18 25 19 21 21 19 19 22 23 23 27 30 32 34 37 41 43 45 48 49 50 52 55 59 64 69 73 79 86 94 93 80 52 42 45
8 8 7 6 7 10 10 11 10 12 16 18 18 18 16 18 22 25 27 30 34 37 38 41 44 46 47 48 51 55 60 64 69 73 82 88 94 90 71 43 39 39 34
8 4 5 7 5 4 4 5 7 9 8 7 8 13 16 20 23 26 30 33 34 37 40 42 43 44 47 50 55 60 64 69 73 80 88 92 85 62 35 35 33 30 35
3 5 6 6 6 6 6 5 4 5 6 8 12 16 19 23 26 28 30 33 36 39 40 41 43 45 50 55 59 63 69 72 78 87 94 79 54 29 30 28 30 35 39
2 3 4 6 7 5 3 3 3 6 9 13 17 20 22 24 27 30 34 36 38 38 39 42 46 51 55 60 64 69 73 78 85 91 75 48 24 25 24 28 34 39 42

GFSMW_500_spd_051.txt.gz
Wind_Speed
31 32 32 32 34 34 33 32 33 34 33 35 36 35 38 40 36 27 31 30 31 36 36 34 33 33 33 35 36 38 39 38 39 39 43 40 40 41 40 40 41 42 43
36 36 36 37 37 38 38 38 37 36 37 38 39 39 39 42 40 32 33 30 31 36 40 35 35 35 34 34 34 36 37 38 36 35 39 42 41 43 44 44 45 47 48
39 39 40 41 41 41 42 42 42 41 40 42 41 42 43 43 43 35 36 36 34 34 37 37 37 38 37 34 34 34 35 37 41 41 40 41 42 42 43 45 47 49 49
42 43 45 47 48 49 50 51 51 52 50 48 46 47 48 48 47 41 42 38 36 35 35 36 38 39 38 38 35 35 36 37 41 41 41 42 42 42 43 45 48 50 50
48 50 52 53 54 56 57 58 59 58 58 58 52 50 52 52 51 45 44 40 40 39 37 37 38 38 38 38 36 35 36 38 40 40 40 42 43 44 46 47 49 49 49
52 54 56 57 59 59 60 60 59 57 58 58 55 52 51 52 53 49 47 43 42 42 40 39 36 37 38 38 37 38 38 39 38 41 43 42 43 45 47 48 48 46 46
48 50 50 49 49 50 52 53 54 56 56 57 56 53 51 48 50 53 50 47 44 43 43 40 37 37 40 39 39 40 39 39 40 41 42 42 45 46 49 50 49 48 49
48 49 47 48 49 49 49 49 47 48 50 56 56 52 51 47 50 54 52 50 47 46 43 42 38 38 40 41 40 41 40 39 40 41 42 44 47 50 51 51 52 53 55
44 46 48 48 48 52 56 55 52 49 46 39 44 48 48 52 51 52 50 50 51 47 42 43 41 39 41 41 40 40 40 40 41 42 45 48 51 52 52 53 56 58 60
52 50 45 43 47 50 52 55 55 56 51 47 40 40 47 53 51 49 47 49 49 46 44 43 43 42 41 42 41 41 40 41 41 45 47 52 53 52 53 56 59 61 64
53 57 57 53 45 49 48 47 50 55 54 50 44 39 44 49 50 46 46 48 46 45 42 42 43 42 42 42 35 40 44 40 45 46 51 54 53 54 57 60 62 64 66
45 52 50 47 42 39 42 46 51 52 49 47 47 41 43 48 47 44 46 46 44 41 40 41 41 40 41 41 39 39 44 49 50 49 56 54 56 58 61 62 64 65 66
40 41 38 41 35 42 42 42 47 50 46 50 47 44 44 48 45 44 44 42 40 38 38 38 38 38 40 39 42 41 44 49 49 54 55 57 58 61 63 64 65 66 67
42 37 21 27 31 37 33 36 39 48 52 50 49 40 44 46 42 42 40 38 36 34 34 35 36 36 38 39 45 47 49 50 54 55 57 59 60 63 63 64 65 66 66
38 25 23 23 24 24 23 21 23 30 35 38 38 38 42 41 39 38 34 34 29 34 32 33 33 32 43 46 46 48 50 52 55 56 59 60 62 62 64 65 66 66 68
29 16 11 11 14 11 12 17 18 25 28 31 33 35 38 35 33 31 29 25 34 31 32 32 30 35 43 46 47 49 50 53 55 57 60 60 61 62 64 64 66 70 75
21 12 2 6 12 14 17 16 18 20 24 30 32 32 31 26 25 22 26 33 28 27 31 38 34 36 41 45 48 51 51 54 56 58 58 59 61 62 62 65 69 73 78
17 9 2 9 15 16 18 20 24 24 26 27 27 24 20 29 25 24 28 22 24 23 27 39 39 40 44 47 49 50 52 55 56 56 59 59 59 61 64 68 73 78 86
15 12 9 9 10 11 15 18 19 22 24 24 24 21 25 24 26 25 20 22 26 28 32 38 41 43 44 46 49 51 53 53 55 57 57 59 61 65 69 74 79 86 94
13 13 16 13 13 15 17 18 17 18 17 15 23 21 18 22 22 31 27 29 32 30 37 39 41 41 44 46 48 49 51 53 53 55 58 62 66 70 75 80 85 91 99
9 7 12 11 15 15 19 21 20 13 16 19 13 13 18 24 33 32 29 27 32 34 33 36 39 41 45 46 48 50 50 51 53 57 62 66 70 75 81 87 93 96 69
12 14 7 2 8 4 9 12 17 13 8 13 16 18 16 16 20 26 29 26 28 31 34 37 40 41 43 45 47 48 51 54 58 62 67 71 76 82 88 93 87 54 36
10 9 13 15 12 11 8 4 5 5 5 5 9 12 12 12 14 18 22 25 29 33 36 37 39 42 43 44 47 50 54 58 63 67 72 77 83 89 93 75 42 32 31
11 11 7 5 3 3 4 6 7 8 6 5 5 4 7 13 17 21 25 28 31 33 35 38 40 41 43 46 50 55 59 64 69 73 79 84 90 91 63 34 30 30 35
6 7 5 5 4 4 5 5 4 2 2 5 7 10 14 18 22 25 27 29 32 34 36 38 39 43 46 50 54 59 64 69 73 79 85 90 83 54 30 27 28 33 40
1 1 1 1 3 3 2 1 2 3 5 9 12 16 20 22 23 25 28 31 33 34 36 40 43 47 50 56 61 67 71 75 80 86 88 72 46 24 24 25 31 38 45

GFSMW_500_spd_054.txt.gz
Wind_Speed
32 34 34 35 36 37 36 36 36 32 31 31 31 33 35 37 33 34 33 30 29 30 32 33 33 34 33 33 34 34 34 34 33 36 34 37 34 33 40 43 42 42 43
36 36 37 38 38 38 39 39 38 38 37 36 34 35 38 39 37 37 34 30 31 32 34 35 33 35 36 36 35 37 36 35 35 35 35 37 37 38 38 39 40 42 42
38 39 40 40 41 41 41 42 43 42 41 40 40 38 37 40 40 40 39 35 35 37 39 38 34 33 33 34 35 36 37 36 37 36 36 38 40 39 40 40 40 41 42
41 40 41 42 42 42 42 44 45 45 45 45 45 46 42 41 44 46 47 44 43 40 41 41 38 34 34 34 35 35 36 36 37 38 38 38 40 40 37 40 41 43 44
41 41 41 42 45 46 48 49 50 51 53 52 52 52 52 50 48 49 52 50 48 45 44 42 40 40 37 35 35 36 35 35 35 37 39 40 40 41 41 41 42 43 45
41 43 45 47 49 52 54 56 57 57 58 58 58 58 57 57 55 54 55 54 52 50 47 45 43 43 41 39 38 38 38 38 38 39 41 41 40 40 41 42 43 45 48
45 48 50 53 55 57 58 60 62 62 62 62 62 62 61 59 56 54 55 56 54 52 49 47 45 44 43 42 41 39 38 39 39 42 41 42 41 41 43 45 47 48 50
48 50 51 51 51 53 55 57 57 57 59 61 62 62 63 61 56 52 55 55 55 53 51 49 47 46 44 43 42 41 39 41 42 43 43 42 42 43 45 47 49 52 52
44 46 48 50 52 54 54 57 61 62 60 57 53 51 52 54 57 52 52 56 57 53 51 49 49 48 47 45 44 42 41 43 44 44 42 43 43 47 49 50 53 56 55
43 46 49 51 50 53 57 59 60 62 63 63 58 53 49 46 47 51 50 54 56 53 50 50 51 49 48 45 45 43 43 43 44 44 46 47 47 52 53 54 59 59 60
43 47 52 56 55 54 52 56 61 62 61 62 62 58 53 46 42 43 51 53 52 50 50 50 49 47 46 46 44 43 37 44 44 45 48 45 55 54 56 58 60 62 64
46 49 52 54 58 50 50 49 48 56 55 56 56 58 58 52 47 43 46 48 49 49 48 47 45 44 43 43 40 42 42 44 43 46 49 49 54 58 58 62 63 65 67
42 47 53 54 48 47 49 49 40 44 50 47 49 51 53 54 51 43 41 43 46 47 44 43 40 40 41 39 38 39 41 48 46 48 48 58 58 59 63 63 64 66 68
45 48 51 44 38 32 30 33 34 38 45 42 44 45 48 50 47 45 43 45 45 43 41 38 36 37 37 36 37 39 46 52 50 54 55 56 59 62 62 64 65 66 67
42 44 35 32 26 24 27 28 29 34 40 39 38 40 43 43 41 42 44 44 42 37 35 33 35 36 31 37 39 40 41 50 58 57 58 57 60 62 64 65 66 67 67
35 32 30 24 16 11 22 20 22 26 27 30 36 39 39 39 36 37 40 39 34 30 30 35 32 27 32 37 39 42 46 53 58 59 58 59 62 64 65 66 67 67 68
27 27 23 19 15 12 10 10 13 15 14 16 26 33 33 33 30 33 31 31 29 31 30 28 27 31 34 40 45 47 52 54 56 56 58 60 63 64 65 65 65 68 72
23 22 20 14 9 4 3 8 15 21 19 18 18 28 29 29 29 31 30 28 33 29 21 24 28 31 41 48 48 51 52 52 54 57 59 61 62 62 63 65 68 72 77
20 20 18 13 7 5 6 9 11 10 10 22 24 26 27 27 27 24 23 33 22 18 20 27 34 38 42 48 49 50 51 54 57 58 59 60 60 62 65 69 72 76 82
21 15 15 15 11 6 9 9 11 14 18 20 21 22 26 25 23 24 16 14 20 28 36 38 36 36 38 43 45 50 53 54 55 59 59 60 62 65 69 74 77 82 88
18 11 12 14 13 12 14 16 18 18 3 12 17 14 6 6 12 13 16 24 30 38 32 33 35 36 40 45 48 50 51 53 53 55 58 62 66 71 76 80 85 91 96
11 12 12 15 9 10 6 7 5 10 12 11 10 8 6 3 10 18 21 21 23 24 27 30 35 40 43 44 47 49 51 52 54 58 62 67 71 76 80 86 92 91 70
8 7 8 9 12 10 11 9 6 11 9 4 9 7 8 6 7 11 14 18 22 27 31 35 37 39 42 44 46 48 51 54 58 63 68 72 76 82 88 92 81 57 36
7 7 6 7 7 5 3 4 4 5 5 3 2 3 5 6 10 15 20 23 26 28 30 34 37 40 41 44 47 51 55 60 65 70 75 80 85 89 85 64 42 30 32
5 5 4 3 2 3 3 4 5 6 4 2 2 5 9 12 17 19 21 24 27 30 33 35 36 39 42 46 51 56 61 66 71 76 81 88 89 74 52 31 26 30 37
7 6 6 3 1 2 2 2 3 3 4 6 11 15 17 20 21 23 24 26 28 30 31 34 38 41 46 51 56 62 69 73 78 83 88 83 60 38 21 22 27 33 40

GFSMW_500_spd_057.txt.gz
Wind_Speed
38 39 39 34 36 39 39 38 37 37 38 38 36 36 33 35 34 33 34 32 30 32 33 35 35 33 34 34 34 36 36 35 36 38 38 36 37 36 34 35 37 38 38
42 40 40 36 36 40 41 41 41 41 40 38 38 38 37 37 35 35 35 33 32 34 35 38 39 36 36 34 35 37 36 35 35 36 39 38 39 40 38 37 37 39 41
40 41 41 38 38 40 41 42 44 44 44 43 41 39 39 39 38 38 36 37 38 39 40 42 42 40 39 39 37 35 35 34 35 35 35 36 36 40 40 39 40 40 39
39 40 42 40 39 41 42 43 45 46 47 47 45 44 42 41 40 41 43 43 42 42 43 45 45 43 43 43 42 38 36 35 35 36 35 37 37 38 39 39 40 41 42
39 39 40 41 43 42 42 44 46 47 48 49 49 48 48 45 44 46 46 47 47 45 45 46 48 48 48 48 45 42 41 36 38 37 38 39 40 40 41 41 41 42 42
37 39 40 42 44 44 46 47 48 48 49 50 52 53 53 53 54 54 54 53 53 54 53 51 51 52 50 49 48 45 43 39 42 40 40 39 39 41 42 42 42 42 44
35 37 39 42 44 46 48 51 53 55 56 57 58 59 60 60 60 61 59 61 58 55 58 57 53 53 53 52 50 49 46 41 45 45 44 42 41 41 42 42 44 45 43
39 41 42 44 47 50 52 55 58 60 62 62 63 64 66 66 66 67 67 64 60 56 58 59 55 53 52 53 52 52 51 44 46 47 48 46 46 42 44 43 45 46 46
37 39 43 46 49 51 53 56 58 61 63 65 66 66 67 67 67 67 66 66 63 58 55 56 58 56 53 53 53 53 52 49 47 48 48 47 46 45 44 50 52 50 51
35 39 42 45 48 52 55 58 60 60 63 66 67 69 68 67 66 63 61 58 57 58 55 55 57 57 54 54 54 53 53 51 49 49 48 52 44 47 48 51 53 54 57
35 39 42 44 48 50 53 55 57 58 59 61 65 69 70 70 68 62 56 53 52 51 53 54 56 58 56 54 52 52 51 48 49 49 45 47 52 51 52 55 57 59 66
35 38 41 43 46 53 58 61 64 65 61 58 61 67 69 69 68 65 59 56 51 45 51 51 52 53 53 51 50 48 45 46 45 40 45 47 50 54 58 63 62 64 68
34 35 40 44 47 50 51 56 58 57 56 54 59 61 63 65 63 61 60 57 52 46 44 44 48 50 48 46 47 44 43 42 40 45 45 43 53 55 56 59 67 66 67
31 35 39 41 41 40 45 46 42 39 36 40 43 44 50 51 51 54 53 56 54 46 43 43 44 44 42 44 43 43 39 38 39 45 48 48 49 58 68 67 67 67 67
28 32 33 34 36 35 40 35 28 24 25 34 37 34 32 38 41 46 42 44 49 45 42 42 41 38 39 40 41 41 33 39 53 47 50 50 59 64 67 67 67 68 69
22 26 28 33 29 31 29 25 18 19 18 16 19 24 26 29 30 30 30 34 40 42 42 38 36 36 36 34 38 42 40 42 48 54 51 56 60 63 63 66 69 70 70
19 26 27 29 29 23 22 22 15 12 13 12 11 13 16 21 24 23 25 28 34 34 32 33 34 35 34 37 37 32 40 48 52 50 51 56 58 62 65 67 68 68 69
17 19 25 22 25 21 18 14 11 7 2 5 12 17 16 20 20 23 20 25 24 23 25 31 30 33 28 29 34 42 45 50 53 58 58 59 63 65 66 66 66 67 71
14 12 19 21 17 18 16 12 6 6 10 1 16 9 17 17 19 18 22 21 24 31 30 37 32 32 28 42 43 43 47 48 50 55 57 60 61 63 63 67 68 71 77
10 8 10 14 19 13 12 15 13 12 9 3 1 6 13 15 16 17 19 19 19 26 25 24 23 31 36 35 38 42 50 49 52 55 59 61 62 64 67 70 73 77 81
9 11 12 6 10 11 13 14 10 12 8 4 6 6 11 16 10 13 19 25 18 14 22 32 28 33 40 42 41 45 46 48 51 54 57 60 63 67 72 76 80 83 88
5 6 9 14 7 6 11 13 11 9 9 6 2 10 7 9 4 3 11 10 14 18 20 23 25 30 37 41 43 45 46 49 52 55 59 63 68 73 78 82 87 90 89
7 8 8 7 7 8 9 13 12 12 10 7 9 8 3 3 1 2 5 9 13 18 23 27 30 34 37 39 41 44 47 51 55 61 66 71 76 81 86 90 88 72 45
8 7 7 7 7 6 6 7 9 10 9 8 6 5 5 5 7 10 13 17 20 22 25 28 32 34 35 38 41 45 50 56 62 68 74 80 85 89 86 71 47 26 26
10 8 7 8 8 7 6 7 8 9 9 8 7 8 10 12 14 16 18 19 22 24 27 29 30 33 37 40 45 50 56 62 69 77 85 89 86 74 48 24 18 25 31
9 8 7 6 4 3 4 4 4 5 7 11 13 15 14 15 17 18 20 22 25 25 26 29 32 36 40 45 50 55 62 70 81 86 86 75 54 26 13 17 23 29 34

GFSMW_500_spd_060.txt.gz
Wind_Speed
43 43 43 42 40 39 39 39 40 39 39 38 39 40 38 36 36 35 36 36 34 31 32 32 33 34 35 35 34 33 34 34 34 35 36 37 37 36 36 36 37 37 36
44 42 43 43 42 41 41 41 42 39 38 38 39 41 40 39 38 39 39 36 35 35 36 36 36 35 37 36 36 37 37 37 38 37 38 35 35 34 34 34 34 35 36
43 42 44 45 44 40 42 42 44 43 40 40 40 42 43 42 41 40 41 39 40 39 41 41 41 41 40 38 39 39 41 41 43 41 41 37 35 35 35 35 36 37 36
42 43 43 44 43 41 41 43 42 44 43 41 42 44 44 44 43 43 44 44 44 44 43 43 43 43 44 42 43 45 46 45 44 43 38 38 37 37 36 37 37 38 39
38 38 40 42 44 43 42 43 45 44 45 47 47 46 47 46 44 44 46 47 47 45 45 45 44 44 45 45 46 48 48 48 45 42 43 43 40 40 41 40 39 39 40
35 35 37 38 40 41 40 41 42 44 46 48 50 52 52 52 51 49 47 47 48 49 50 51 49 49 50 50 50 49 51 50 48 48 48 48 44 44 45 44 43 41 41
34 35 36 37 38 40 41 42 45 47 48 50 52 54 55 56 57 57 57 55 54 55 55 55 54 54 54 54 53 51 52 53 51 51 51 52 48 45 45 46 47 45 44
31 31 31 33 36 38 42 44 46 48 51 54 56 58 60 61 62 63 63 63 62 61 60 58 57 56 57 56 56 53 53 55 55 53 52 53 52 49 47 47 48 48 46
29 31 34 37 39 41 44 46 49 52 55 58 61 63 66 68 69 70 70 69 68 67 65 61 59 59 55 57 55 56 54 57 54 54 53 52 52 52 48 46 55 52 48
31 33 34 35 37 40 44 48 51 54 57 60 64 66 69 71 72 73 73 72 70 69 68 66 57 59 60 57 58 59 58 57 54 53 53 53 55 52 44 53 55 51 52
29 31 34 36 39 43 47 50 53 55 57 58 61 64 68 71 72 73 74 73 72 69 67 62 57 56 57 57 60 58 58 56 53 53 53 53 53 45 52 51 53 54 55
29 31 33 37 40 43 45 47 49 53 55 56 57 59 62 65 70 71 69 67 68 68 66 60 55 53 53 55 57 56 56 55 52 50 51 51 49 48 55 49 53 55 57
30 31 33 32 33 36 41 43 47 49 51 55 57 54 56 59 62 62 64 61 62 62 63 60 54 53 51 52 54 56 53 49 48 48 47 49 46 53 51 59 58 58 57
26 28 29 28 32 33 35 39 38 42 48 48 42 42 43 41 45 55 50 55 57 56 56 55 55 49 47 43 45 46 44 45 46 48 48 50 46 57 59 55 58 58 65
17 19 23 24 26 26 35 31 30 36 45 36 34 31 29 33 29 29 25 33 39 43 45 49 48 46 41 39 42 38 39 46 44 45 48 46 52 59 65 65 62 66 64
15 20 20 22 18 24 30 27 29 32 36 27 22 18 18 19 15 13 17 21 20 29 33 39 39 35 33 30 37 39 40 38 44 45 43 45 49 59 58 59 65 65 65
17 17 18 17 14 19 29 23 23 25 28 24 14 10 7 5 9 5 8 10 16 17 22 28 31 32 31 33 36 39 42 46 41 46 52 49 49 57 63 67 65 67 67
14 17 9 13 14 15 19 23 21 21 21 20 11 3 3 5 8 14 7 12 14 15 18 21 23 23 30 33 31 40 46 42 44 45 49 51 56 59 61 62 62 64 68
12 11 8 11 16 15 14 16 23 21 21 17 14 5 3 7 8 5 6 11 12 8 16 19 23 25 29 29 36 38 38 42 44 45 49 53 56 59 58 60 64 67 72
10 6 10 9 11 15 13 15 16 19 17 15 17 10 2 5 2 2 6 9 14 12 11 16 20 25 23 32 32 32 36 45 42 46 50 52 53 57 61 65 69 73 79
7 7 9 15 7 7 14 16 12 12 15 12 16 11 6 4 2 3 4 9 8 9 15 13 12 21 23 26 32 37 39 43 45 47 49 54 58 63 69 74 79 84 88
8 9 12 8 5 10 10 12 12 13 11 11 14 15 9 7 3 2 7 8 6 6 9 12 16 21 25 29 32 34 36 39 44 48 52 58 64 70 77 83 88 88 76
7 10 10 9 7 7 8 9 7 7 9 7 7 9 8 9 9 8 6 7 9 13 16 19 21 23 27 29 31 35 38 42 47 52 58 65 73 80 82 81 65 44 24
9 10 10 10 9 9 8 7 8 9 10 9 9 8 8 7 7 8 9 11 12 14 16 20 23 25 27 29 32 36 41 46 51 58 65 72 75 71 66 43 20 19 25
9 8 7 7 6 5 4 3 4 5 6 9 11 12 12 11 11 13 14 16 17 19 21 21 23 25 28 32 36 40 44 49 55 63 71 70 60 56 22 17 21 26 29
7 5 4 5 4 4 3 2 3 6 10 13 13 14 15 16 16 16 17 18 20 21 21 22 26 29 32 36 39 42 46 54 61 69 65 56 40 15 17 20 27 30 32

GFSMW_500_spd_063.txt.gz
Wind_Speed
43 43 40 38 38 40 40 40 41 42 45 45 46 45 44 45 42 42 42 40 38 36 35 34 34 35 34 34 34 32 32 32 32 33 32 34 35 38 36 33 31 31 31
44 41 41 40 39 39 40 39 39 40 44 46 47 46 45 44 44 42 43 41 39 37 38 37 38 39 39 38 36 34 34 35 35 34 36 36 37 40 39 38 34 33 33
44 43 42 42 43 42 41 40 41 42 41 43 45 45 44 43 45 43 43 42 42 43 43 41 41 42 40 41 41 38 38 38 38 38 41 39 38 38 40 41 38 36 35
42 42 42 42 43 43 42 42 42 44 45 44 43 43 44 43 44 45 45 46 46 46 46 46 44 45 45 44 42 43 43 42 41 42 43 42 41 39 39 44 43 38 37
38 37 39 40 41 42 42 41 41 41 43 45 44 42 45 45 44 45 46 47 48 49 49 49 49 48 47 45 43 45 45 44 45 46 47 45 45 44 41 44 48 44 39
37 36 35 35 36 38 40 41 41 41 42 43 44 43 42 43 46 48 49 50 50 51 51 51 50 49 48 48 49 48 49 49 49 49 50 50 49 47 47 48 52 51 46
36 36 36 34 35 36 37 38 39 40 42 43 44 46 47 47 48 48 49 51 53 54 54 54 54 53 53 53 54 53 53 52 51 52 52 52 51 53 52 52 53 54 51
31 33 32 32 33 34 35 35 36 38 40 42 44 46 49 51 52 54 56 57 57 57 57 58 59 59 58 58 58 57 57 55 54 55 54 53 54 56 54 51 54 50 53
29 29 30 31 30 31 32 33 35 38 41 43 47 50 52 55 58 61 63 64 65 66 66 65 64 62 62 60 59 57 58 58 57 56 55 55 51 59 54 52 53 56 53
27 28 30 30 30 31 33 35 38 42 45 49 52 55 58 61 63 65 68 70 71 72 72 71 69 67 63 61 60 60 49 60 59 57 57 58 57 57 56 49 58 54 61
28 28 27 27 29 31 34 38 41 44 47 50 54 58 61 63 65 67 69 71 72 73 74 73 72 68 63 57 55 56 59 60 58 57 59 59 59 56 55 56 54 61 55
25 25 27 28 30 33 33 34 37 39 42 46 50 53 56 57 59 61 65 69 71 73 72 71 69 66 63 59 55 52 52 54 57 57 59 59 57 54 53 56 56 65 56
26 28 29 30 29 29 29 30 30 32 40 46 49 46 46 48 49 51 58 63 66 68 67 67 66 63 59 54 52 51 47 47 48 52 55 57 57 44 55 56 55 57 57
25 25 24 25 26 26 24 23 26 30 34 37 42 43 49 47 39 39 42 48 53 54 62 64 62 59 55 50 47 45 44 44 44 44 44 50 47 53 50 61 53 59 59
18 19 18 18 19 22 21 18 21 30 31 35 39 37 36 32 30 31 33 33 35 32 32 35 37 39 42 42 40 39 39 38 39 40 37 41 48 51 55 54 57 59 62
14 17 14 15 20 19 13 19 19 24 26 30 32 32 18 18 17 19 21 24 20 18 18 14 14 22 32 35 32 30 32 37 34 37 41 48 47 45 53 62 62 60 59
15 15 15 15 12 11 12 14 14 19 23 29 21 16 15 15 16 10 4 4 7 15 13 13 20 19 20 23 23 26 30 32 33 40 43 46 49 51 54 54 57 61 62
16 15 15 11 10 9 12 12 12 15 17 22 16 13 12 9 6 6 9 8 8 7 8 13 12 18 16 23 24 25 31 36 38 40 43 41 46 48 52 53 53 56 60
13 11 8 10 15 11 10 10 12 11 12 13 13 11 7 7 9 8 9 6 4 3 5 8 10 15 18 17 26 27 30 36 35 39 40 43 48 46 49 51 56 62 68
12 9 5 9 10 4 7 10 8 10 10 10 8 9 8 7 8 8 2 12 7 5 5 6 8 11 16 14 19 23 25 29 33 37 39 40 43 47 51 56 62 68 74
5 5 4 8 3 3 8 8 8 8 9 12 10 7 14 11 9 9 10 9 7 2 2 2 3 5 9 14 18 22 25 28 31 34 38 42 46 51 57 63 68 72 72
6 3 2 4 5 8 7 8 4 4 4 5 8 7 10 10 10 9 9 10 8 6 7 8 10 12 15 18 20 22 25 28 31 35 39 44 50 56 61 67 69 63 53
7 4 4 5 5 7 7 7 5 5 3 3 6 9 10 10 10 10 10 10 11 13 13 14 15 17 18 19 21 24 26 30 33 37 42 49 54 59 63 58 49 28 25
10 9 8 7 6 5 4 0 1 2 4 5 7 8 9 9 9 9 10 11 11 12 13 15 16 17 18 21 24 27 30 33 36 39 47 54 59 60 50 36 21 25 29
7 7 7 6 4 2 1 2 1 1 3 8 9 8 10 11 11 12 12 13 14 16 18 18 17 19 22 24 28 30 32 35 40 45 52 57 58 46 33 24 22 24 29
7 6 5 4 4 4 5 5 4 5 8 11 12 13 14 13 14 15 16 16 18 20 20 19 20 23 26 29 32 32 34 38 41 47 51 58 46 37 32 22 24 25 27

GFSMW_500_spd_066.txt.gz
Wind_Speed
44 42 40 38 38 37 36 37 39 40 42 42 43 43 44 45 45 47 47 46 45 44 42 42 41 40 39 39 39 38 36 35 34 33 31 32 32 30 30 31 32 32 34
41 40 39 39 38 38 37 37 38 38 40 41 41 43 44 46 46 46 47 47 47 47 45 44 44 44 43 43 43 41 40 38 37 36 35 35 36 34 34 35 35 35 35
41 41 41 40 39 38 39 39 39 39 40 41 43 45 46 46 47 46 45 47 49 50 48 49 49 48 47 46 46 43 42 42 41 40 40 40 38 39 37 38 38 38 38
41 41 42 41 41 41 41 41 41 41 40 42 44 45 45 45 45 48 48 48 49 50 52 52 52 50 49 47 47 47 46 46 44 44 42 43 43 43 41 42 43 43 43
39 40 41 41 42 42 40 41 42 42 41 41 43 44 45 44 43 45 48 50 50 51 52 53 54 53 52 51 51 48 49 51 48 47 45 46 46 47 47 46 47 47 48
39 40 40 40 40 39 40 41 41 42 43 43 44 44 45 44 43 41 43 47 49 51 53 54 54 55 55 54 54 53 52 52 52 50 49 49 49 50 51 51 51 51 51
39 39 39 39 39 38 37 37 37 39 41 42 42 42 42 44 44 44 44 46 48 51 55 57 57 57 57 56 58 57 54 53 54 54 55 55 55 53 53 55 54 54 56
37 37 38 38 38 37 36 35 35 36 37 39 40 40 42 43 45 47 49 50 51 53 56 57 60 61 62 63 61 59 58 57 57 58 59 63 57 55 55 55 57 55 58
32 32 32 33 33 33 34 34 33 33 33 35 37 39 42 44 47 50 54 56 59 60 62 63 65 66 66 65 66 65 63 60 60 57 56 64 53 57 60 56 56 51 58
30 30 31 32 32 31 31 30 31 31 32 34 37 41 44 48 51 55 58 61 63 65 66 67 68 69 69 69 69 67 67 65 61 59 55 60 68 60 55 57 59 63 63
28 29 29 28 29 30 29 29 30 31 33 35 37 41 44 48 53 58 62 65 67 68 69 70 70 70 68 67 66 66 63 61 59 59 60 59 55 52 57 59 58 60 60
29 28 27 28 28 27 29 30 31 31 31 33 34 36 43 49 54 60 63 63 63 63 63 63 63 63 63 64 64 63 59 58 55 54 56 54 55 59 58 57 60 60 59
26 25 25 26 27 29 30 31 30 28 29 26 27 30 36 42 52 54 53 52 54 57 60 62 63 65 65 64 62 60 57 53 52 50 49 49 51 52 51 54 50 55 55
26 26 26 28 29 28 27 27 26 27 23 23 24 28 32 36 42 40 38 39 43 44 47 49 55 55 54 55 57 57 51 45 45 45 45 45 44 45 43 46 51 48 52
24 26 24 24 25 26 25 24 25 22 21 19 21 25 29 29 30 34 33 36 35 36 39 43 43 43 44 37 31 33 39 39 41 39 39 38 40 42 41 45 47 51 52
21 24 24 22 22 21 21 23 22 23 19 15 18 20 23 19 22 24 25 24 28 28 27 25 33 37 31 29 26 23 27 31 38 33 35 37 38 41 46 49 52 55 55
23 23 19 18 21 20 21 18 20 20 17 13 13 12 15 15 15 15 16 20 16 15 19 19 12 14 21 11 14 16 26 28 27 27 34 32 38 43 47 52 49 46 48
20 20 18 19 21 18 14 16 17 18 16 12 9 9 9 11 12 12 10 14 15 13 13 10 6 7 13 12 17 19 19 19 27 33 34 37 37 42 43 41 41 46 49
15 15 17 17 16 19 18 16 14 14 14 10 10 9 8 8 7 7 12 15 13 11 10 10 6 4 8 10 15 15 20 27 29 29 27 28 33 34 35 39 45 50 54
13 15 16 14 12 13 11 8 10 11 11 6 8 11 9 9 9 11 11 12 12 7 12 13 6 4 7 11 12 12 13 16 19 22 24 27 30 34 39 44 50 53 57
9 11 14 14 11 9 8 11 10 9 8 8 5 5 5 7 7 9 10 11 9 8 8 8 7 6 8 9 12 14 17 19 21 24 27 30 33 37 42 47 51 55 64
11 10 13 11 9 13 12 10 10 11 10 10 9 8 6 4 6 8 10 12 12 12 11 11 11 11 12 13 15 16 18 21 24 27 31 33 35 40 46 50 55 59 56
12 12 12 10 9 11 12 13 13 12 10 10 8 4 7 10 11 12 13 15 16 15 15 15 15 16 16 16 18 20 22 25 28 30 32 34 36 44 47 52 57 53 39
15 13 12 10 10 10 10 10 9 7 7 7 7 9 9 11 13 14 14 14 14 14 14 15 15 15 16 18 21 24 26 29 31 32 34 37 40 45 50 56 52 38 32
13 13 12 12 12 10 10 10 10 10 10 9 10 10 11 12 13 13 14 14 14 16 16 17 17 18 20 23 25 28 30 33 34 36 38 41 43 48 51 54 42 33 33
14 15 12 11 11 11 12 12 12 11 11 11 10 12 14 14 14 16 15 16 17 18 19 20 21 22 24 27 30 32 34 35 36 37 39 41 43 46 50 47 36 34 33

GFSMW_500_spd_069.txt.gz
Wind_Speed
47 45 42 40 38 38 38 38 38 37 37 39 38 40 39 41 40 41 41 41 41 43 43 44 45 45 44 41 43 43 42 41 41 38 38 38 36 33 32 33 32 31 32
46 43 42 41 39 39 39 38 38 37 37 39 39 40 43 43 41 42 42 42 42 43 44 44 45 48 48 47 45 45 46 45 45 43 43 40 40 36 38 38 36 35 35
42 43 43 41 38 38 39 39 38 38 38 40 42 39 44 44 43 43 44 46 46 45 46 47 47 49 49 49 49 49 49 48 48 46 45 43 41 41 41 42 41 40 40
36 37 38 38 38 38 39 39 39 39 40 41 41 42 42 44 44 45 47 48 49 47 46 48 49 50 50 51 52 52 52 52 51 50 47 48 46 46 44 44 44 44 43
42 40 38 36 35 36 36 37 38 39 41 42 43 44 45 43 44 46 46 47 47 48 47 47 48 49 50 52 53 54 54 53 54 52 51 50 50 50 49 46 48 48 47
38 37 36 36 36 36 36 37 38 39 40 42 43 44 44 44 45 46 47 47 46 47 48 49 49 50 51 53 54 56 57 56 56 56 55 54 55 53 53 53 53 54 54
39 39 38 37 37 37 37 37 38 38 38 39 40 42 43 44 44 45 46 46 46 46 47 50 53 55 54 56 57 57 58 58 58 59 59 57 58 57 55 56 57 59 58
39 40 40 40 38 38 38 38 38 38 38 38 39 40 41 42 42 44 45 47 48 49 50 52 54 57 59 61 62 63 64 65 67 66 64 61 59 59 52 58 59 68 68
38 38 38 38 38 38 38 38 38 37 37 36 36 36 37 38 39 41 44 46 50 52 55 58 61 62 64 66 68 68 67 67 67 67 66 63 61 59 57 56 59 61 48
37 37 37 36 36 35 35 35 35 35 33 32 32 33 34 35 38 41 43 46 50 54 59 62 64 66 67 68 68 70 71 70 67 65 65 66 65 62 54 55 56 57 54
35 34 34 35 35 35 34 34 32 31 31 31 31 31 32 33 32 34 37 41 48 55 61 65 65 65 65 67 68 68 67 66 65 64 63 63 62 59 59 54 59 63 65
32 33 34 34 34 33 31 30 30 30 29 29 29 30 29 28 30 33 36 45 49 50 53 56 58 60 60 60 60 60 60 60 60 60 59 59 58 60 61 55 69 61 64
32 32 32 31 30 29 28 29 30 29 30 31 30 28 27 28 28 33 36 36 39 43 45 46 48 49 51 54 56 57 57 58 59 59 57 55 55 55 57 59 61 60 60
30 30 28 28 27 28 29 29 29 31 31 30 28 26 25 25 23 27 30 31 35 35 35 37 39 41 42 44 47 48 48 48 47 48 48 47 48 51 53 53 52 52 51
28 27 26 26 27 27 27 27 29 28 27 26 27 25 24 23 20 22 26 30 31 31 32 29 32 33 37 42 40 34 35 38 40 39 39 39 40 42 45 43 42 46 48
25 25 25 25 24 23 24 25 26 26 27 28 26 24 24 20 18 16 17 19 24 30 29 31 32 27 24 25 31 34 30 26 31 30 35 33 33 39 36 38 42 46 51
25 24 23 24 25 24 23 24 26 26 25 23 25 26 23 21 18 15 16 16 19 23 26 27 27 24 22 19 21 22 22 22 18 28 29 23 25 30 36 42 41 43 43
24 24 26 26 23 21 20 21 21 18 19 22 24 23 22 19 18 18 16 19 23 27 24 27 27 23 20 16 19 18 14 12 13 14 22 27 26 31 35 35 29 30 35
23 22 21 21 22 22 21 19 19 19 21 21 20 20 21 19 19 17 15 16 16 18 15 17 17 17 16 17 18 10 11 13 13 16 19 22 22 22 23 26 30 34 39
18 18 18 20 20 18 15 20 21 17 18 18 19 18 18 18 18 16 16 17 17 17 14 18 17 16 15 16 15 13 13 14 15 16 17 18 21 23 26 30 33 39 43
14 14 16 18 16 15 17 18 17 17 16 15 16 16 16 16 17 16 15 16 16 17 18 20 18 17 16 16 16 16 17 18 17 18 21 24 26 29 31 33 36 41 47
14 12 11 15 14 15 15 17 15 14 15 17 17 16 16 17 13 14 15 16 19 20 21 20 19 19 19 18 17 16 18 19 21 24 26 29 31 33 35 37 41 44 49
14 11 12 12 14 14 16 18 17 18 18 19 18 16 12 14 15 14 17 18 19 20 19 19 19 19 19 19 20 21 23 26 28 29 31 33 34 36 39 41 42 45 48
18 16 14 15 14 16 17 18 18 16 16 15 13 13 14 15 15 16 17 18 19 17 17 17 18 19 20 21 23 25 26 29 31 33 34 36 37 39 41 42 42 44 47
17 17 17 18 19 18 16 16 15 14 14 14 16 18 17 15 15 16 17 18 17 17 16 18 19 21 22 25 26 29 30 32 34 35 36 38 39 40 41 43 45 45 49
17 17 17 17 18 16 16 16 16 16 17 18 18 18 16 16 17 18 17 18 18 18 18 20 22 24 25 28 29 31 33 35 37 38 38 39 40 41 41 43 44 46 46

GFSMW_500_spd_072.txt.gz
Wind_Speed
39 39 40 41 40 37 35 36 36 36 37 36 34 35 34 35 36 36 37 37 38 38 39 39 39 40 39 39 39 41 42 43 44 43 40 40 40 38 36 37 37 37 36
46 43 43 40 40 39 38 37 37 37 37 37 36 35 38 37 39 39 37 40 41 43 42 41 41 41 41 42 42 43 43 43 46 47 45 44 42 40 42 42 41 40 39
43 40 40 41 41 40 39 39 38 38 38 39 41 37 38 39 40 39 40 42 43 44 44 44 42 42 42 44 44 42 42 45 47 46 48 48 46 44 44 45 42 42 42
42 39 36 39 40 41 40 40 39 40 41 41 40 42 39 38 40 42 42 43 45 45 46 45 47 45 45 45 44 44 46 47 48 49 49 51 49 49 46 46 47 46 46
43 40 38 37 39 40 39 39 39 40 39 39 39 40 42 40 40 42 44 45 46 46 47 49 50 50 47 48 49 49 47 49 51 50 51 53 53 53 53 51 49 49 51
36 41 38 35 34 33 34 35 36 38 39 38 39 40 41 43 43 42 43 46 47 46 46 47 49 51 52 52 51 53 53 53 53 53 53 54 55 56 56 57 56 54 55
34 36 37 38 36 36 36 34 33 34 36 37 38 38 39 41 42 43 44 44 44 44 44 46 45 48 51 54 56 56 56 58 60 59 58 56 57 58 57 58 58 57 56
36 35 35 34 34 33 33 33 34 35 35 36 36 37 38 39 40 41 41 41 41 41 42 44 47 50 53 55 58 60 62 62 63 63 63 61 61 63 64 65 64 63 59
40 40 38 37 37 36 37 37 37 37 37 37 37 38 38 38 37 37 37 37 38 39 41 44 48 52 55 58 61 63 64 65 66 65 65 64 65 64 65 64 62 60 54
36 37 37 36 36 37 37 38 38 38 37 36 36 36 35 34 34 33 33 34 35 36 40 43 47 51 54 57 58 60 59 62 65 66 66 64 63 62 61 59 60 60 59
38 38 38 38 38 39 39 38 37 36 35 35 35 33 32 32 31 31 32 31 31 34 36 39 38 41 42 42 45 52 55 55 58 60 62 61 60 59 59 60 59 58 59
38 38 38 39 38 37 36 35 34 34 35 34 32 32 31 30 30 30 28 29 27 33 35 35 34 40 45 45 47 49 49 53 54 53 54 56 55 54 54 54 56 56 56
36 36 37 37 36 36 35 34 34 33 32 31 31 30 29 30 28 27 27 27 30 30 34 32 33 37 42 42 39 37 48 45 43 48 47 49 50 49 48 47 49 51 52
32 32 31 32 32 32 31 31 31 30 29 29 29 30 31 28 27 26 27 27 27 25 29 30 32 34 36 37 37 39 36 38 39 32 36 41 41 40 38 36 41 43 46
28 28 27 30 28 29 28 29 29 28 28 29 31 30 27 26 25 25 26 26 24 23 23 22 27 29 34 36 35 35 34 36 30 31 30 26 29 35 34 28 33 42 46
25 26 27 28 28 29 27 26 26 27 29 30 27 26 26 24 25 25 27 28 26 24 24 26 29 27 29 31 31 31 28 26 28 25 15 19 23 18 21 29 35 42 46
24 25 26 25 25 25 25 25 26 26 25 24 25 25 23 24 25 27 26 26 27 25 27 29 24 27 31 27 27 28 27 24 21 21 17 19 19 20 29 28 29 32 35
22 24 23 24 24 25 25 25 22 21 21 21 20 19 19 23 25 26 26 26 24 23 24 25 26 27 26 28 27 25 25 19 22 19 18 21 17 18 21 19 19 22 23
22 22 22 24 25 25 23 22 22 21 20 19 18 20 21 23 25 26 26 24 21 23 24 23 22 24 26 27 26 24 22 21 20 18 18 18 19 18 19 19 22 24 26
21 22 23 24 24 21 21 21 20 18 20 19 19 20 21 23 23 25 23 22 24 25 21 23 25 26 25 25 24 24 23 21 20 19 20 20 21 23 25 26 27 29 32
18 20 20 20 20 19 20 18 19 18 16 17 17 17 18 18 20 21 21 22 21 20 22 24 25 24 23 22 21 22 21 21 22 22 23 25 26 28 30 31 32 34 36
14 14 13 14 16 18 17 17 16 14 14 15 15 16 18 19 19 19 18 18 19 20 22 23 21 21 20 20 21 22 22 23 25 27 28 30 31 33 34 35 35 36 36
15 15 15 14 12 14 14 12 15 18 18 17 18 18 18 19 16 17 17 18 19 20 22 21 20 20 21 22 23 25 26 27 28 30 32 34 35 36 37 37 37 38 39
16 16 15 14 14 14 14 14 15 17 19 19 17 15 14 14 16 17 17 17 18 20 21 20 20 21 22 23 24 25 27 29 31 32 34 36 38 39 39 38 38 39 40
17 19 19 18 17 17 17 17 17 17 17 17 15 14 15 17 18 17 17 19 19 20 21 21 22 22 23 24 25 28 29 30 32 34 37 38 40 39 39 39 39 40 41
17 17 16 16 16 17 18 18 18 18 17 17 17 17 18 18 18 17 19 20 19 20 22 23 24 24 25 27 28 30 32 33 35 37 38 40 40 40 40 39 40 40 42

GFSMW_500_spd_075.txt.gz
Wind_Speed
42 44 42 41 41 41 40 37 34 32 33 35 34 32 32 33 33 31 32 30 32 34 35 35 36 36 36 36 36 36 37 38 40 41 41 42 41 39 40 40 40 39 39
50 45 44 43 41 40 38 35 36 35 34 35 35 36 35 35 33 33 33 34 35 34 35 37 39 39 39 38 39 39 40 41 41 40 42 42 42 40 42 43 42 42 41
47 49 44 41 38 36 35 36 39 38 36 36 36 36 37 36 36 36 36 36 37 36 39 41 40 40 42 42 41 43 43 42 44 45 46 47 46 44 44 44 44 45 46
41 44 50 45 42 40 41 39 38 39 39 39 38 37 37 37 38 39 40 39 40 40 42 43 43 43 42 44 44 44 45 46 46 49 49 51 51 50 50 47 48 48 48
40 40 40 44 47 44 45 43 42 42 42 40 40 40 40 40 39 39 40 42 43 45 46 45 45 45 45 45 46 47 47 48 49 50 53 53 53 53 54 52 52 52 51
44 42 40 40 42 39 39 44 44 42 42 42 42 41 41 40 40 40 40 41 44 45 46 46 45 45 46 46 46 47 49 51 53 55 56 57 57 57 59 59 56 56 55
45 44 42 41 43 40 33 33 36 38 39 41 41 40 40 40 40 41 40 40 42 43 42 41 41 41 41 43 45 47 50 53 57 61 63 62 62 63 62 62 63 64 61
32 32 33 35 40 42 39 35 36 37 36 38 37 38 39 40 40 40 40 40 40 39 38 37 36 38 40 42 45 48 51 54 56 57 58 60 64 66 65 64 63 63 64
31 33 31 31 32 34 37 36 34 35 34 35 36 37 38 38 39 40 41 39 37 36 35 35 36 37 38 42 43 36 32 40 41 43 46 52 57 62 65 64 64 63 64
30 30 31 33 34 33 34 35 37 38 37 38 38 39 40 40 39 38 36 35 35 34 33 34 33 36 39 37 30 35 39 42 43 46 47 50 52 59 64 62 61 57 57
36 34 33 34 35 37 37 37 38 38 38 39 39 39 38 36 35 34 35 35 33 32 32 31 32 36 36 30 32 37 38 39 41 46 49 53 54 51 60 57 55 54 57
37 37 37 37 37 37 38 38 38 39 38 38 36 35 34 34 34 34 34 32 32 31 30 32 34 31 29 32 34 37 37 38 40 43 45 50 55 50 49 47 46 47 48
38 38 37 38 39 38 38 38 37 36 35 34 33 33 33 33 34 33 32 33 31 29 30 34 34 29 27 30 31 34 36 38 38 38 39 40 40 43 35 34 37 39 40
33 36 37 37 37 37 36 35 34 33 32 32 31 32 33 33 32 31 31 29 29 29 29 32 30 27 27 30 32 34 36 37 38 37 37 36 34 35 29 25 27 32 36
33 34 33 31 31 32 31 30 30 29 30 30 31 31 30 30 31 30 27 28 28 28 30 32 30 31 32 33 33 37 33 33 35 35 31 31 28 26 23 22 22 24 25
24 26 25 25 26 26 27 27 27 28 28 28 28 29 30 30 28 26 27 27 27 28 29 29 33 33 33 31 35 33 34 32 32 32 29 28 28 25 24 25 21 24 24
20 21 22 23 24 24 25 24 25 26 27 27 28 28 27 26 25 26 26 27 28 27 26 29 30 28 30 32 32 32 34 33 31 28 28 28 26 25 25 24 23 25 22
19 20 22 22 22 23 24 24 25 26 26 24 23 22 22 22 22 22 26 26 27 25 26 28 26 29 31 30 32 32 30 29 28 26 24 22 21 21 21 20 22 22 23
20 21 21 21 22 23 23 23 23 23 22 21 21 20 19 20 21 24 23 25 24 24 25 26 28 28 28 29 30 28 26 25 25 25 25 25 25 25 25 25 26 26 27
21 21 21 22 22 22 22 22 21 20 21 22 22 21 20 20 22 21 22 22 22 22 25 25 26 26 28 28 25 24 24 24 25 25 25 25 26 27 29 30 32 33 33
19 18 19 20 21 21 21 21 20 19 20 19 19 20 18 17 18 17 18 19 21 22 22 22 23 26 26 24 23 23 24 24 25 26 27 28 29 30 32 33 34 35 36
17 16 17 17 17 18 18 18 18 17 19 19 16 16 16 16 17 17 18 20 20 20 21 22 23 25 23 23 23 24 25 25 26 27 28 29 31 33 35 37 38 38 38
16 15 16 15 14 13 16 18 17 16 16 16 15 16 16 17 16 16 16 16 19 20 21 21 23 24 24 24 25 25 26 27 28 30 31 33 34 36 37 38 39 39 39
18 17 17 15 14 14 14 15 15 15 16 17 17 17 17 16 14 14 15 18 19 19 20 21 23 24 25 26 26 27 29 30 31 33 33 35 37 38 38 40 41 40 40
19 18 17 18 17 16 15 16 16 14 15 16 16 16 15 14 14 16 18 19 19 19 20 21 22 24 25 27 28 29 30 31 33 34 35 38 39 39 41 42 42 41 40
18 19 18 19 20 19 18 18 18 17 17 16 16 16 17 17 17 18 19 20 20 20 21 22 24 25 26 27 29 31 31 32 33 35 37 39 40 41 42 43 42 41 42

GFSMW_500_spd_078.txt.gz
Wind_Speed
49 51 49 48 50 50 45 43 41 39 41 40 38 36 33 35 33 31 31 29 30 32 32 33 33 34 33 32 32 34 35 36 39 40 40 43 41 38 38 41 40 40 42
52 51 51 48 48 46 45 41 39 38 37 39 39 37 35 34 31 31 31 33 34 34 33 34 35 35 35 36 36 37 38 38 41 42 44 41 42 43 45 45 46 46 45
44 49 48 48 46 45 44 42 40 38 40 40 40 38 34 32 33 33 34 35 35 35 35 35 36 38 38 38 40 41 42 41 43 42 44 45 45 46 48 49 51 50 50
40 40 46 48 49 46 44 43 44 44 43 39 37 36 35 34 34 34 36 36 37 37 37 38 39 39 40 41 42 43 43 43 42 43 45 47 48 49 49 51 51 53 54
38 38 38 45 49 50 49 43 43 43 42 41 38 35 35 36 38 38 39 39 40 40 40 40 41 41 43 43 43 43 42 40 41 42 45 47 50 52 53 54 56 58 58
40 40 38 40 45 51 47 49 52 47 42 42 42 43 41 41 41 42 42 41 42 43 43 44 44 44 43 42 42 40 38 38 40 44 47 51 53 51 47 43 44 46 54
38 38 42 41 40 42 49 52 50 50 53 53 52 45 43 42 42 42 41 41 42 43 44 45 45 44 44 43 39 38 36 39 43 46 44 38 40 46 47 49 51 53 58
37 37 43 43 42 41 42 44 46 42 41 44 47 48 47 44 42 41 39 40 41 41 42 43 43 44 42 38 37 36 38 43 44 38 42 40 43 43 48 50 54 59 63
33 35 38 45 47 43 42 41 45 41 37 35 37 39 40 39 39 40 40 40 41 42 42 42 41 39 36 36 35 36 39 37 34 39 41 41 41 41 46 49 51 58 68
36 35 32 35 39 39 40 41 43 44 43 39 39 39 39 39 40 41 41 42 42 42 41 39 37 35 34 33 35 36 37 35 37 40 41 41 41 41 41 44 50 55 59
39 38 34 34 36 36 36 37 37 38 39 38 38 38 40 41 41 42 42 42 41 39 38 36 35 34 33 34 37 37 35 34 36 38 41 43 43 42 43 43 44 48 47
37 39 37 33 34 35 36 36 37 37 38 39 41 40 40 41 41 41 40 39 37 36 36 35 34 34 33 35 38 39 34 33 36 38 40 42 42 44 42 39 38 41 41
36 38 39 41 35 33 35 36 39 40 40 40 39 40 39 39 38 36 36 35 35 36 35 34 34 33 34 35 38 36 36 37 37 41 40 41 41 40 38 37 37 36 35
35 34 37 34 40 35 36 37 37 38 39 38 37 35 34 34 33 34 34 35 35 35 35 34 34 33 34 37 37 37 38 39 38 38 38 39 39 38 35 37 39 36 33
35 34 34 36 36 38 37 36 36 34 34 33 32 31 31 31 32 33 34 34 34 34 33 32 32 33 34 36 37 37 36 36 38 37 40 38 35 34 35 35 35 34 29
30 33 34 35 35 35 35 32 30 29 29 29 29 30 29 29 31 32 33 32 32 31 31 30 31 32 33 34 34 33 34 36 37 37 34 32 32 32 30 29 27 25 26
19 23 26 29 31 32 28 27 26 26 27 27 27 28 29 29 30 31 30 30 29 29 28 29 30 31 31 32 32 34 34 35 35 31 30 29 29 28 27 27 26 27 28
17 18 19 22 24 25 25 25 25 25 26 27 26 26 28 28 27 27 27 26 26 27 28 28 30 29 28 30 33 33 33 33 29 27 28 29 29 28 28 28 29 30 31
19 19 19 20 21 23 24 25 25 26 26 26 26 26 25 24 24 23 23 23 24 24 26 27 26 26 28 31 31 31 31 28 26 27 28 28 28 28 29 30 32 33 34
20 21 21 22 22 23 24 25 25 24 24 24 25 24 25 25 24 22 22 22 21 23 23 23 24 27 29 29 28 30 27 26 26 28 28 28 29 30 31 33 35 36 38
22 22 22 22 22 24 23 23 23 23 23 23 23 23 24 23 20 20 20 20 19 19 20 23 25 27 27 27 28 26 26 26 27 28 28 29 30 31 33 35 37 38 39
21 21 20 19 20 20 21 22 22 22 22 21 21 22 20 18 20 20 18 18 18 19 21 22 24 26 25 26 26 25 26 27 28 28 30 31 33 33 35 37 38 39 40
20 20 19 18 18 17 17 19 20 20 21 20 21 21 19 19 19 17 18 18 18 20 20 22 24 24 24 24 24 25 27 28 29 30 31 32 33 35 37 39 39 40 41
19 19 19 17 17 17 16 16 17 19 19 20 20 19 17 18 18 18 18 18 19 20 21 23 24 25 24 24 24 25 27 29 31 31 32 34 35 36 38 39 40 41 42
18 19 20 18 18 17 16 15 16 18 18 19 20 20 18 18 19 19 18 18 19 21 23 25 25 23 24 25 26 27 28 30 31 32 34 35 36 38 40 40 41 41 44
19 19 20 21 21 21 20 18 18 18 18 17 17 17 17 18 19 19 19 19 21 23 24 24 23 22 24 25 26 28 29 31 32 33 34 36 37 40 41 41 41 42 46

GFSMW_500_spd_081.txt.gz
Wind_Speed
51 48 49 52 52 50 49 48 46 45 43 41 41 40 38 38 36 35 34 31 30 31 31 31 32 31 32 33 33 33 33 35 37 38 39 39 39 40 41 38 40 42 43
49 47 51 51 53 52 48 48 47 47 45 45 45 44 42 40 38 37 35 33 33 34 34 33 31 33 34 35 34 36 38 39 40 40 41 40 38 38 40 42 44 45 46
41 43 42 47 52 50 47 45 45 46 47 47 46 45 44 41 38 37 37 36 36 36 34 35 35 36 37 37 38 39 41 40 41 41 41 41 39 37 38 42 45 47 49
43 39 41 47 47 50 47 47 48 47 45 45 46 46 45 41 38 38 38 36 36 36 38 38 38 38 39 39 40 41 42 42 41 40 38 39 40 38 40 44 47 47 47
35 40 39 43 50 52 53 49 47 47 47 46 45 45 44 42 39 38 37 37 38 39 40 40 39 40 41 41 42 42 42 41 41 39 36 39 40 43 44 42 37 42 44
40 38 41 39 41 49 51 54 49 47 48 46 45 45 43 41 39 38 39 40 41 42 42 42 41 42 43 43 43 43 41 41 38 36 37 40 43 43 40 42 42 43 44
48 47 41 41 42 41 48 51 53 53 52 47 47 48 46 42 39 39 40 43 45 45 44 43 43 44 45 44 43 42 41 39 34 34 37 41 40 38 41 42 43 42 43
49 51 47 49 46 43 43 45 52 51 51 52 53 54 55 54 54 53 47 46 45 46 45 45 43 44 45 44 43 43 39 36 35 35 39 39 37 39 43 45 46 44 45
45 47 49 45 47 48 46 44 44 48 54 56 55 53 53 50 47 47 48 48 47 43 41 43 43 43 44 44 43 40 38 38 36 37 40 38 39 40 41 44 47 48 48
43 43 43 45 44 45 47 46 44 45 46 47 49 47 42 41 41 41 42 42 42 41 42 43 43 44 44 41 39 38 37 36 37 38 40 38 38 40 42 45 45 46 47
45 45 43 41 39 39 45 48 45 46 45 44 43 47 44 42 42 42 42 42 42 42 43 44 44 43 40 37 37 36 35 36 37 39 39 38 40 42 45 44 44 45 44
44 43 46 46 41 37 36 40 43 45 44 44 44 46 47 43 43 43 42 43 44 44 43 43 41 38 37 36 35 34 34 36 38 39 39 42 43 44 45 45 45 42 40
43 38 38 37 43 35 34 34 37 38 40 41 41 41 43 44 44 43 45 44 43 42 41 38 37 37 36 34 35 34 35 37 39 38 40 41 42 44 45 46 39 37 38
35 35 35 37 40 35 32 33 33 34 36 38 42 42 42 42 42 42 41 41 40 38 37 36 36 35 34 35 34 35 36 38 38 40 39 39 42 44 43 37 34 34 33
39 37 35 34 34 38 41 39 38 32 31 36 38 41 42 41 39 38 37 36 35 36 35 35 35 34 35 33 34 35 36 36 37 37 38 39 42 40 35 32 32 32 31
34 35 36 36 35 38 37 34 43 45 36 36 36 38 38 36 35 35 34 33 34 34 33 33 34 33 32 33 33 33 34 35 35 37 38 40 37 33 32 32 31 29 29
32 35 33 34 35 34 36 35 36 36 36 35 36 34 33 33 33 33 33 32 32 30 32 33 31 30 31 31 32 31 32 33 35 37 38 35 31 31 31 31 30 30 31
21 25 28 31 33 35 36 36 33 30 33 33 33 32 32 32 32 31 30 29 30 31 31 30 29 29 30 30 30 30 30 33 35 35 33 30 30 30 29 30 31 31 32
22 19 20 22 25 27 29 33 32 32 32 30 30 30 30 30 30 29 28 29 30 30 28 27 27 27 26 27 27 28 31 32 33 33 30 29 30 30 31 32 32 32 33
18 19 21 21 23 24 24 26 28 29 29 29 30 30 29 29 28 27 27 26 24 24 24 23 23 23 24 25 26 28 30 31 32 30 28 28 29 30 31 32 33 34 35
18 19 20 21 22 22 23 24 26 27 27 28 28 28 27 27 28 27 27 25 25 23 22 22 22 23 24 25 26 27 29 31 29 28 28 28 30 31 32 33 35 36 37
21 22 22 21 21 22 23 24 24 24 25 25 26 26 26 26 25 26 25 23 23 22 21 21 22 23 24 24 25 27 28 28 27 27 28 30 31 32 33 34 35 37 39
21 21 20 20 20 20 21 21 22 24 24 24 25 25 25 24 23 22 22 22 21 20 21 22 23 22 23 25 25 27 27 26 26 27 28 30 32 33 34 35 36 38 40
19 20 20 21 20 19 19 19 19 20 22 23 23 23 23 23 23 22 21 20 20 21 21 21 21 22 24 25 27 28 28 28 28 29 30 31 33 34 36 36 37 39 41
19 19 19 21 20 20 18 19 18 18 19 21 21 22 22 22 20 21 21 22 22 21 21 21 22 23 25 25 26 26 26 27 28 30 31 33 34 36 37 36 38 40 43
20 20 20 21 21 22 20 20 17 17 18 19 20 20 21 22 22 22 22 22 22 22 21 21 23 24 24 24 25 26 27 28 29 31 32 34 36 37 36 37 39 42 45

GFSMW_500_spd_084.txt.gz
Wind_Speed
57 56 58 56 64 60 50 45 44 44 44 42 40 38 37 38 37 35 32 30 32 32 32 33 33 31 30 32 32 32 33 34 36 37 37 38 38 38 39 40 38 39 39
52 55 60 62 58 59 57 53 50 48 44 42 42 42 41 41 38 37 35 35 34 35 36 34 32 32 32 33 35 37 36 37 38 39 40 38 38 37 39 38 37 38 39
52 54 60 57 49 53 56 54 54 52 49 47 46 45 43 42 40 39 40 40 39 37 37 36 35 36 37 37 38 40 40 40 39 41 41 41 39 38 34 34 36 39 41
44 52 57 55 48 48 49 57 54 52 50 49 48 47 46 44 43 44 42 40 41 41 39 38 37 39 39 39 41 43 42 41 41 42 41 40 39 36 33 34 38 39 35
52 41 39 50 51 46 46 50 52 54 53 53 51 50 49 48 46 45 43 43 43 43 41 39 39 39 41 43 43 43 41 41 42 42 40 38 35 35 35 35 37 35 37
39 50 46 41 43 44 43 46 48 48 50 52 51 49 50 50 48 46 45 44 44 44 41 41 41 43 45 45 45 44 42 42 42 40 40 36 36 35 37 37 36 34 36
40 40 44 44 45 41 39 43 49 51 50 49 50 51 51 50 48 47 47 47 46 44 44 43 44 46 48 46 45 43 42 42 41 40 36 35 35 35 38 37 36 35 36
38 41 38 39 40 41 41 39 44 49 51 53 51 48 48 49 48 46 45 44 43 44 44 47 47 48 46 44 45 42 43 42 42 39 37 36 35 36 38 38 36 36 39
35 40 45 49 49 46 40 41 43 45 50 53 52 53 53 51 49 47 47 48 50 54 55 53 51 50 47 45 43 43 43 44 40 37 36 35 34 36 37 37 38 41 42
40 42 45 48 51 55 52 52 50 49 48 50 54 54 52 52 53 54 54 52 53 50 49 49 49 48 45 43 43 45 44 41 38 37 35 34 34 37 36 38 41 42 46
37 42 47 47 50 52 55 52 50 51 52 52 51 51 53 56 56 55 53 49 44 42 43 43 43 42 42 43 44 44 41 38 37 36 35 34 35 37 37 40 41 43 46
42 41 45 48 48 47 46 50 48 50 51 52 49 48 48 49 48 44 47 47 44 44 44 43 43 43 43 44 43 41 38 37 36 35 34 35 36 37 38 38 40 42 45
30 37 40 46 49 46 42 47 48 45 46 49 51 49 48 47 46 45 46 49 45 44 45 44 45 46 44 43 39 38 37 35 35 33 33 34 36 37 37 39 41 43 39
25 32 37 43 44 43 44 46 43 38 38 41 44 45 44 42 41 39 40 41 46 47 45 47 44 43 41 38 37 35 34 34 32 32 32 33 35 35 36 39 41 38 35
26 30 33 39 39 35 38 41 39 35 29 30 34 36 38 38 39 40 39 40 41 43 42 42 41 40 37 36 35 34 33 30 30 31 31 32 33 35 38 39 36 34 33
28 32 35 34 35 35 33 31 31 41 32 35 34 30 30 33 37 39 43 45 42 40 39 41 38 35 35 34 34 31 29 29 29 29 29 31 32 36 38 36 32 32 31
27 30 36 38 38 37 36 36 35 35 34 42 40 39 36 36 36 35 39 40 40 38 37 35 34 34 32 32 29 28 28 28 28 29 30 31 34 35 35 32 31 31 31
25 24 29 36 31 34 37 36 37 36 39 36 36 42 46 44 44 40 40 37 35 34 34 32 32 31 31 29 28 27 28 26 28 28 29 32 33 33 31 30 30 32 34
19 23 23 25 30 34 35 35 35 37 39 36 35 35 36 38 37 36 36 34 33 32 31 33 31 30 28 27 27 26 25 27 26 27 29 31 32 30 29 29 30 32 33
21 25 21 21 22 26 28 29 32 33 36 37 39 36 37 35 34 33 34 32 31 30 31 29 27 26 26 26 25 25 25 26 26 27 28 31 29 29 29 30 32 32 34
18 15 16 21 26 22 22 24 26 29 31 32 33 34 33 32 31 31 31 29 30 30 26 25 25 25 24 25 24 25 25 26 25 26 28 27 26 27 29 30 32 33 35
17 17 20 20 21 23 24 25 26 25 26 29 30 30 31 31 32 32 30 29 28 27 26 25 25 24 23 23 24 25 25 25 25 27 26 26 27 28 29 31 33 35 36
21 22 24 24 23 23 23 23 24 25 26 26 27 29 29 29 29 27 26 26 25 26 25 25 23 23 23 23 23 24 24 24 26 27 27 28 28 29 31 33 34 36 37
22 23 22 21 22 22 21 21 21 22 22 24 26 26 25 25 24 25 25 24 24 24 24 24 23 23 23 23 24 24 24 24 25 26 27 29 30 31 32 34 35 37 39
20 21 20 21 21 22 22 21 20 20 19 19 20 22 23 23 23 23 23 24 24 24 24 23 23 23 23 23 24 24 24 25 26 27 29 30 30 30 32 34 36 39 41
19 20 20 20 20 20 22 22 21 20 19 18 19 20 21 22 22 23 23 23 24 24 25 25 24 23 23 23 24 23 23 25 25 26 28 30 29 30 33 35 38 41 42

GFSMW_500_spd_087.txt.gz
Wind_Speed
56 52 52 55 57 56 50 52 52 52 48 48 46 44 40 39 38 36 35 34 33 33 34 34 33 31 30 30 30 30 31 30 33 34 36 36 37 37 38 38 38 37 36
52 52 47 49 56 59 59 52 51 49 48 49 48 46 43 41 38 38 37 37 37 35 33 32 33 31 30 31 32 32 33 35 37 38 39 37 38 38 38 37 39 37 35
64 57 46 52 51 54 58 61 60 50 52 50 47 45 45 42 41 41 42 41 38 35 35 36 36 35 35 34 34 37 36 37 39 42 43 42 38 36 34 35 34 34 35
54 51 52 48 57 52 52 57 57 67 60 52 51 47 46 43 43 42 43 42 42 41 41 41 40 39 38 37 36 38 40 41 43 42 43 43 40 39 36 36 33 35 35
43 51 57 50 51 55 59 55 56 63 65 64 54 49 49 47 46 46 45 45 45 45 43 42 41 40 40 39 38 40 41 44 44 43 43 42 40 38 40 37 34 34 36
48 47 45 52 53 51 52 48 50 56 58 61 57 54 49 48 48 47 46 46 45 45 44 44 43 43 42 42 41 41 43 46 46 44 43 42 40 38 42 37 34 33 35
36 47 49 40 48 57 57 52 54 49 45 49 56 56 51 49 49 48 48 48 47 48 47 46 45 45 44 43 42 43 45 48 45 43 43 42 39 40 38 35 33 34 34
32 34 32 40 45 46 47 46 45 43 46 47 48 49 51 54 57 57 52 51 51 50 49 50 48 46 46 47 48 49 53 47 45 43 42 40 40 38 35 33 32 34 33
34 33 35 40 47 55 51 47 45 44 46 49 48 48 49 49 50 50 50 49 49 48 47 46 46 47 49 51 53 52 47 46 43 41 42 42 39 36 34 32 32 34 32
32 37 37 38 48 42 47 48 46 48 47 45 47 50 51 51 51 51 51 48 47 46 47 48 50 52 52 50 47 45 42 41 40 43 47 43 37 35 34 31 32 33 34
25 28 34 39 39 42 44 44 45 45 44 45 45 46 47 50 51 51 51 51 52 53 53 53 52 52 46 43 43 42 40 42 42 46 43 39 36 35 32 31 32 34 35
24 27 30 34 38 45 47 49 51 51 51 51 49 51 53 53 51 52 53 54 55 54 54 54 50 44 42 43 42 42 42 44 44 42 39 37 35 32 31 30 32 34 35
21 21 30 37 37 39 46 48 49 51 49 47 48 50 56 57 53 51 50 47 46 48 47 45 49 46 42 42 41 42 43 42 41 39 37 36 33 31 31 30 32 33 35
33 28 26 26 33 37 41 46 48 47 45 47 51 49 46 51 52 52 50 48 45 46 46 43 43 49 47 45 44 43 42 39 38 37 34 32 30 30 29 30 31 33 33
33 34 28 26 27 35 39 42 44 45 44 42 44 46 42 38 42 46 48 45 42 39 39 38 36 40 39 42 41 39 38 37 36 33 32 30 29 28 28 29 31 31 32
31 30 29 29 29 31 33 36 34 38 40 39 38 37 36 32 32 35 36 39 39 39 40 41 41 39 41 38 38 38 37 34 33 30 29 27 27 28 27 29 30 30 30
27 28 30 30 30 31 31 34 35 32 32 33 32 33 39 33 32 30 32 34 35 38 39 40 43 43 41 40 37 34 32 33 29 28 27 25 27 27 28 28 29 29 30
26 24 22 27 31 31 34 34 36 36 36 34 31 29 35 33 39 40 38 37 36 37 37 42 40 39 36 33 31 32 31 28 27 26 26 26 27 27 27 27 28 28 29
21 21 19 21 27 29 32 32 33 34 36 36 36 36 35 34 36 39 45 48 48 44 41 38 36 34 32 29 32 31 27 26 26 26 25 26 26 25 26 27 27 28 28
20 23 22 19 22 25 27 33 35 34 35 34 35 36 35 40 39 39 39 38 37 36 36 35 33 32 31 32 28 26 26 26 25 25 26 25 25 25 25 25 26 27 27
16 17 20 23 23 21 22 21 23 27 28 31 33 34 36 36 38 38 36 35 33 33 33 32 33 29 29 26 25 26 26 25 24 25 24 25 24 24 25 26 27 27 29
18 18 19 19 21 20 23 28 26 24 24 25 28 31 30 32 34 35 34 32 29 29 31 30 30 28 26 27 26 25 24 24 24 25 25 24 24 25 27 28 28 28 29
20 19 20 20 20 19 21 23 24 26 28 29 29 26 29 31 31 30 29 29 32 33 31 29 28 28 29 27 25 24 23 24 25 25 24 25 25 25 27 28 28 28 29
20 22 23 23 24 24 24 24 24 24 23 24 25 26 28 28 29 31 31 30 28 27 28 29 29 28 27 25 23 23 24 25 24 25 25 25 26 27 28 28 27 29 31
20 20 21 22 21 22 21 22 22 22 22 23 23 22 23 24 25 26 26 26 26 27 26 25 26 26 25 24 23 23 24 24 25 25 25 26 26 26 27 29 30 32 33
17 20 20 21 21 20 20 21 21 21 22 22 21 20 20 21 22 23 24 26 26 26 25 26 25 25 25 24 24 24 23 24 25 25 25 24 26 28 29 31 33 34 36

GFSMW_500_spd_090.txt.gz
Wind_Speed
62 60 59 54 50 50 52 50 49 47 47 49 49 58 50 45 42 42 41 38 36 34 34 34 32 31 30 30 30 30 31 31 32 30 31 33 34 36 39 40 41 41 40
65 62 60 55 53 51 54 57 52 50 47 49 44 48 55 50 47 46 42 40 40 39 38 34 33 33 32 31 30 31 33 33 33 34 34 33 36 39 41 43 42 40 41
67 52 61 55 54 53 51 52 59 55 53 46 50 53 47 48 50 48 48 46 42 39 35 34 36 36 35 33 35 35 36 35 35 37 37 36 39 40 40 40 41 41 41
56 66 52 55 56 54 54 50 51 57 56 49 53 58 54 50 57 54 51 47 43 41 39 38 38 38 39 39 39 37 38 39 38 39 38 39 41 45 44 39 38 40 39
50 56 59 59 54 58 54 54 45 50 52 55 52 56 54 52 50 50 46 42 41 43 41 41 42 41 42 42 39 40 40 40 40 39 39 40 45 46 43 41 39 38 41
43 51 53 56 60 53 46 47 52 49 49 50 51 56 58 53 55 48 49 45 46 43 43 44 44 44 42 42 42 42 41 41 40 41 41 45 46 46 42 41 37 41 42
41 44 49 45 55 54 57 50 47 50 53 50 49 62 61 68 63 59 53 49 48 45 46 45 44 43 44 46 45 44 44 44 44 44 48 50 47 44 43 40 39 41 40
35 36 42 40 41 48 53 50 54 50 52 52 54 56 55 55 62 64 54 48 47 46 47 45 46 47 47 47 46 45 44 44 49 52 52 51 45 43 42 40 43 40 35
34 36 42 34 38 50 45 53 63 56 54 59 54 51 52 53 49 48 50 48 47 50 52 52 47 48 52 52 49 48 48 50 52 52 46 44 42 41 42 44 41 37 34
32 34 35 36 35 32 34 41 45 57 61 61 56 54 52 48 48 47 50 53 53 53 52 50 51 50 50 48 47 48 52 51 46 43 41 41 41 42 43 41 38 35 33
24 27 34 35 34 34 38 45 51 54 52 52 51 49 48 49 50 51 53 53 53 52 51 51 50 50 50 50 52 52 51 45 42 42 41 41 43 43 42 39 36 34 32
17 17 19 23 30 37 36 35 45 45 58 57 53 50 50 50 50 47 48 49 51 51 52 51 51 50 49 49 51 53 47 44 42 43 43 43 42 40 39 37 34 32 34
19 16 16 18 21 27 33 38 40 43 44 44 49 48 49 48 49 51 51 51 50 49 50 49 48 46 48 47 46 44 46 43 40 42 44 45 41 40 37 34 31 34 33
20 21 20 21 22 24 27 37 41 43 44 44 48 49 52 52 53 52 54 53 51 51 50 48 45 45 44 43 44 42 42 47 48 46 42 42 38 37 34 31 34 32 32
25 27 30 31 32 33 30 30 38 42 44 45 47 47 49 50 47 49 51 52 52 50 49 49 49 46 44 42 40 38 39 40 42 40 38 37 37 32 34 31 31 31 32
30 29 29 31 34 34 31 32 33 38 44 43 42 42 42 43 43 43 40 43 47 44 46 48 46 43 42 40 40 40 38 41 36 37 42 35 31 34 30 31 31 32 31
30 31 31 32 32 32 35 34 32 32 38 37 34 37 38 41 39 37 35 38 38 38 38 38 39 41 42 43 43 44 43 43 42 39 35 29 33 31 29 30 31 30 29
29 31 32 30 30 30 30 30 30 31 33 36 34 34 36 38 38 40 38 38 36 37 34 35 36 34 35 36 38 41 40 39 35 30 27 32 30 29 30 30 29 29 29
30 28 26 28 25 23 23 28 32 33 34 35 37 37 37 36 35 34 40 41 43 43 46 41 41 39 41 41 39 36 36 32 28 30 32 30 29 29 28 28 28 28 27
25 24 26 26 24 24 22 20 25 32 34 35 34 36 36 37 39 39 39 39 36 39 38 43 44 47 43 39 37 36 32 31 33 30 29 28 27 27 28 28 27 26 26
21 22 23 22 22 24 26 24 22 23 29 35 38 38 41 41 38 38 39 37 39 34 32 33 36 34 34 34 33 31 30 30 28 28 28 27 27 27 27 28 27 28 28
23 23 24 25 23 24 25 29 26 26 23 23 24 27 28 30 32 34 34 35 34 36 36 34 33 30 30 32 30 29 29 28 28 27 27 26 27 27 28 28 29 28 28
23 25 26 26 25 23 20 20 18 22 26 29 29 30 30 28 27 32 30 32 30 33 34 30 28 27 30 31 30 29 29 28 27 27 27 26 27 27 28 29 28 28 27
21 22 23 24 23 24 24 24 25 26 26 27 27 27 26 27 28 28 30 34 32 30 29 29 30 33 32 30 29 29 28 27 27 27 26 27 27 28 29 29 28 26 27
21 22 22 23 24 25 26 26 25 24 25 25 24 24 24 26 25 26 26 27 28 30 30 29 29 30 29 30 29 28 27 27 26 26 27 27 28 29 28 27 26 27 29
21 21 22 19 25 25 24 25 24 24 24 24 25 25 24 24 23 23 23 24 25 26 27 29 29 28 28 28 27 27 27 27 26 27 27 27 28 28 28 28 28 30 30

GFSMW_500_spd_093.txt.gz
Wind_Speed
41 46 46 54 54 53 54 54 53 50 46 44 44 43 44 49 44 44 45 45 43 41 39 37 35 33 30 28 28 28 27 26 25 27 29 31 33 32 34 36 39 41 45
39 46 46 50 55 55 53 54 55 55 53 49 43 44 44 44 48 48 51 50 48 46 43 42 37 34 31 30 30 30 28 28 29 31 33 33 35 34 35 38 39 45 45
41 47 48 50 60 56 56 53 52 49 56 54 50 47 44 46 48 51 56 55 51 47 48 46 40 37 34 32 31 32 32 32 33 34 35 37 36 36 37 36 40 43 43
41 45 43 54 60 61 58 57 55 48 40 52 55 50 51 49 43 43 49 58 55 57 54 52 47 43 41 37 34 33 35 35 35 33 38 39 39 39 38 38 43 43 41
43 44 42 47 62 58 58 59 55 52 47 51 51 54 56 50 49 47 53 54 51 54 58 48 37 41 40 38 36 35 36 37 36 38 38 39 41 40 40 42 47 45 41
42 42 40 41 49 63 55 59 58 53 55 53 47 51 43 53 54 57 53 58 56 57 55 54 50 41 41 36 37 37 37 37 38 39 41 39 40 42 46 49 51 43 42
39 39 40 39 42 48 58 55 56 55 55 56 53 49 50 48 55 54 48 53 53 57 54 52 47 47 41 38 39 40 40 41 41 42 42 41 43 50 49 51 45 43 40
35 34 38 39 42 44 50 54 57 54 56 60 49 52 53 47 47 48 53 58 60 57 58 67 50 46 41 41 41 42 45 42 42 41 42 43 47 50 48 43 43 41 41
32 30 33 33 36 39 44 47 54 57 57 54 49 49 52 50 52 53 62 55 52 51 57 50 49 45 46 42 43 46 44 46 50 49 44 46 50 45 42 41 41 43 44
25 30 30 32 30 36 36 36 42 50 53 56 53 54 53 51 54 54 50 47 48 45 42 43 45 46 45 48 51 48 48 46 48 47 46 49 44 41 41 41 43 43 41
21 26 32 33 32 36 37 34 32 42 41 51 59 61 60 59 56 56 57 51 53 47 44 46 46 46 46 45 47 45 46 47 49 51 50 47 42 43 42 43 44 42 40
18 24 25 31 34 33 33 36 35 34 41 43 55 52 50 60 60 50 51 52 49 48 49 50 52 51 51 50 50 51 51 50 49 51 46 45 43 39 41 44 44 44 38
21 19 18 20 24 28 31 33 35 36 40 46 49 45 44 53 51 54 53 53 51 51 50 49 49 49 48 46 46 47 44 44 43 43 45 44 45 47 47 46 43 40 35
24 20 17 19 21 22 21 21 22 26 34 40 43 45 44 47 53 60 59 57 54 52 51 50 50 48 49 48 46 44 41 42 42 43 44 44 44 44 43 41 38 37 31
27 24 19 19 19 21 25 26 28 30 32 33 41 46 47 47 48 47 50 55 53 49 48 50 51 51 48 46 46 45 45 43 43 43 41 41 39 41 38 37 38 32 31
27 23 19 22 24 25 28 30 32 36 35 35 36 39 46 47 48 47 47 44 43 45 44 45 45 43 44 45 46 45 43 43 42 42 41 42 39 37 39 38 30 33 34
27 25 25 27 28 29 30 32 35 37 38 41 40 38 40 44 45 45 43 41 42 39 42 43 44 43 43 43 43 44 44 44 43 44 43 41 41 41 38 34 32 33 32
30 27 27 29 30 31 33 33 34 35 37 37 36 36 36 37 35 36 40 40 41 40 43 42 40 40 40 40 39 39 37 38 39 36 40 41 39 37 28 31 33 30 30
27 31 30 29 30 30 29 31 31 30 31 33 32 35 34 36 36 35 37 41 41 41 45 43 41 40 40 39 37 37 34 32 33 38 36 36 32 31 30 31 29 30 29
30 32 31 29 28 28 28 30 30 28 28 30 32 32 37 35 37 37 36 35 39 39 38 45 44 43 45 46 47 43 41 41 39 36 34 30 31 30 30 28 29 29 29
27 27 26 25 26 27 27 28 27 28 28 25 26 31 33 36 40 40 38 39 39 39 38 37 41 38 39 36 39 40 39 37 36 34 30 32 30 29 28 28 28 29 30
28 28 26 26 27 26 27 29 28 28 28 26 23 24 23 24 27 30 32 35 40 44 43 41 40 43 34 33 34 34 34 32 30 30 29 29 28 28 28 28 29 29 29
26 28 29 29 28 29 30 31 29 25 24 24 24 25 30 33 32 31 29 27 28 33 34 31 35 34 35 32 33 31 30 31 31 30 28 27 28 28 27 28 29 29 30
22 24 25 25 26 28 29 28 28 27 25 26 27 28 28 29 30 29 29 30 31 32 34 32 32 29 30 29 30 30 29 29 29 29 28 27 28 27 27 28 29 30 31
24 23 23 24 25 27 28 28 29 30 29 28 27 26 25 26 25 26 27 27 27 28 29 30 32 31 30 29 28 30 30 30 30 28 27 28 28 27 28 29 29 30 29
23 24 26 27 27 27 26 27 27 28 28 28 28 28 27 28 27 26 27 26 26 25 25 26 27 28 28 30 30 29 30 30 27 27 29 28 28 28 28 28 30 31 31

GFSMW_500_spd_096.txt.gz
Wind_Speed
49 45 41 42 42 43 45 46 45 46 47 45 45 44 40 38 38 37 39 41 42 42 41 41 40 39 36 33 32 31 29 28 26 24 23 24 27 27 29 31 34 36 34
48 45 41 42 42 41 44 47 48 48 48 47 49 47 45 44 42 41 38 37 47 46 45 47 45 44 40 39 37 34 33 30 28 27 26 26 29 28 31 32 34 36 36
48 46 44 38 42 43 43 44 50 50 50 51 49 51 50 46 42 41 40 41 39 42 47 49 49 47 44 44 41 38 37 35 31 29 30 30 28 31 31 32 33 35 37
49 46 44 41 39 41 46 47 48 52 50 52 54 52 49 54 52 48 44 43 38 38 41 42 48 51 47 46 45 43 41 35 35 32 31 30 35 31 32 34 36 37 39
48 45 44 40 38 36 42 49 49 51 53 52 49 46 47 48 55 53 52 50 48 45 38 42 44 50 53 55 52 50 48 47 40 33 31 32 34 40 32 36 39 40 44
46 46 46 39 36 40 45 48 55 55 54 54 52 51 49 44 44 47 52 49 51 50 51 49 47 50 55 56 45 35 30 32 33 29 31 34 39 31 35 38 41 45 45
47 46 42 37 35 39 42 44 50 57 55 57 57 55 53 50 54 47 50 45 53 46 52 55 55 48 53 57 60 51 50 45 40 37 38 39 32 35 36 36 42 45 40
46 43 40 36 38 40 41 45 46 52 58 54 56 59 60 51 49 53 53 44 48 46 48 55 48 47 47 51 58 61 50 51 42 39 37 37 39 38 38 41 44 42 39
38 36 37 38 39 41 42 41 43 47 52 57 58 58 60 60 57 56 47 48 47 46 46 47 49 53 47 47 52 47 39 37 37 38 42 41 38 38 41 43 43 40 39
33 32 33 36 37 37 37 35 35 37 41 45 48 55 58 57 56 50 51 52 51 50 50 49 46 42 43 44 42 41 40 40 42 45 40 37 39 40 43 46 44 40 40
25 23 27 30 34 28 28 31 29 28 31 35 42 43 49 52 53 56 52 51 53 52 50 52 51 46 48 46 47 42 41 40 40 40 40 42 44 45 44 42 42 40 39
28 29 26 24 21 23 31 30 30 33 34 33 32 39 41 48 55 56 56 58 56 56 55 52 49 47 47 46 45 45 44 46 46 44 44 44 43 43 40 41 41 42 44
28 25 22 21 19 20 26 31 30 29 32 32 35 36 41 45 49 51 57 53 54 63 65 51 47 48 49 47 45 46 45 44 43 41 38 36 36 38 39 40 42 41 41
27 25 22 20 18 18 19 22 27 30 30 29 29 32 39 44 44 49 49 47 48 47 48 49 51 51 51 49 47 46 45 42 42 42 40 38 38 40 41 41 40 39 39
27 24 24 22 19 18 20 21 21 20 22 25 27 28 30 33 35 41 43 45 47 49 48 52 54 55 51 49 50 47 47 48 45 41 41 42 42 42 41 39 35 37 35
26 24 21 19 19 21 22 22 25 28 30 31 32 34 35 35 36 38 41 45 48 47 47 48 45 45 47 46 47 46 45 42 41 42 42 43 42 43 42 41 41 38 39
28 25 22 19 18 24 25 25 25 27 30 32 34 35 38 39 41 42 41 42 44 46 46 47 44 44 40 42 41 41 40 41 42 43 44 44 44 43 42 38 35 35 36
27 26 26 25 24 25 26 26 26 29 33 35 35 37 37 40 39 38 39 39 42 43 43 44 43 42 38 40 41 42 40 40 39 39 40 39 40 39 36 36 35 34 27
23 23 24 28 28 29 28 27 28 30 33 35 35 36 36 36 36 36 36 35 37 40 42 43 42 44 46 44 45 40 38 35 33 32 34 32 31 32 34 34 30 28 32
26 26 26 27 30 32 31 30 31 32 34 33 34 33 33 32 36 35 35 34 36 37 36 35 38 43 42 39 45 44 39 35 36 36 37 35 36 35 32 30 28 32 29
29 29 30 33 32 32 32 32 32 33 33 30 31 30 31 29 30 33 34 33 37 37 36 35 39 35 36 36 37 42 40 41 35 38 38 37 32 31 33 31 29 28 26
27 28 29 29 29 30 31 31 31 32 32 30 31 31 30 26 27 27 24 24 27 31 36 41 43 45 41 36 36 37 40 34 34 31 31 32 33 33 33 29 27 27 27
28 27 29 29 30 32 32 32 32 33 34 33 30 27 24 24 26 27 30 32 31 31 33 29 28 29 32 34 37 38 37 37 31 31 32 31 32 33 30 28 28 27 28
24 25 26 27 29 29 30 32 32 32 33 31 30 29 28 29 31 30 29 28 28 28 28 30 31 32 32 32 32 34 34 34 32 32 32 34 34 29 31 28 28 28 27
22 23 23 25 28 28 30 29 30 30 29 29 30 31 32 30 29 29 28 27 26 25 28 29 29 30 32 32 31 31 32 31 32 33 32 32 30 33 28 30 30 27 26
22 25 26 26 28 29 29 29 29 29 29 27 27 28 29 28 30 28 28 28 28 27 26 26 28 27 26 27 30 30 28 28 30 32 33 32 34 32 31 32 28 26 26

GFSMW_500_spd_099.txt.gz
Wind_Speed
56 55 53 50 47 42 42 42 42 38 36 41 41 39 37 38 38 36 34 32 34 35 37 38 39 38 37 38 37 36 34 33 32 32 30 27 28 27 27 26 28 30 29
54 54 52 48 44 40 40 39 40 40 39 39 39 39 40 40 44 43 39 35 37 38 37 40 35 43 43 43 41 39 39 38 35 34 34 31 33 32 31 29 32 35 32
54 54 53 48 45 41 38 39 41 40 42 41 43 44 44 45 44 46 45 43 42 40 41 42 38 38 40 45 46 48 45 42 38 38 38 37 36 35 33 31 37 32 33
50 54 52 47 44 42 40 39 40 41 41 41 44 47 48 48 47 43 45 48 45 44 42 41 40 33 34 41 44 39 44 44 40 40 39 40 38 40 35 35 31 36 32
50 53 51 44 43 41 39 37 36 36 38 43 46 50 52 51 52 46 48 49 47 49 49 47 46 46 42 34 30 30 38 39 42 43 48 35 35 35 35 38 37 33 30
56 48 48 46 44 41 39 37 37 38 40 43 47 52 53 53 51 48 49 48 49 52 43 45 47 44 46 47 41 36 39 42 45 43 35 38 36 39 39 35 30 33 30
53 50 49 48 46 43 41 38 37 40 44 46 48 49 50 52 54 52 52 46 49 43 43 51 44 45 50 43 47 51 48 50 42 45 44 37 47 34 32 32 33 33 33
47 51 52 47 47 46 43 37 38 40 43 47 48 48 53 58 55 56 56 53 47 56 50 47 46 50 50 45 47 45 47 40 40 48 58 53 38 34 35 35 35 33 34
45 48 51 47 46 42 39 38 40 42 42 43 44 46 49 57 61 62 62 58 52 48 48 61 43 47 46 45 44 47 44 44 40 42 42 36 37 37 38 36 36 36 36
39 35 35 38 42 40 38 37 41 43 44 45 46 43 46 51 53 57 53 59 61 62 60 60 52 46 45 48 47 42 42 41 41 37 36 38 38 38 35 37 38 40 41
38 37 39 39 36 34 35 38 42 44 46 45 42 43 45 47 46 46 48 57 56 56 52 49 47 48 47 49 51 50 47 44 44 44 40 42 41 41 40 40 40 41 40
29 29 29 31 33 35 33 35 39 40 37 33 34 33 33 36 38 39 45 46 52 57 54 52 53 51 49 51 47 48 48 45 44 43 43 43 43 43 41 39 37 36 34
34 35 34 30 28 30 31 26 26 32 30 30 30 33 31 30 36 36 39 46 44 51 52 54 61 52 54 51 52 55 51 47 46 44 41 39 37 35 36 36 36 35 36
30 30 29 30 31 29 27 22 20 20 27 31 30 29 30 31 33 34 38 42 42 43 47 48 46 40 44 46 47 44 47 47 47 45 43 41 40 38 38 38 38 38 38
30 32 30 28 27 26 24 22 21 20 21 23 25 25 25 27 28 31 33 36 38 39 40 45 49 45 47 52 47 49 51 50 50 49 49 47 44 44 42 40 40 41 39
36 34 28 27 27 25 23 24 23 22 22 23 25 28 30 30 32 34 35 36 38 39 39 42 43 45 46 47 48 48 50 52 53 51 51 49 46 43 43 41 42 42 40
30 30 29 26 26 26 26 27 28 26 26 27 28 28 30 32 34 35 37 39 41 43 43 43 41 42 44 45 45 45 46 43 40 41 42 41 43 44 43 44 44 42 39
29 27 26 25 26 29 30 31 31 31 30 29 29 30 32 35 36 37 39 42 42 42 40 40 40 40 42 43 44 44 44 42 40 42 41 41 42 40 39 40 40 37 35
27 28 27 26 29 29 31 31 32 32 30 31 31 32 34 36 36 37 37 37 37 37 38 39 38 38 40 41 44 43 43 41 42 45 41 37 34 33 33 30 29 29 29
26 26 25 26 27 29 33 33 33 33 34 33 32 33 34 36 37 37 37 35 34 37 38 38 37 37 38 35 33 37 43 43 40 41 45 41 42 39 33 36 34 32 30
27 28 29 30 31 31 31 33 35 36 36 36 34 33 34 34 36 35 35 36 34 32 33 34 34 37 37 35 36 35 34 36 34 35 42 44 39 36 37 40 37 29 30
26 26 28 32 33 33 35 34 34 36 37 35 34 33 33 34 35 34 32 31 32 31 30 29 30 30 32 37 41 41 40 36 34 36 35 34 35 35 36 33 30 31 29
23 25 27 28 29 29 30 31 32 34 35 34 34 34 34 35 34 32 29 28 29 30 30 30 31 32 33 33 31 30 34 37 38 37 37 38 38 35 32 33 33 31 28
23 24 25 26 27 28 30 31 32 33 33 34 34 33 35 34 33 33 33 32 31 30 31 30 30 30 30 31 31 32 32 33 31 33 33 36 36 33 34 32 31 30 26
23 24 24 25 25 26 27 29 30 31 32 32 32 32 33 33 33 34 33 32 30 30 30 31 30 30 30 30 31 31 32 32 32 31 34 36 32 32 32 34 30 28 30
26 25 25 25 26 28 29 31 31 31 31 31 31 31 32 31 31 31 30 30 29 29 29 30 31 31 28 27 26 27 28 28 30 30 32 32 33 33 35 33 31 30 33

GFSMW_500_spd_102.txt.gz
Wind_Speed
59 55 54 51 49 46 46 43 41 38 40 46 36 36 42 34 40 32 31 33 34 32 33 34 33 33 34 35 37 38 38 38 36 34 34 34 34 35 35 34 32 32 32
65 58 57 55 52 49 46 42 41 38 35 38 32 36 34 40 38 35 34 35 36 36 38 39 37 34 34 35 34 38 40 39 39 40 42 39 39 38 38 38 39 36 36
50 64 61 57 53 50 47 45 41 37 35 36 35 37 41 41 42 42 38 36 37 38 41 42 42 40 39 40 35 35 33 34 39 31 31 47 49 49 48 46 44 42 42
46 48 54 57 54 50 48 45 43 39 36 35 34 39 40 38 40 40 38 40 42 40 39 40 45 44 43 39 34 35 30 28 28 33 37 42 39 39 38 45 43 44 44
47 44 44 49 51 49 46 45 45 43 39 37 36 39 37 37 38 38 39 47 47 44 47 42 40 44 42 43 39 31 28 21 26 28 29 30 39 39 37 42 39 43 31
33 32 52 53 51 49 46 45 44 42 40 35 37 39 37 37 37 41 45 47 48 48 46 48 46 42 36 42 40 41 37 40 42 38 37 37 39 41 38 45 40 34 24
41 36 38 47 47 44 44 43 43 41 40 38 39 38 37 37 39 43 47 49 52 52 50 48 41 45 50 41 40 38 40 41 41 41 40 35 42 44 45 43 42 35 30
46 42 42 41 42 45 44 45 44 43 41 39 38 36 38 41 45 47 49 51 53 56 58 56 52 50 51 52 46 49 47 47 45 37 36 36 37 42 38 37 39 35 37
38 37 35 45 46 46 46 46 46 44 41 39 39 38 39 43 46 47 50 54 54 58 61 61 59 56 53 53 53 55 52 51 43 42 41 42 37 38 40 44 37 38 38
38 37 40 41 51 46 44 43 44 45 42 39 39 41 44 46 50 52 52 50 53 56 60 62 63 63 60 55 58 51 49 44 45 43 39 39 39 38 38 36 37 39 39
37 42 42 44 52 51 48 46 43 44 44 40 43 47 48 49 52 55 53 51 52 53 53 58 62 59 58 61 58 55 49 52 48 44 44 45 45 45 44 42 42 41 43
36 42 40 39 45 44 41 42 43 43 43 44 44 47 50 53 53 47 44 44 44 45 49 49 49 53 58 58 61 50 49 48 48 47 47 46 45 46 47 45 45 47 45
37 37 39 40 38 36 39 41 40 38 39 39 44 45 45 42 40 37 35 35 35 38 41 42 44 45 49 53 58 61 59 54 54 54 50 48 46 47 46 46 42 40 38
39 42 37 40 41 40 40 41 41 37 38 40 35 32 32 31 30 31 34 34 36 39 39 39 41 41 43 47 48 50 45 45 47 43 42 45 46 45 44 44 42 42 39
35 35 43 38 40 43 43 39 36 37 34 31 28 28 29 30 30 31 32 32 32 34 36 38 39 40 41 43 46 47 48 46 50 46 45 45 45 47 47 47 45 45 44
33 36 40 43 45 42 40 36 34 34 34 31 30 30 29 28 27 28 31 32 34 36 35 36 38 40 43 43 43 43 46 47 48 50 49 48 50 50 50 50 48 48 47
33 33 33 33 35 35 33 33 35 35 34 33 33 31 31 30 31 32 33 35 36 36 36 39 42 44 44 45 43 41 40 41 44 46 45 44 44 44 44 44 46 48 46
36 36 36 37 34 34 34 35 36 35 35 35 34 32 32 33 34 35 35 34 35 37 38 40 41 43 42 40 40 40 41 41 42 43 43 45 44 42 42 43 40 42 43
33 33 35 34 35 37 38 37 35 35 35 37 37 36 36 36 36 36 35 34 36 38 38 39 40 39 39 40 41 40 40 37 36 38 41 42 43 39 39 41 38 34 35
25 30 40 38 35 35 36 36 37 38 38 38 38 38 39 38 39 37 36 36 38 38 39 39 37 37 37 39 39 39 39 37 35 33 32 36 44 41 41 37 43 39 41
26 27 27 29 30 32 37 38 39 41 41 41 40 40 41 41 40 39 38 37 38 38 39 37 36 34 34 35 34 34 38 41 37 36 34 34 35 37 39 38 38 40 37
25 28 30 30 31 35 36 36 37 37 39 42 43 43 44 42 39 39 38 38 38 38 37 35 32 32 34 35 35 34 36 34 35 40 39 36 37 35 38 34 33 36 38
24 25 27 29 30 30 32 33 34 35 37 37 37 37 38 38 38 38 39 38 38 38 36 36 36 36 35 34 33 32 32 33 32 31 33 38 40 40 38 38 38 35 37
24 25 25 26 28 29 31 31 32 33 33 34 35 36 37 37 37 38 38 37 38 38 38 38 37 35 33 34 33 33 32 34 33 34 35 35 36 37 38 38 38 38 35
25 25 26 27 28 29 30 31 31 31 32 34 36 36 36 36 34 33 34 34 35 35 36 36 34 35 35 35 34 33 32 31 32 32 33 31 33 32 34 35 37 35 35
27 27 28 28 29 29 29 29 30 31 32 33 34 33 34 33 32 33 34 35 35 36 35 35 34 33 32 32 31 32 31 30 29 28 28 27 29 31 31 34 33 32 36

GFSMW_500_spd_105.txt.gz
Wind_Speed
57 51 46 51 57 50 43 47 42 40 38 35 35 34 29 26 30 24 26 26 27 27 26 28 29 30 30 30 32 33 32 34 37 37 41 38 36 39 38 37 39 37 36
56 58 58 51 41 55 46 42 41 41 39 38 44 39 39 39 37 36 31 33 33 30 30 32 32 33 33 33 34 34 35 39 44 37 36 38 40 42 45 44 45 42 45
55 54 55 53 55 41 41 42 43 44 42 35 32 31 33 35 44 38 33 33 35 34 33 33 34 36 37 39 39 40 41 39 35 36 28 25 36 38 30 35 41 43 40
63 62 61 56 49 45 41 37 39 36 35 34 31 34 34 29 28 29 27 31 34 35 37 36 38 38 37 36 37 37 40 40 36 24 24 26 24 26 32 33 33 39 39
57 56 53 61 60 52 47 42 38 38 41 38 37 37 34 35 36 30 29 28 31 34 38 41 42 42 44 40 35 33 31 32 31 35 28 32 33 35 31 31 38 43 41
57 52 57 58 55 53 52 50 46 44 39 41 41 40 40 39 37 35 31 32 31 33 33 35 38 40 39 40 36 36 33 37 40 42 35 36 37 37 36 33 35 38 43
49 46 48 46 53 58 54 50 48 47 45 44 42 41 41 40 36 33 35 35 36 39 42 45 45 50 51 51 51 47 47 49 46 45 41 41 40 41 37 33 36 35 36
41 45 42 41 43 44 50 52 50 48 45 44 42 41 40 38 37 33 35 37 38 41 44 47 49 51 52 52 54 54 53 52 49 50 49 49 46 44 38 40 37 38 35
41 34 39 33 33 39 44 46 47 47 47 46 45 43 41 39 36 35 36 39 42 45 47 49 52 54 55 57 57 58 56 58 56 52 48 46 44 43 38 37 42 46 42
39 43 38 38 32 37 42 48 47 46 48 47 46 43 39 38 39 39 39 41 45 47 51 53 56 57 58 58 58 58 58 57 58 59 56 57 53 50 47 47 43 44 42
23 23 31 30 33 35 40 43 45 45 44 46 47 45 43 44 43 41 40 45 49 53 55 58 60 60 58 58 56 56 54 55 53 50 53 52 51 47 45 42 43 43 47
24 25 30 32 33 35 38 44 46 44 47 49 47 48 45 43 41 43 44 47 53 56 58 56 51 49 48 51 49 49 49 48 51 55 57 56 52 51 50 50 50 50 48
35 33 33 40 41 40 43 47 43 46 48 48 45 47 45 43 43 42 46 53 54 51 42 37 35 35 37 40 42 46 51 52 52 53 55 57 56 53 50 53 51 50 50
30 35 38 39 42 42 40 41 44 48 51 53 50 49 46 44 42 44 49 49 38 31 30 34 37 38 37 40 40 40 40 41 44 47 49 46 45 45 47 47 47 48 47
37 38 36 38 40 44 42 42 45 49 48 49 50 46 44 45 44 46 37 32 31 30 30 31 33 37 38 38 39 39 41 43 45 45 47 50 50 50 47 48 49 46 45
34 42 43 41 41 41 44 46 45 44 45 44 43 43 44 44 43 37 33 33 31 31 31 32 35 37 38 38 40 43 45 47 48 47 46 46 48 50 51 50 51 51 49
35 37 42 43 43 39 41 44 45 44 45 47 46 47 44 45 41 38 37 34 34 34 35 36 39 40 42 42 42 42 43 44 43 43 43 42 43 44 47 48 49 48 50
34 37 35 38 41 41 39 39 39 39 41 41 41 44 47 44 41 40 37 37 38 38 40 39 40 40 41 42 43 44 43 41 40 41 41 42 42 41 42 45 45 45 45
38 35 35 32 33 34 35 37 38 42 43 42 43 44 43 43 43 41 40 40 39 40 40 41 40 41 41 41 43 44 42 40 40 43 42 40 39 36 36 38 40 42 41
40 40 39 40 36 36 37 39 36 36 39 40 42 42 42 44 45 44 43 42 42 41 41 42 42 40 41 41 41 41 39 37 37 40 40 40 40 35 34 34 34 40 36
26 28 33 39 39 43 45 39 39 41 42 41 42 43 44 45 45 44 44 44 45 44 43 44 43 43 42 43 42 41 38 38 38 37 38 37 37 39 36 36 36 35 36
23 26 27 29 30 36 43 42 43 46 43 42 43 44 45 46 45 45 46 46 46 45 46 45 44 44 44 43 44 43 42 40 38 37 35 35 35 33 37 38 36 40 37
23 24 25 25 28 30 30 31 34 34 34 37 39 42 42 41 43 44 46 45 44 44 43 43 44 45 45 44 44 43 41 39 38 38 36 36 34 33 32 34 39 41 39
25 25 27 27 28 29 31 32 33 34 37 38 38 38 39 42 43 44 42 42 42 42 42 42 43 43 42 42 41 41 40 39 41 39 36 35 34 33 34 34 33 36 37
28 27 27 28 29 30 31 32 33 34 35 36 37 37 38 38 39 40 40 40 40 39 38 38 39 38 39 39 37 38 38 39 39 38 35 34 32 32 31 31 31 33 32
28 28 28 29 29 30 31 32 33 34 34 35 35 36 36 37 38 38 39 39 38 37 38 39 38 39 39 39 39 38 36 36 36 35 34 33 31 29 29 28 28 31 31

GFSMW_500_spd_108.txt.gz
Wind_Speed
64 63 64 51 48 43 39 40 43 47 47 38 29 35 28 28 26 26 27 25 25 25 24 23 24 23 24 25 27 27 27 28 28 30 32 36 40 37 36 37 35 38 41
62 65 64 51 49 49 46 48 43 50 49 40 41 38 33 32 30 28 31 28 25 27 26 26 25 26 26 28 31 30 30 33 33 35 36 41 43 37 32 31 34 34 32
59 53 50 52 52 49 52 46 38 40 41 43 44 48 44 42 37 34 34 31 32 31 27 24 27 30 31 32 33 33 35 36 35 34 36 39 28 27 23 26 30 29 34
61 50 47 45 36 39 51 49 50 37 36 39 43 44 36 46 37 37 37 38 38 35 32 35 31 30 34 35 36 35 34 32 30 37 35 31 22 19 24 27 28 30 30
58 58 55 51 53 50 39 39 42 40 31 47 39 44 26 27 33 33 31 20 31 20 24 23 27 31 33 38 33 28 32 35 33 35 21 25 36 29 27 29 29 32 33
60 60 58 54 52 51 49 43 45 49 47 36 31 31 30 31 26 27 23 24 25 25 25 29 29 39 30 33 35 41 42 45 43 48 46 44 41 36 34 37 36 36 32
56 53 51 51 49 49 47 52 33 32 34 34 32 31 34 33 32 28 25 28 28 29 32 33 33 35 37 39 42 45 44 45 48 50 50 47 47 47 41 43 47 48 41
60 56 52 52 54 54 47 49 52 43 43 40 39 33 34 33 33 32 31 33 33 33 32 32 34 36 38 40 43 45 49 50 49 50 50 51 50 54 55 48 45 47 41
44 55 50 44 54 54 50 48 46 51 51 49 46 45 45 39 39 37 36 37 33 32 32 33 35 38 41 44 47 50 52 53 54 53 52 50 49 52 53 54 50 45 42
47 40 46 44 47 45 45 47 53 55 54 51 48 47 45 44 42 41 39 38 35 35 35 36 40 43 46 48 53 56 59 58 55 53 52 51 48 46 48 47 47 45 50
39 41 48 42 42 47 46 49 54 57 54 50 49 48 47 45 43 43 42 41 38 37 39 39 44 49 50 52 54 59 59 54 49 48 46 46 46 46 45 47 49 48 47
27 30 33 35 39 42 37 37 44 48 47 46 45 45 45 44 44 44 42 42 40 42 41 42 45 51 52 53 53 49 43 41 42 42 43 44 46 48 48 50 51 52 49
27 21 22 30 38 42 40 35 37 39 38 38 43 45 43 43 43 46 47 44 43 43 43 42 48 50 46 34 32 32 34 36 39 40 40 42 42 43 45 49 49 53 54
18 24 24 25 36 37 38 37 37 35 37 40 44 45 47 47 48 45 45 43 44 43 43 45 49 38 32 29 30 32 34 37 39 40 41 41 42 44 44 46 49 51 51
26 28 31 34 33 33 34 34 34 36 40 41 46 45 46 46 43 41 41 43 43 45 46 43 41 36 31 30 32 34 37 39 40 42 44 45 48 50 49 47 48 48 49
27 29 29 32 38 39 38 40 43 46 45 46 46 46 50 51 48 48 51 51 48 46 47 43 40 36 35 34 36 38 40 42 44 46 48 47 47 45 44 44 45 44 44
26 29 30 32 36 37 37 41 43 44 44 44 46 48 49 49 49 51 50 51 47 48 44 41 41 40 39 38 40 41 42 44 45 47 49 48 47 45 43 42 43 44 43
28 32 32 32 38 39 41 42 43 44 44 46 47 46 47 48 47 45 48 50 50 48 44 45 45 44 42 42 42 43 44 45 45 47 47 47 46 44 42 43 42 41 40
28 28 28 34 31 37 40 41 41 42 42 42 44 46 46 45 47 50 49 46 49 47 46 46 48 47 45 44 44 46 46 46 46 44 45 45 45 43 41 40 40 40 38
26 26 25 30 33 35 32 37 41 41 37 34 36 40 41 41 42 42 44 48 48 47 47 48 47 48 47 46 46 46 47 46 45 44 46 45 44 43 40 41 39 39 37
22 26 30 33 34 37 40 39 37 36 36 38 40 38 39 40 38 40 45 48 46 47 49 49 50 50 48 49 48 48 47 47 47 47 47 47 44 43 39 37 37 37 37
22 26 28 28 30 30 34 40 43 48 46 43 42 44 44 44 44 46 47 45 44 45 45 46 48 49 48 48 46 46 47 47 48 49 51 47 44 40 40 39 37 34 33
22 23 24 24 25 27 29 34 37 42 44 41 45 46 44 46 50 48 49 48 45 42 43 45 45 45 45 44 44 46 48 49 47 47 46 44 42 42 41 38 36 33 32
28 26 25 27 28 28 28 28 29 30 33 37 42 46 48 44 41 40 41 42 43 45 45 44 45 44 44 44 44 46 45 44 43 42 42 42 42 40 39 36 35 34 32
32 31 31 30 30 31 31 31 31 32 33 34 35 37 37 38 39 40 40 41 41 42 43 43 43 42 41 41 42 42 42 42 41 41 42 41 38 36 35 34 33 32 31
34 32 32 33 32 32 33 33 34 34 35 36 37 37 38 38 39 39 40 41 41 41 41 40 39 39 40 40 40 40 41 39 39 38 39 37 36 34 32 32 31 30 30

GFSMW_500_spd_114.txt.gz
Wind_Speed
72 78 82 54 50 46 65 49 50 58 62 62 59 58 55 51 46 43 41 38 36 34 33 31 29 28 29 28 27 27 27 23 24 25 24 25 27 29 30 32 34 35 36
73 74 69 72 41 52 50 56 61 52 60 65 61 62 55 50 48 43 39 35 34 34 34 33 32 30 28 28 27 29 29 24 26 26 25 27 29 30 31 31 33 32 29
70 66 70 53 43 47 38 40 49 64 45 61 68 69 63 56 47 41 38 38 35 35 35 34 31 28 28 28 31 29 29 27 27 23 25 30 29 28 27 27 23 20 27
65 63 62 64 49 42 42 39 42 44 44 59 57 51 49 49 45 41 39 38 38 41 41 37 30 29 28 31 30 29 26 26 28 27 25 19 21 24 25 27 34 36 35
60 59 65 62 42 35 54 46 44 43 55 60 49 49 52 50 47 43 43 44 45 44 38 34 33 30 25 29 30 25 34 23 13 18 19 21 22 27 29 30 32 34 38
63 54 57 53 46 36 48 50 41 49 39 49 47 49 51 50 50 51 50 51 53 47 41 40 35 34 32 33 27 28 11 17 21 21 24 28 29 30 31 33 37 40 41
61 54 55 52 49 42 47 38 49 43 40 44 44 40 57 58 53 49 48 55 54 50 43 38 33 36 36 28 11 10 16 17 21 22 27 31 33 36 38 38 39 43 45
63 57 55 50 46 50 45 38 41 53 41 49 54 62 54 58 57 57 59 41 45 41 40 33 35 43 28 11 14 16 19 22 26 29 33 35 37 38 39 42 45 45 47
55 51 55 48 43 37 39 34 30 26 47 41 38 48 42 67 40 59 55 56 52 55 47 36 34 20 15 15 19 21 24 28 29 31 34 34 34 36 38 44 46 43 38
48 58 54 46 42 33 36 32 23 28 22 31 28 31 21 25 37 51 39 44 29 31 29 22 14 16 21 23 24 26 28 29 31 32 34 33 35 37 35 36 35 36 35
59 53 50 49 47 44 41 31 25 24 22 28 31 36 39 32 30 25 23 23 23 27 24 28 22 23 26 27 27 28 30 30 32 33 37 36 34 32 31 30 32 32 32
50 51 49 49 47 42 44 37 29 30 30 34 34 36 35 31 32 34 24 26 30 33 33 31 27 28 28 29 30 31 32 32 31 34 38 36 33 29 29 30 31 35 37
45 47 46 48 45 45 43 42 42 40 35 29 31 35 34 31 32 32 32 35 34 36 37 36 32 31 30 31 32 33 33 34 35 36 36 35 34 33 32 32 32 35 38
29 42 43 44 46 46 42 42 40 40 38 33 33 29 29 28 30 32 32 32 35 37 36 35 35 33 33 35 37 37 36 36 36 38 39 37 37 35 32 33 34 35 40
17 37 42 45 45 41 44 37 35 39 34 29 30 31 31 31 30 29 31 34 35 37 37 37 36 37 37 38 37 36 38 39 39 41 42 38 39 37 38 37 40 39 42
5 16 18 32 34 43 44 43 41 42 40 36 27 32 30 30 31 32 34 36 36 34 36 38 39 39 39 38 38 41 43 43 40 43 43 41 41 41 40 41 44 44 45
7 8 12 20 19 16 19 30 31 33 36 36 37 37 36 37 36 32 31 35 36 38 40 41 41 41 42 42 44 45 45 43 42 43 44 43 44 43 43 45 45 46 47
10 12 14 15 18 21 23 24 24 24 27 28 31 32 33 36 37 36 35 37 39 41 42 43 44 44 44 45 46 45 43 45 44 43 45 46 45 43 47 48 48 47 47
17 17 19 22 24 25 26 28 31 33 34 36 38 38 41 41 42 45 45 43 42 43 43 44 45 45 44 45 45 44 43 45 42 44 44 44 44 45 48 50 50 46 45
21 25 29 29 30 31 32 32 36 38 39 41 41 42 44 44 43 44 45 46 45 45 45 44 45 43 42 43 45 41 40 45 47 45 45 44 44 46 51 46 46 47 47
21 23 25 27 34 39 39 40 39 40 42 43 44 45 46 46 44 43 44 44 44 45 42 40 40 39 41 41 43 44 45 46 46 45 46 45 45 44 43 46 46 46 47
24 25 28 28 29 30 36 41 42 43 44 46 44 43 42 43 44 44 44 43 43 44 44 44 44 45 45 45 47 47 46 47 47 50 49 48 47 46 44 44 45 45 45
26 26 27 29 31 31 31 32 38 44 46 47 46 45 46 45 42 41 41 41 42 45 47 48 50 50 50 47 47 48 51 51 53 49 50 49 48 45 43 44 44 43 42
32 31 31 31 32 32 32 33 34 36 38 40 42 42 44 47 50 51 50 51 52 52 51 51 51 52 54 56 59 57 54 51 50 48 44 45 44 42 43 42 41 40 39
32 33 34 36 38 39 38 37 35 34 36 38 38 39 41 43 44 46 49 51 52 53 51 51 50 51 50 53 55 54 47 44 43 44 44 44 42 41 41 39 39 38 37
32 34 34 33 34 36 39 39 40 40 40 41 40 41 43 41 37 34 37 44 44 47 45 46 49 50 50 47 47 47 44 42 41 42 43 43 41 41 40 39 37 36 36

GFSMW_500_spd_117.txt.gz
Wind_Speed
70 80 80 79 81 85 48 46 57 53 79 76 67 62 56 52 50 49 47 46 43 42 41 38 34 33 33 28 26 25 27 26 25 22 20 23 25 28 29 30 31 30 32
73 80 77 83 81 75 50 57 52 36 70 73 61 61 56 53 51 49 49 46 45 45 39 35 36 36 31 30 27 28 27 26 22 21 24 25 28 28 27 29 29 24 27
76 74 77 78 76 62 42 45 46 59 58 68 61 60 58 57 55 55 53 49 47 40 40 40 39 35 32 29 30 29 26 24 25 27 26 24 25 23 18 17 20 23 24
73 72 74 71 82 75 50 44 45 44 65 60 62 61 58 54 57 55 52 48 46 44 45 40 40 37 34 30 31 28 28 29 27 24 24 7 8 12 13 18 22 27 29
67 67 72 67 65 61 57 42 48 49 48 61 62 63 62 62 60 56 55 54 50 48 44 42 41 40 33 32 31 35 31 28 27 22 5 8 9 15 15 18 22 23 28
58 70 67 73 75 61 43 43 48 49 53 54 59 64 65 63 60 61 62 56 52 49 46 43 44 41 38 38 34 26 30 27 14 6 7 9 13 15 17 20 20 22 30
57 72 68 68 79 62 48 44 34 53 60 56 61 62 60 58 61 63 61 58 54 53 51 47 45 46 41 37 34 32 29 9 3 7 11 13 19 19 19 19 24 26 32
52 69 62 57 48 66 40 40 43 55 57 40 63 58 53 62 52 63 60 58 60 55 50 46 42 33 34 34 34 40 9 5 8 11 16 16 20 19 18 19 26 27 30
49 57 52 44 49 63 51 25 28 46 46 45 62 58 56 53 47 58 59 49 47 47 56 52 51 47 36 33 42 18 8 10 15 18 18 19 21 22 22 24 28 30 30
47 48 48 44 47 52 51 35 25 35 35 40 49 52 59 47 58 58 55 56 54 48 45 45 51 52 37 30 27 14 15 14 18 23 23 23 23 24 23 26 28 30 29
44 52 42 37 37 56 37 29 25 22 27 30 37 44 51 52 67 53 49 47 45 58 56 55 39 53 45 32 28 23 22 22 25 24 26 26 26 24 24 26 28 28 29
43 52 49 43 43 46 43 21 27 21 21 23 29 24 23 39 30 22 40 21 24 22 31 24 26 20 19 26 25 25 25 26 27 27 28 28 28 27 28 29 30 31 34
39 36 34 47 44 39 36 30 27 22 17 19 18 15 15 20 20 21 12 14 23 19 17 17 18 25 25 21 24 26 27 30 30 31 31 30 30 29 32 33 34 36 37
31 43 44 37 31 36 29 36 32 35 25 24 19 17 22 22 22 19 17 18 19 21 23 22 29 31 29 28 28 30 32 33 34 34 32 32 33 33 34 35 38 40 40
24 33 38 41 37 38 38 34 32 29 30 27 28 29 26 29 24 21 21 21 24 26 31 34 33 31 30 29 30 31 32 35 36 34 34 36 37 38 37 38 42 43 41
16 20 27 26 29 29 32 30 29 29 30 31 32 32 30 31 30 27 27 27 31 34 32 34 32 32 33 33 33 34 35 37 37 38 39 40 41 41 42 42 46 45 45
9 2 15 21 18 20 28 33 34 32 34 28 30 30 33 32 30 29 29 30 31 33 34 36 34 35 34 33 34 37 38 39 41 42 43 44 44 44 45 45 46 47 48
1 7 10 10 13 15 19 19 20 26 32 34 33 35 32 29 30 31 31 33 34 34 34 35 37 38 38 39 39 40 42 43 45 47 47 46 44 46 46 46 47 48 47
6 10 12 14 17 19 21 21 20 21 22 22 23 25 29 31 32 31 33 35 37 38 37 37 39 41 42 42 42 44 47 47 48 48 47 45 46 45 47 47 46 47 46
15 17 17 20 21 22 23 24 26 28 29 31 32 34 35 37 39 40 40 41 42 45 44 44 46 48 49 49 48 46 46 48 48 47 47 48 45 44 45 46 45 43 44
17 19 22 23 25 28 31 32 33 34 34 36 37 39 41 43 46 47 48 49 49 49 49 49 48 49 50 50 48 47 47 45 43 43 44 45 46 44 46 46 47 44 43
20 22 23 25 27 28 30 32 34 37 41 42 43 42 43 46 47 49 49 49 50 49 50 48 46 46 46 45 45 44 42 42 45 46 48 47 43 45 45 48 47 47 45
26 25 25 28 31 34 34 35 36 37 38 40 43 45 45 45 45 46 46 45 43 44 45 45 45 45 44 42 43 45 46 46 47 47 46 46 51 52 51 50 52 46 43
31 34 37 37 37 37 37 38 39 39 41 41 41 42 46 47 47 48 48 46 46 44 44 43 42 42 43 44 46 47 48 48 48 51 52 52 49 46 43 43 42 41 42
19 23 29 37 42 43 45 45 44 44 42 40 40 41 42 42 42 42 43 45 47 48 48 47 48 48 49 48 49 49 48 48 48 47 47 45 44 43 43 42 41 40 40
18 20 25 29 30 31 39 44 44 46 46 45 45 45 45 45 45 43 41 37 36 37 40 45 42 40 38 42 42 43 47 46 46 46 45 44 44 40 39 40 40 40 39

GFSMW_500_spd_120.txt.gz
Wind_Speed
53 64 80 84 82 88 70 44 47 58 71 52 67 69 65 60 55 51 47 45 42 41 38 38 36 35 33 30 28 29 28 27 25 23 22 22 22 22 22 25 24 25 24
48 57 67 81 81 87 80 59 49 47 60 51 64 68 64 61 56 51 49 46 44 43 40 40 38 37 33 32 33 30 30 29 25 23 24 22 24 24 24 21 17 10 10
42 56 66 73 75 84 92 59 42 57 60 46 49 65 67 66 60 56 54 50 48 45 42 42 40 38 36 36 33 31 31 28 25 25 22 24 28 27 19 7 8 8 11
42 53 72 70 70 75 89 65 42 57 55 42 45 62 72 67 62 57 56 54 49 46 47 45 40 41 37 37 35 33 30 28 27 24 29 30 27 13 7 2 7 11 13
42 46 76 58 60 76 82 57 38 38 54 43 43 52 74 66 62 60 60 50 50 50 48 45 45 43 40 39 38 34 31 30 28 33 37 30 15 10 4 4 9 10 12
31 47 73 53 65 67 80 67 48 51 43 42 39 40 72 65 62 61 57 54 54 52 53 48 48 45 44 43 40 36 31 37 38 37 35 28 10 9 10 9 10 10 13
25 40 66 52 67 64 70 77 48 42 40 54 51 55 60 53 55 55 55 56 56 58 54 51 50 50 47 45 43 36 41 38 33 35 29 15 13 10 11 14 13 13 18
24 49 54 52 59 61 68 73 38 32 36 43 53 41 54 53 45 50 58 59 60 59 55 55 56 54 51 43 41 42 40 34 37 30 22 21 13 12 11 13 15 17 19
26 43 45 46 52 58 62 70 62 32 37 38 52 49 51 48 57 52 58 63 65 63 61 62 58 59 51 45 41 32 29 36 32 18 16 17 19 17 16 16 17 20 21
17 19 32 39 52 46 55 50 47 34 24 44 50 55 52 57 50 51 54 61 64 62 66 61 63 61 54 50 43 31 29 32 32 24 22 18 18 21 19 20 21 22 22
19 16 24 40 52 50 53 46 31 15 17 31 49 56 58 41 59 49 50 46 52 50 53 55 61 52 51 46 47 33 36 34 22 22 23 25 25 25 24 22 24 25 24
19 21 28 40 29 23 30 41 46 36 12 20 23 40 42 48 38 53 55 51 53 48 45 47 51 43 41 45 26 44 47 28 26 29 27 28 28 29 27 27 26 27 25
30 21 24 30 23 24 25 24 30 13 11 15 16 25 21 19 31 37 30 36 51 46 48 41 50 53 57 47 37 28 32 27 30 31 31 32 32 31 32 31 31 28 29
27 24 31 24 19 20 19 19 27 25 16 9 16 6 7 8 7 11 8 8 16 29 25 21 24 29 27 31 22 24 26 29 30 31 32 35 36 37 37 35 33 34 33
27 29 33 26 22 26 24 26 19 29 31 27 22 26 22 19 22 20 21 13 14 17 22 21 28 31 24 28 28 25 25 28 31 35 37 38 39 38 38 37 37 38 37
34 27 21 26 24 23 23 22 24 26 17 20 18 19 22 19 20 19 18 18 17 16 18 27 25 28 32 36 34 34 33 35 36 38 39 39 39 39 39 40 41 40 41
21 29 27 17 23 21 17 20 17 24 22 21 22 26 27 27 25 23 24 24 28 25 31 35 40 38 38 38 36 37 36 37 38 38 39 39 39 41 43 44 45 44 45
12 8 4 12 7 7 14 17 21 25 27 28 28 27 25 25 25 28 29 32 32 30 39 40 39 36 37 37 39 39 39 39 39 40 40 41 42 45 46 47 48 46 45
4 6 9 10 15 19 21 16 16 16 18 17 20 24 29 32 33 31 32 32 34 35 36 38 37 39 40 40 41 41 41 41 41 43 45 45 47 47 50 49 46 46 46
5 5 7 9 12 15 16 19 19 18 21 23 26 29 30 34 36 30 31 31 33 35 35 38 40 42 45 46 45 44 45 46 47 47 48 48 49 47 47 46 47 48 45
10 10 11 13 16 19 21 23 24 26 27 29 30 32 34 37 38 40 41 42 44 44 46 46 48 49 49 49 49 50 51 51 51 51 49 48 47 47 46 46 46 46 49
15 15 15 14 17 20 24 26 27 29 31 33 36 40 40 40 41 44 47 48 49 49 48 48 50 50 49 50 51 50 51 50 49 49 49 48 47 46 46 47 48 48 48
23 22 21 22 23 24 27 29 30 31 33 36 36 37 39 42 47 49 49 50 51 52 51 51 51 51 50 50 49 50 49 48 48 49 47 46 47 50 50 46 45 48 49
28 29 30 31 31 31 28 26 29 34 36 38 39 40 41 42 44 45 47 50 51 51 50 50 50 50 50 49 47 47 48 48 47 45 44 46 49 49 48 50 52 50 48
19 20 21 20 21 25 33 41 41 37 32 29 36 42 43 44 44 44 45 48 48 50 50 52 54 53 52 52 53 52 52 52 50 49 49 50 50 49 49 49 48 45 43
17 13 12 14 16 21 28 37 45 49 45 40 36 34 37 43 45 48 46 40 43 47 45 46 46 46 45 48 52 54 53 52 48 47 51 52 47 45 45 44 44 43 42